<?xml version="1.0" encoding="UTF-8" standalone="no" ?>
<gpx xmlns="http://www.topografix.com/GPX/1/1" xmlns:xsi="http://www.w3.org/2001/XMLSchema-instance" xsi:schemaLocation="http://www.topografix.com/GPX/1/1 http://www.topografix.com/GPX/1/1/gpx.xsd" version="1.1" creator="VisuGPX - https://www.visugpx.com">
  <metadata>
    <name>big green 2012</name>
    <desc><![CDATA[big green 2012]]></desc>
  </metadata>
  <trk>
    <name><![CDATA[big_green_03_12]]></name>
    <trkseg>
      <trkpt lat="43.69919" lon="6.85119">
        <ele>734.1</ele>
        <time>2012-03-11T07:26:08Z</time>
      </trkpt>
      <trkpt lat="43.69916" lon="6.85105">
        <ele>732.18</ele>
        <time>2012-03-11T07:26:15Z</time>
      </trkpt>
      <trkpt lat="43.69916" lon="6.85103">
        <ele>732.66</ele>
        <time>2012-03-11T07:26:17Z</time>
      </trkpt>
      <trkpt lat="43.69917" lon="6.85097">
        <ele>731.7</ele>
        <time>2012-03-11T07:26:23Z</time>
      </trkpt>
      <trkpt lat="43.69908" lon="6.85091">
        <ele>729.78</ele>
        <time>2012-03-11T07:26:36Z</time>
      </trkpt>
      <trkpt lat="43.69897" lon="6.8508">
        <ele>727.37</ele>
        <time>2012-03-11T07:26:49Z</time>
      </trkpt>
      <trkpt lat="43.69895" lon="6.85078">
        <ele>718.24</ele>
        <time>2012-03-11T07:27:00Z</time>
      </trkpt>
      <trkpt lat="43.69877" lon="6.85069">
        <ele>728.34</ele>
        <time>2012-03-11T07:27:13Z</time>
      </trkpt>
      <trkpt lat="43.69877" lon="6.85066">
        <ele>729.3</ele>
        <time>2012-03-11T07:27:15Z</time>
      </trkpt>
      <trkpt lat="43.69875" lon="6.85031">
        <ele>731.22</ele>
        <time>2012-03-11T07:27:26Z</time>
      </trkpt>
      <trkpt lat="43.69866" lon="6.85">
        <ele>731.22</ele>
        <time>2012-03-11T07:27:39Z</time>
      </trkpt>
      <trkpt lat="43.69861" lon="6.8499">
        <ele>729.78</ele>
        <time>2012-03-11T07:27:44Z</time>
      </trkpt>
      <trkpt lat="43.69855" lon="6.85006">
        <ele>721.13</ele>
        <time>2012-03-11T07:27:54Z</time>
      </trkpt>
      <trkpt lat="43.69851" lon="6.85014">
        <ele>720.16</ele>
        <time>2012-03-11T07:27:57Z</time>
      </trkpt>
      <trkpt lat="43.6984" lon="6.85047">
        <ele>715.84</ele>
        <time>2012-03-11T07:28:12Z</time>
      </trkpt>
      <trkpt lat="43.69834" lon="6.85081">
        <ele>714.4</ele>
        <time>2012-03-11T07:28:24Z</time>
      </trkpt>
      <trkpt lat="43.6982" lon="6.85122">
        <ele>714.4</ele>
        <time>2012-03-11T07:28:37Z</time>
      </trkpt>
      <trkpt lat="43.69801" lon="6.85173">
        <ele>712.47</ele>
        <time>2012-03-11T07:28:52Z</time>
      </trkpt>
      <trkpt lat="43.69779" lon="6.85225">
        <ele>713.44</ele>
        <time>2012-03-11T07:29:07Z</time>
      </trkpt>
      <trkpt lat="43.69745" lon="6.85284">
        <ele>712.95</ele>
        <time>2012-03-11T07:29:26Z</time>
      </trkpt>
      <trkpt lat="43.69708" lon="6.85319">
        <ele>714.88</ele>
        <time>2012-03-11T07:29:42Z</time>
      </trkpt>
      <trkpt lat="43.69677" lon="6.85353">
        <ele>714.4</ele>
        <time>2012-03-11T07:29:57Z</time>
      </trkpt>
      <trkpt lat="43.69669" lon="6.85346">
        <ele>714.88</ele>
        <time>2012-03-11T07:30:01Z</time>
      </trkpt>
      <trkpt lat="43.69663" lon="6.85314">
        <ele>713.92</ele>
        <time>2012-03-11T07:30:06Z</time>
      </trkpt>
      <trkpt lat="43.69654" lon="6.85293">
        <ele>712.95</ele>
        <time>2012-03-11T07:30:10Z</time>
      </trkpt>
      <trkpt lat="43.69639" lon="6.85281">
        <ele>712.95</ele>
        <time>2012-03-11T07:30:16Z</time>
      </trkpt>
      <trkpt lat="43.69615" lon="6.85329">
        <ele>712.47</ele>
        <time>2012-03-11T07:30:29Z</time>
      </trkpt>
      <trkpt lat="43.69588" lon="6.85407">
        <ele>711.99</ele>
        <time>2012-03-11T07:30:47Z</time>
      </trkpt>
      <trkpt lat="43.69555" lon="6.85464">
        <ele>713.92</ele>
        <time>2012-03-11T07:31:03Z</time>
      </trkpt>
      <trkpt lat="43.69519" lon="6.85513">
        <ele>715.36</ele>
        <time>2012-03-11T07:31:19Z</time>
      </trkpt>
      <trkpt lat="43.69479" lon="6.85544">
        <ele>716.32</ele>
        <time>2012-03-11T07:31:32Z</time>
      </trkpt>
      <trkpt lat="43.69439" lon="6.85571">
        <ele>717.76</ele>
        <time>2012-03-11T07:31:44Z</time>
      </trkpt>
      <trkpt lat="43.69411" lon="6.8562">
        <ele>719.68</ele>
        <time>2012-03-11T07:31:59Z</time>
      </trkpt>
      <trkpt lat="43.6938" lon="6.857">
        <ele>722.09</ele>
        <time>2012-03-11T07:32:17Z</time>
      </trkpt>
      <trkpt lat="43.69355" lon="6.85776">
        <ele>724.01</ele>
        <time>2012-03-11T07:32:35Z</time>
      </trkpt>
      <trkpt lat="43.69323" lon="6.85795">
        <ele>725.45</ele>
        <time>2012-03-11T07:32:47Z</time>
      </trkpt>
      <trkpt lat="43.69294" lon="6.85806">
        <ele>724.49</ele>
        <time>2012-03-11T07:32:55Z</time>
      </trkpt>
      <trkpt lat="43.69282" lon="6.85821">
        <ele>723.05</ele>
        <time>2012-03-11T07:32:59Z</time>
      </trkpt>
      <trkpt lat="43.69231" lon="6.859">
        <ele>721.13</ele>
        <time>2012-03-11T07:33:16Z</time>
      </trkpt>
      <trkpt lat="43.69194" lon="6.85957">
        <ele>720.65</ele>
        <time>2012-03-11T07:33:30Z</time>
      </trkpt>
      <trkpt lat="43.6915" lon="6.85983">
        <ele>724.01</ele>
        <time>2012-03-11T07:33:43Z</time>
      </trkpt>
      <trkpt lat="43.69112" lon="6.85996">
        <ele>728.34</ele>
        <time>2012-03-11T07:33:56Z</time>
      </trkpt>
      <trkpt lat="43.69071" lon="6.86019">
        <ele>732.66</ele>
        <time>2012-03-11T07:34:13Z</time>
      </trkpt>
      <trkpt lat="43.69037" lon="6.86052">
        <ele>737.47</ele>
        <time>2012-03-11T07:34:29Z</time>
      </trkpt>
      <trkpt lat="43.69007" lon="6.86095">
        <ele>736.03</ele>
        <time>2012-03-11T07:34:41Z</time>
      </trkpt>
      <trkpt lat="43.68954" lon="6.86136">
        <ele>732.18</ele>
        <time>2012-03-11T07:34:51Z</time>
      </trkpt>
      <trkpt lat="43.68884" lon="6.86197">
        <ele>727.37</ele>
        <time>2012-03-11T07:35:01Z</time>
      </trkpt>
      <trkpt lat="43.68833" lon="6.86228">
        <ele>724.01</ele>
        <time>2012-03-11T07:35:07Z</time>
      </trkpt>
      <trkpt lat="43.68729" lon="6.86258">
        <ele>715.84</ele>
        <time>2012-03-11T07:35:20Z</time>
      </trkpt>
      <trkpt lat="43.68714" lon="6.86261">
        <ele>714.4</ele>
        <time>2012-03-11T07:35:24Z</time>
      </trkpt>
      <trkpt lat="43.68706" lon="6.86264">
        <ele>713.92</ele>
        <time>2012-03-11T07:35:26Z</time>
      </trkpt>
      <trkpt lat="43.68644" lon="6.86299">
        <ele>712.47</ele>
        <time>2012-03-11T07:35:41Z</time>
      </trkpt>
      <trkpt lat="43.68594" lon="6.86337">
        <ele>711.51</ele>
        <time>2012-03-11T07:35:52Z</time>
      </trkpt>
      <trkpt lat="43.68578" lon="6.86353">
        <ele>710.55</ele>
        <time>2012-03-11T07:35:56Z</time>
      </trkpt>
      <trkpt lat="43.68548" lon="6.86362">
        <ele>710.55</ele>
        <time>2012-03-11T07:36:02Z</time>
      </trkpt>
      <trkpt lat="43.68533" lon="6.86361">
        <ele>710.55</ele>
        <time>2012-03-11T07:36:05Z</time>
      </trkpt>
      <trkpt lat="43.68497" lon="6.86369">
        <ele>709.11</ele>
        <time>2012-03-11T07:36:12Z</time>
      </trkpt>
      <trkpt lat="43.68458" lon="6.86373">
        <ele>706.23</ele>
        <time>2012-03-11T07:36:19Z</time>
      </trkpt>
      <trkpt lat="43.68417" lon="6.86345">
        <ele>711.03</ele>
        <time>2012-03-11T07:36:29Z</time>
      </trkpt>
      <trkpt lat="43.68375" lon="6.86332">
        <ele>714.4</ele>
        <time>2012-03-11T07:36:41Z</time>
      </trkpt>
      <trkpt lat="43.68339" lon="6.8632">
        <ele>713.92</ele>
        <time>2012-03-11T07:36:52Z</time>
      </trkpt>
      <trkpt lat="43.68294" lon="6.86327">
        <ele>711.51</ele>
        <time>2012-03-11T07:37:01Z</time>
      </trkpt>
      <trkpt lat="43.68265" lon="6.86328">
        <ele>711.51</ele>
        <time>2012-03-11T07:37:07Z</time>
      </trkpt>
      <trkpt lat="43.68217" lon="6.86336">
        <ele>712.47</ele>
        <time>2012-03-11T07:37:19Z</time>
      </trkpt>
      <trkpt lat="43.682" lon="6.86342">
        <ele>711.99</ele>
        <time>2012-03-11T07:37:23Z</time>
      </trkpt>
      <trkpt lat="43.68178" lon="6.86343">
        <ele>711.99</ele>
        <time>2012-03-11T07:37:28Z</time>
      </trkpt>
      <trkpt lat="43.68152" lon="6.8635">
        <ele>712.47</ele>
        <time>2012-03-11T07:37:35Z</time>
      </trkpt>
      <trkpt lat="43.68095" lon="6.8637">
        <ele>710.55</ele>
        <time>2012-03-11T07:37:51Z</time>
      </trkpt>
      <trkpt lat="43.68077" lon="6.86371">
        <ele>710.55</ele>
        <time>2012-03-11T07:37:55Z</time>
      </trkpt>
      <trkpt lat="43.6806" lon="6.86378">
        <ele>710.07</ele>
        <time>2012-03-11T07:37:59Z</time>
      </trkpt>
      <trkpt lat="43.68053" lon="6.86382">
        <ele>710.55</ele>
        <time>2012-03-11T07:38:01Z</time>
      </trkpt>
      <trkpt lat="43.67995" lon="6.86416">
        <ele>710.07</ele>
        <time>2012-03-11T07:38:17Z</time>
      </trkpt>
      <trkpt lat="43.67943" lon="6.86433">
        <ele>711.03</ele>
        <time>2012-03-11T07:38:32Z</time>
      </trkpt>
      <trkpt lat="43.67914" lon="6.86464">
        <ele>713.92</ele>
        <time>2012-03-11T07:38:46Z</time>
      </trkpt>
      <trkpt lat="43.67885" lon="6.86508">
        <ele>715.84</ele>
        <time>2012-03-11T07:39:01Z</time>
      </trkpt>
      <trkpt lat="43.67856" lon="6.86552">
        <ele>716.32</ele>
        <time>2012-03-11T07:39:14Z</time>
      </trkpt>
      <trkpt lat="43.67821" lon="6.86567">
        <ele>719.2</ele>
        <time>2012-03-11T07:39:27Z</time>
      </trkpt>
      <trkpt lat="43.67779" lon="6.8659">
        <ele>720.16</ele>
        <time>2012-03-11T07:39:42Z</time>
      </trkpt>
      <trkpt lat="43.67738" lon="6.8661">
        <ele>720.16</ele>
        <time>2012-03-11T07:39:53Z</time>
      </trkpt>
      <trkpt lat="43.67717" lon="6.86626">
        <ele>718.72</ele>
        <time>2012-03-11T07:39:58Z</time>
      </trkpt>
      <trkpt lat="43.67694" lon="6.86664">
        <ele>716.32</ele>
        <time>2012-03-11T07:40:05Z</time>
      </trkpt>
      <trkpt lat="43.6768" lon="6.86684">
        <ele>714.88</ele>
        <time>2012-03-11T07:40:09Z</time>
      </trkpt>
      <trkpt lat="43.67661" lon="6.86695">
        <ele>713.44</ele>
        <time>2012-03-11T07:40:13Z</time>
      </trkpt>
      <trkpt lat="43.67616" lon="6.86719">
        <ele>713.92</ele>
        <time>2012-03-11T07:40:24Z</time>
      </trkpt>
      <trkpt lat="43.67573" lon="6.8676">
        <ele>714.88</ele>
        <time>2012-03-11T07:40:37Z</time>
      </trkpt>
      <trkpt lat="43.6752" lon="6.86813">
        <ele>715.36</ele>
        <time>2012-03-11T07:40:53Z</time>
      </trkpt>
      <trkpt lat="43.67487" lon="6.86852">
        <ele>717.28</ele>
        <time>2012-03-11T07:41:07Z</time>
      </trkpt>
      <trkpt lat="43.67441" lon="6.86889">
        <ele>716.32</ele>
        <time>2012-03-11T07:41:23Z</time>
      </trkpt>
      <trkpt lat="43.67393" lon="6.86919">
        <ele>717.28</ele>
        <time>2012-03-11T07:41:38Z</time>
      </trkpt>
      <trkpt lat="43.67356" lon="6.86948">
        <ele>720.65</ele>
        <time>2012-03-11T07:41:52Z</time>
      </trkpt>
      <trkpt lat="43.6735" lon="6.86953">
        <ele>721.13</ele>
        <time>2012-03-11T07:41:54Z</time>
      </trkpt>
      <trkpt lat="43.6732" lon="6.8699">
        <ele>722.57</ele>
        <time>2012-03-11T07:42:04Z</time>
      </trkpt>
      <trkpt lat="43.67267" lon="6.8703">
        <ele>720.16</ele>
        <time>2012-03-11T07:42:18Z</time>
      </trkpt>
      <trkpt lat="43.6726" lon="6.87037">
        <ele>719.2</ele>
        <time>2012-03-11T07:42:20Z</time>
      </trkpt>
      <trkpt lat="43.67237" lon="6.87052">
        <ele>717.28</ele>
        <time>2012-03-11T07:42:25Z</time>
      </trkpt>
      <trkpt lat="43.67215" lon="6.87053">
        <ele>717.28</ele>
        <time>2012-03-11T07:42:29Z</time>
      </trkpt>
      <trkpt lat="43.67206" lon="6.8705">
        <ele>717.76</ele>
        <time>2012-03-11T07:42:31Z</time>
      </trkpt>
      <trkpt lat="43.67191" lon="6.87038">
        <ele>718.72</ele>
        <time>2012-03-11T07:42:36Z</time>
      </trkpt>
      <trkpt lat="43.67174" lon="6.87017">
        <ele>718.24</ele>
        <time>2012-03-11T07:42:43Z</time>
      </trkpt>
      <trkpt lat="43.6714" lon="6.86979">
        <ele>720.65</ele>
        <time>2012-03-11T07:42:57Z</time>
      </trkpt>
      <trkpt lat="43.67107" lon="6.86941">
        <ele>725.45</ele>
        <time>2012-03-11T07:43:12Z</time>
      </trkpt>
      <trkpt lat="43.67066" lon="6.86894">
        <ele>728.34</ele>
        <time>2012-03-11T07:43:33Z</time>
      </trkpt>
      <trkpt lat="43.67036" lon="6.86865">
        <ele>732.18</ele>
        <time>2012-03-11T07:43:46Z</time>
      </trkpt>
      <trkpt lat="43.67009" lon="6.86832">
        <ele>737.95</ele>
        <time>2012-03-11T07:44:02Z</time>
      </trkpt>
      <trkpt lat="43.66984" lon="6.86803">
        <ele>745.64</ele>
        <time>2012-03-11T07:44:17Z</time>
      </trkpt>
      <trkpt lat="43.66951" lon="6.86771">
        <ele>751.89</ele>
        <time>2012-03-11T07:44:35Z</time>
      </trkpt>
      <trkpt lat="43.6692" lon="6.86736">
        <ele>755.73</ele>
        <time>2012-03-11T07:44:52Z</time>
      </trkpt>
      <trkpt lat="43.66874" lon="6.86704">
        <ele>755.73</ele>
        <time>2012-03-11T07:45:10Z</time>
      </trkpt>
      <trkpt lat="43.66838" lon="6.86672">
        <ele>758.14</ele>
        <time>2012-03-11T07:45:25Z</time>
      </trkpt>
      <trkpt lat="43.66805" lon="6.86639">
        <ele>761.5</ele>
        <time>2012-03-11T07:45:41Z</time>
      </trkpt>
      <trkpt lat="43.66775" lon="6.8661">
        <ele>765.35</ele>
        <time>2012-03-11T07:45:57Z</time>
      </trkpt>
      <trkpt lat="43.6674" lon="6.86574">
        <ele>768.23</ele>
        <time>2012-03-11T07:46:16Z</time>
      </trkpt>
      <trkpt lat="43.66699" lon="6.86531">
        <ele>770.15</ele>
        <time>2012-03-11T07:46:37Z</time>
      </trkpt>
      <trkpt lat="43.6666" lon="6.86487">
        <ele>768.23</ele>
        <time>2012-03-11T07:46:52Z</time>
      </trkpt>
      <trkpt lat="43.66641" lon="6.86471">
        <ele>765.35</ele>
        <time>2012-03-11T07:46:57Z</time>
      </trkpt>
      <trkpt lat="43.66594" lon="6.86423">
        <ele>761.98</ele>
        <time>2012-03-11T07:47:07Z</time>
      </trkpt>
      <trkpt lat="43.6655" lon="6.86376">
        <ele>761.02</ele>
        <time>2012-03-11T07:47:19Z</time>
      </trkpt>
      <trkpt lat="43.66504" lon="6.86329">
        <ele>763.42</ele>
        <time>2012-03-11T07:47:36Z</time>
      </trkpt>
      <trkpt lat="43.66473" lon="6.86296">
        <ele>766.79</ele>
        <time>2012-03-11T07:47:52Z</time>
      </trkpt>
      <trkpt lat="43.66444" lon="6.86265">
        <ele>766.31</ele>
        <time>2012-03-11T07:48:04Z</time>
      </trkpt>
      <trkpt lat="43.66408" lon="6.86229">
        <ele>767.75</ele>
        <time>2012-03-11T07:48:16Z</time>
      </trkpt>
      <trkpt lat="43.66385" lon="6.86202">
        <ele>771.6</ele>
        <time>2012-03-11T07:48:28Z</time>
      </trkpt>
      <trkpt lat="43.66362" lon="6.86178">
        <ele>775.44</ele>
        <time>2012-03-11T07:48:45Z</time>
      </trkpt>
      <trkpt lat="43.66336" lon="6.86152">
        <ele>782.65</ele>
        <time>2012-03-11T07:49:06Z</time>
      </trkpt>
      <trkpt lat="43.66332" lon="6.86148">
        <ele>784.09</ele>
        <time>2012-03-11T07:49:10Z</time>
      </trkpt>
      <trkpt lat="43.66323" lon="6.86138">
        <ele>786.02</ele>
        <time>2012-03-11T07:49:18Z</time>
      </trkpt>
      <trkpt lat="43.66305" lon="6.86118">
        <ele>792.26</ele>
        <time>2012-03-11T07:49:34Z</time>
      </trkpt>
      <trkpt lat="43.66288" lon="6.86101">
        <ele>795.15</ele>
        <time>2012-03-11T07:49:49Z</time>
      </trkpt>
      <trkpt lat="43.66278" lon="6.8609">
        <ele>795.15</ele>
        <time>2012-03-11T07:50:03Z</time>
      </trkpt>
      <trkpt lat="43.66278" lon="6.8609">
        <ele>795.15</ele>
        <time>2012-03-11T07:50:17Z</time>
      </trkpt>
      <trkpt lat="43.66278" lon="6.8609">
        <ele>795.15</ele>
        <time>2012-03-11T07:50:39Z</time>
      </trkpt>
      <trkpt lat="43.66274" lon="6.86089">
        <ele>793.22</ele>
        <time>2012-03-11T07:50:52Z</time>
      </trkpt>
      <trkpt lat="43.66253" lon="6.86061">
        <ele>785.53</ele>
        <time>2012-03-11T07:51:02Z</time>
      </trkpt>
      <trkpt lat="43.66254" lon="6.86053">
        <ele>784.09</ele>
        <time>2012-03-11T07:51:06Z</time>
      </trkpt>
      <trkpt lat="43.6626" lon="6.86034">
        <ele>780.25</ele>
        <time>2012-03-11T07:51:16Z</time>
      </trkpt>
      <trkpt lat="43.66271" lon="6.86001">
        <ele>775.44</ele>
        <time>2012-03-11T07:51:27Z</time>
      </trkpt>
      <trkpt lat="43.66272" lon="6.85992">
        <ele>774</ele>
        <time>2012-03-11T07:51:29Z</time>
      </trkpt>
      <trkpt lat="43.66285" lon="6.85975">
        <ele>767.75</ele>
        <time>2012-03-11T07:51:37Z</time>
      </trkpt>
      <trkpt lat="43.66286" lon="6.85964">
        <ele>766.79</ele>
        <time>2012-03-11T07:51:41Z</time>
      </trkpt>
      <trkpt lat="43.66283" lon="6.85957">
        <ele>766.31</ele>
        <time>2012-03-11T07:51:43Z</time>
      </trkpt>
      <trkpt lat="43.66274" lon="6.85947">
        <ele>763.9</ele>
        <time>2012-03-11T07:51:48Z</time>
      </trkpt>
      <trkpt lat="43.66269" lon="6.85945">
        <ele>762.46</ele>
        <time>2012-03-11T07:51:51Z</time>
      </trkpt>
      <trkpt lat="43.6626" lon="6.85935">
        <ele>760.06</ele>
        <time>2012-03-11T07:51:59Z</time>
      </trkpt>
      <trkpt lat="43.66235" lon="6.85926">
        <ele>759.1</ele>
        <time>2012-03-11T07:52:09Z</time>
      </trkpt>
      <trkpt lat="43.66216" lon="6.85904">
        <ele>753.81</ele>
        <time>2012-03-11T07:52:18Z</time>
      </trkpt>
      <trkpt lat="43.66204" lon="6.85901">
        <ele>751.89</ele>
        <time>2012-03-11T07:52:32Z</time>
      </trkpt>
      <trkpt lat="43.66204" lon="6.85901">
        <ele>751.89</ele>
        <time>2012-03-11T07:52:34Z</time>
      </trkpt>
      <trkpt lat="43.66202" lon="6.85902">
        <ele>751.89</ele>
        <time>2012-03-11T07:52:48Z</time>
      </trkpt>
      <trkpt lat="43.66202" lon="6.85902">
        <ele>751.89</ele>
        <time>2012-03-11T07:53:02Z</time>
      </trkpt>
      <trkpt lat="43.66201" lon="6.85902">
        <ele>752.37</ele>
        <time>2012-03-11T07:53:04Z</time>
      </trkpt>
      <trkpt lat="43.66194" lon="6.85903">
        <ele>751.89</ele>
        <time>2012-03-11T07:53:08Z</time>
      </trkpt>
      <trkpt lat="43.66184" lon="6.85898">
        <ele>749.97</ele>
        <time>2012-03-11T07:53:19Z</time>
      </trkpt>
      <trkpt lat="43.66183" lon="6.85898">
        <ele>749.97</ele>
        <time>2012-03-11T07:53:29Z</time>
      </trkpt>
      <trkpt lat="43.66179" lon="6.85897">
        <ele>749.49</ele>
        <time>2012-03-11T07:53:38Z</time>
      </trkpt>
      <trkpt lat="43.66177" lon="6.8589">
        <ele>748.04</ele>
        <time>2012-03-11T07:53:43Z</time>
      </trkpt>
      <trkpt lat="43.66178" lon="6.85883">
        <ele>747.08</ele>
        <time>2012-03-11T07:53:48Z</time>
      </trkpt>
      <trkpt lat="43.66174" lon="6.85866">
        <ele>744.2</ele>
        <time>2012-03-11T07:53:57Z</time>
      </trkpt>
      <trkpt lat="43.66169" lon="6.85871">
        <ele>745.64</ele>
        <time>2012-03-11T07:54:07Z</time>
      </trkpt>
      <trkpt lat="43.66169" lon="6.85871">
        <ele>745.64</ele>
        <time>2012-03-11T07:54:08Z</time>
      </trkpt>
      <trkpt lat="43.66164" lon="6.85875">
        <ele>745.64</ele>
        <time>2012-03-11T07:54:21Z</time>
      </trkpt>
      <trkpt lat="43.66156" lon="6.85879">
        <ele>745.64</ele>
        <time>2012-03-11T07:54:35Z</time>
      </trkpt>
      <trkpt lat="43.66152" lon="6.85882">
        <ele>745.64</ele>
        <time>2012-03-11T07:54:49Z</time>
      </trkpt>
      <trkpt lat="43.66147" lon="6.85883">
        <ele>745.64</ele>
        <time>2012-03-11T07:55:01Z</time>
      </trkpt>
      <trkpt lat="43.66145" lon="6.85884">
        <ele>745.16</ele>
        <time>2012-03-11T07:55:13Z</time>
      </trkpt>
      <trkpt lat="43.66138" lon="6.85887">
        <ele>744.68</ele>
        <time>2012-03-11T07:55:29Z</time>
      </trkpt>
      <trkpt lat="43.66128" lon="6.85891">
        <ele>743.72</ele>
        <time>2012-03-11T07:55:44Z</time>
      </trkpt>
      <trkpt lat="43.66127" lon="6.85891">
        <ele>743.72</ele>
        <time>2012-03-11T07:55:45Z</time>
      </trkpt>
      <trkpt lat="43.66122" lon="6.85891">
        <ele>743.24</ele>
        <time>2012-03-11T07:55:49Z</time>
      </trkpt>
      <trkpt lat="43.66105" lon="6.8587">
        <ele>738.43</ele>
        <time>2012-03-11T07:55:59Z</time>
      </trkpt>
      <trkpt lat="43.66055" lon="6.85809">
        <ele>732.66</ele>
        <time>2012-03-11T07:56:12Z</time>
      </trkpt>
      <trkpt lat="43.66019" lon="6.85771">
        <ele>724.01</ele>
        <time>2012-03-11T07:56:18Z</time>
      </trkpt>
      <trkpt lat="43.65982" lon="6.8574">
        <ele>714.88</ele>
        <time>2012-03-11T07:56:24Z</time>
      </trkpt>
      <trkpt lat="43.65961" lon="6.85716">
        <ele>710.07</ele>
        <time>2012-03-11T07:56:27Z</time>
      </trkpt>
      <trkpt lat="43.65926" lon="6.85682">
        <ele>702.86</ele>
        <time>2012-03-11T07:56:32Z</time>
      </trkpt>
      <trkpt lat="43.65876" lon="6.85635">
        <ele>699.02</ele>
        <time>2012-03-11T07:56:39Z</time>
      </trkpt>
      <trkpt lat="43.65877" lon="6.85615">
        <ele>698.05</ele>
        <time>2012-03-11T07:56:45Z</time>
      </trkpt>
      <trkpt lat="43.65882" lon="6.85618">
        <ele>698.05</ele>
        <time>2012-03-11T07:56:46Z</time>
      </trkpt>
      <trkpt lat="43.65896" lon="6.8563">
        <ele>697.57</ele>
        <time>2012-03-11T07:56:49Z</time>
      </trkpt>
      <trkpt lat="43.6592" lon="6.85629">
        <ele>698.05</ele>
        <time>2012-03-11T07:56:54Z</time>
      </trkpt>
      <trkpt lat="43.65948" lon="6.8563">
        <ele>699.5</ele>
        <time>2012-03-11T07:57:02Z</time>
      </trkpt>
      <trkpt lat="43.65977" lon="6.85628">
        <ele>702.86</ele>
        <time>2012-03-11T07:57:12Z</time>
      </trkpt>
      <trkpt lat="43.66019" lon="6.856">
        <ele>698.53</ele>
        <time>2012-03-11T07:57:20Z</time>
      </trkpt>
      <trkpt lat="43.66043" lon="6.8562">
        <ele>697.09</ele>
        <time>2012-03-11T07:57:25Z</time>
      </trkpt>
      <trkpt lat="43.66066" lon="6.85621">
        <ele>697.09</ele>
        <time>2012-03-11T07:57:32Z</time>
      </trkpt>
      <trkpt lat="43.66061" lon="6.85593">
        <ele>693.73</ele>
        <time>2012-03-11T07:57:37Z</time>
      </trkpt>
      <trkpt lat="43.66045" lon="6.85563">
        <ele>691.81</ele>
        <time>2012-03-11T07:57:42Z</time>
      </trkpt>
      <trkpt lat="43.6603" lon="6.85512">
        <ele>691.33</ele>
        <time>2012-03-11T07:57:50Z</time>
      </trkpt>
      <trkpt lat="43.6602" lon="6.85509">
        <ele>691.33</ele>
        <time>2012-03-11T07:57:52Z</time>
      </trkpt>
      <trkpt lat="43.65995" lon="6.85485">
        <ele>694.69</ele>
        <time>2012-03-11T07:58:01Z</time>
      </trkpt>
      <trkpt lat="43.65997" lon="6.85482">
        <ele>694.69</ele>
        <time>2012-03-11T07:58:02Z</time>
      </trkpt>
      <trkpt lat="43.6601" lon="6.85464">
        <ele>695.17</ele>
        <time>2012-03-11T07:58:08Z</time>
      </trkpt>
      <trkpt lat="43.66025" lon="6.85466">
        <ele>694.21</ele>
        <time>2012-03-11T07:58:12Z</time>
      </trkpt>
      <trkpt lat="43.66034" lon="6.85461">
        <ele>694.21</ele>
        <time>2012-03-11T07:58:16Z</time>
      </trkpt>
      <trkpt lat="43.66049" lon="6.85457">
        <ele>691.81</ele>
        <time>2012-03-11T07:58:24Z</time>
      </trkpt>
      <trkpt lat="43.66051" lon="6.85443">
        <ele>691.81</ele>
        <time>2012-03-11T07:58:28Z</time>
      </trkpt>
      <trkpt lat="43.66059" lon="6.85418">
        <ele>691.33</ele>
        <time>2012-03-11T07:58:37Z</time>
      </trkpt>
      <trkpt lat="43.6606" lon="6.85416">
        <ele>690.84</ele>
        <time>2012-03-11T07:58:46Z</time>
      </trkpt>
      <trkpt lat="43.66059" lon="6.85401">
        <ele>692.29</ele>
        <time>2012-03-11T07:58:51Z</time>
      </trkpt>
      <trkpt lat="43.66056" lon="6.85384">
        <ele>691.81</ele>
        <time>2012-03-11T07:58:54Z</time>
      </trkpt>
      <trkpt lat="43.6606" lon="6.85351">
        <ele>689.88</ele>
        <time>2012-03-11T07:58:59Z</time>
      </trkpt>
      <trkpt lat="43.66096" lon="6.85276">
        <ele>682.19</ele>
        <time>2012-03-11T07:59:08Z</time>
      </trkpt>
      <trkpt lat="43.66101" lon="6.85257">
        <ele>679.31</ele>
        <time>2012-03-11T07:59:10Z</time>
      </trkpt>
      <trkpt lat="43.66099" lon="6.85227">
        <ele>675.94</ele>
        <time>2012-03-11T07:59:13Z</time>
      </trkpt>
      <trkpt lat="43.66108" lon="6.85175">
        <ele>671.14</ele>
        <time>2012-03-11T07:59:19Z</time>
      </trkpt>
      <trkpt lat="43.66109" lon="6.85129">
        <ele>667.29</ele>
        <time>2012-03-11T07:59:26Z</time>
      </trkpt>
      <trkpt lat="43.66108" lon="6.85112">
        <ele>665.85</ele>
        <time>2012-03-11T07:59:32Z</time>
      </trkpt>
      <trkpt lat="43.66106" lon="6.85104">
        <ele>665.85</ele>
        <time>2012-03-11T07:59:35Z</time>
      </trkpt>
      <trkpt lat="43.66108" lon="6.85077">
        <ele>663.93</ele>
        <time>2012-03-11T07:59:41Z</time>
      </trkpt>
      <trkpt lat="43.66115" lon="6.85044">
        <ele>661.04</ele>
        <time>2012-03-11T07:59:48Z</time>
      </trkpt>
      <trkpt lat="43.66111" lon="6.85022">
        <ele>659.6</ele>
        <time>2012-03-11T07:59:57Z</time>
      </trkpt>
      <trkpt lat="43.66111" lon="6.85022">
        <ele>659.6</ele>
        <time>2012-03-11T08:00:11Z</time>
      </trkpt>
      <trkpt lat="43.66112" lon="6.85022">
        <ele>660.08</ele>
        <time>2012-03-11T08:00:21Z</time>
      </trkpt>
      <trkpt lat="43.66112" lon="6.85022">
        <ele>660.08</ele>
        <time>2012-03-11T08:00:40Z</time>
      </trkpt>
      <trkpt lat="43.66111" lon="6.85021">
        <ele>660.56</ele>
        <time>2012-03-11T08:00:49Z</time>
      </trkpt>
      <trkpt lat="43.6611" lon="6.85007">
        <ele>660.56</ele>
        <time>2012-03-11T08:00:59Z</time>
      </trkpt>
      <trkpt lat="43.66111" lon="6.84999">
        <ele>661.52</ele>
        <time>2012-03-11T08:01:03Z</time>
      </trkpt>
      <trkpt lat="43.66111" lon="6.84993">
        <ele>661.04</ele>
        <time>2012-03-11T08:01:13Z</time>
      </trkpt>
      <trkpt lat="43.6611" lon="6.84989">
        <ele>660.56</ele>
        <time>2012-03-11T08:01:18Z</time>
      </trkpt>
      <trkpt lat="43.6611" lon="6.84981">
        <ele>660.56</ele>
        <time>2012-03-11T08:01:25Z</time>
      </trkpt>
      <trkpt lat="43.6611" lon="6.84976">
        <ele>660.08</ele>
        <time>2012-03-11T08:01:27Z</time>
      </trkpt>
      <trkpt lat="43.6611" lon="6.8497">
        <ele>659.6</ele>
        <time>2012-03-11T08:01:30Z</time>
      </trkpt>
      <trkpt lat="43.6611" lon="6.84967">
        <ele>658.64</ele>
        <time>2012-03-11T08:01:32Z</time>
      </trkpt>
      <trkpt lat="43.66114" lon="6.84947">
        <ele>656.72</ele>
        <time>2012-03-11T08:01:39Z</time>
      </trkpt>
      <trkpt lat="43.66117" lon="6.849">
        <ele>652.87</ele>
        <time>2012-03-11T08:01:46Z</time>
      </trkpt>
      <trkpt lat="43.66131" lon="6.84856">
        <ele>647.1</ele>
        <time>2012-03-11T08:01:52Z</time>
      </trkpt>
      <trkpt lat="43.66144" lon="6.84813">
        <ele>643.74</ele>
        <time>2012-03-11T08:01:57Z</time>
      </trkpt>
      <trkpt lat="43.66147" lon="6.8477">
        <ele>639.41</ele>
        <time>2012-03-11T08:02:04Z</time>
      </trkpt>
      <trkpt lat="43.66148" lon="6.84736">
        <ele>637.49</ele>
        <time>2012-03-11T08:02:09Z</time>
      </trkpt>
      <trkpt lat="43.66152" lon="6.84704">
        <ele>635.57</ele>
        <time>2012-03-11T08:02:13Z</time>
      </trkpt>
      <trkpt lat="43.66153" lon="6.84639">
        <ele>634.13</ele>
        <time>2012-03-11T08:02:22Z</time>
      </trkpt>
      <trkpt lat="43.66147" lon="6.846">
        <ele>633.65</ele>
        <time>2012-03-11T08:02:27Z</time>
      </trkpt>
      <trkpt lat="43.66145" lon="6.84552">
        <ele>632.68</ele>
        <time>2012-03-11T08:02:36Z</time>
      </trkpt>
      <trkpt lat="43.66137" lon="6.84517">
        <ele>629.8</ele>
        <time>2012-03-11T08:02:45Z</time>
      </trkpt>
      <trkpt lat="43.66138" lon="6.84497">
        <ele>628.84</ele>
        <time>2012-03-11T08:02:50Z</time>
      </trkpt>
      <trkpt lat="43.66135" lon="6.84485">
        <ele>628.84</ele>
        <time>2012-03-11T08:02:53Z</time>
      </trkpt>
      <trkpt lat="43.66134" lon="6.84461">
        <ele>628.36</ele>
        <time>2012-03-11T08:02:57Z</time>
      </trkpt>
      <trkpt lat="43.66128" lon="6.8441">
        <ele>626.92</ele>
        <time>2012-03-11T08:03:07Z</time>
      </trkpt>
      <trkpt lat="43.66138" lon="6.84378">
        <ele>625.47</ele>
        <time>2012-03-11T08:03:14Z</time>
      </trkpt>
      <trkpt lat="43.66147" lon="6.84355">
        <ele>621.63</ele>
        <time>2012-03-11T08:03:18Z</time>
      </trkpt>
      <trkpt lat="43.6615" lon="6.84286">
        <ele>617.78</ele>
        <time>2012-03-11T08:03:26Z</time>
      </trkpt>
      <trkpt lat="43.66152" lon="6.8427">
        <ele>616.34</ele>
        <time>2012-03-11T08:03:28Z</time>
      </trkpt>
      <trkpt lat="43.66153" lon="6.84234">
        <ele>613.94</ele>
        <time>2012-03-11T08:03:32Z</time>
      </trkpt>
      <trkpt lat="43.66161" lon="6.84175">
        <ele>607.69</ele>
        <time>2012-03-11T08:03:40Z</time>
      </trkpt>
      <trkpt lat="43.66158" lon="6.84136">
        <ele>606.73</ele>
        <time>2012-03-11T08:03:47Z</time>
      </trkpt>
      <trkpt lat="43.66163" lon="6.84119">
        <ele>605.29</ele>
        <time>2012-03-11T08:03:50Z</time>
      </trkpt>
      <trkpt lat="43.66162" lon="6.84093">
        <ele>604.33</ele>
        <time>2012-03-11T08:03:54Z</time>
      </trkpt>
      <trkpt lat="43.66152" lon="6.84056">
        <ele>604.33</ele>
        <time>2012-03-11T08:03:59Z</time>
      </trkpt>
      <trkpt lat="43.66153" lon="6.84013">
        <ele>605.29</ele>
        <time>2012-03-11T08:04:06Z</time>
      </trkpt>
      <trkpt lat="43.66166" lon="6.83954">
        <ele>605.77</ele>
        <time>2012-03-11T08:04:15Z</time>
      </trkpt>
      <trkpt lat="43.66173" lon="6.83918">
        <ele>604.81</ele>
        <time>2012-03-11T08:04:20Z</time>
      </trkpt>
      <trkpt lat="43.66173" lon="6.83896">
        <ele>604.33</ele>
        <time>2012-03-11T08:04:23Z</time>
      </trkpt>
      <trkpt lat="43.66181" lon="6.83854">
        <ele>601.92</ele>
        <time>2012-03-11T08:04:29Z</time>
      </trkpt>
      <trkpt lat="43.66183" lon="6.83837">
        <ele>600.96</ele>
        <time>2012-03-11T08:04:31Z</time>
      </trkpt>
      <trkpt lat="43.66179" lon="6.83806">
        <ele>600</ele>
        <time>2012-03-11T08:04:35Z</time>
      </trkpt>
      <trkpt lat="43.66172" lon="6.83788">
        <ele>600.96</ele>
        <time>2012-03-11T08:04:43Z</time>
      </trkpt>
      <trkpt lat="43.66175" lon="6.8376">
        <ele>600</ele>
        <time>2012-03-11T08:04:52Z</time>
      </trkpt>
      <trkpt lat="43.66186" lon="6.83723">
        <ele>596.15</ele>
        <time>2012-03-11T08:05:00Z</time>
      </trkpt>
      <trkpt lat="43.66189" lon="6.83686">
        <ele>594.71</ele>
        <time>2012-03-11T08:05:06Z</time>
      </trkpt>
      <trkpt lat="43.66187" lon="6.83632">
        <ele>591.35</ele>
        <time>2012-03-11T08:05:15Z</time>
      </trkpt>
      <trkpt lat="43.66183" lon="6.83632">
        <ele>591.83</ele>
        <time>2012-03-11T08:05:16Z</time>
      </trkpt>
      <trkpt lat="43.66162" lon="6.83625">
        <ele>596.15</ele>
        <time>2012-03-11T08:05:26Z</time>
      </trkpt>
      <trkpt lat="43.6614" lon="6.83606">
        <ele>601.44</ele>
        <time>2012-03-11T08:05:41Z</time>
      </trkpt>
      <trkpt lat="43.6612" lon="6.83569">
        <ele>606.25</ele>
        <time>2012-03-11T08:05:56Z</time>
      </trkpt>
      <trkpt lat="43.66096" lon="6.83564">
        <ele>610.09</ele>
        <time>2012-03-11T08:06:09Z</time>
      </trkpt>
      <trkpt lat="43.66074" lon="6.83559">
        <ele>613.94</ele>
        <time>2012-03-11T08:06:24Z</time>
      </trkpt>
      <trkpt lat="43.66055" lon="6.83542">
        <ele>618.26</ele>
        <time>2012-03-11T08:06:39Z</time>
      </trkpt>
      <trkpt lat="43.66042" lon="6.83524">
        <ele>621.63</ele>
        <time>2012-03-11T08:06:51Z</time>
      </trkpt>
      <trkpt lat="43.66036" lon="6.8352">
        <ele>622.59</ele>
        <time>2012-03-11T08:06:55Z</time>
      </trkpt>
      <trkpt lat="43.66017" lon="6.83518">
        <ele>623.07</ele>
        <time>2012-03-11T08:07:06Z</time>
      </trkpt>
      <trkpt lat="43.66001" lon="6.83513">
        <ele>624.51</ele>
        <time>2012-03-11T08:07:16Z</time>
      </trkpt>
      <trkpt lat="43.65998" lon="6.83495">
        <ele>625.96</ele>
        <time>2012-03-11T08:07:24Z</time>
      </trkpt>
      <trkpt lat="43.65992" lon="6.83479">
        <ele>626.44</ele>
        <time>2012-03-11T08:07:30Z</time>
      </trkpt>
      <trkpt lat="43.66006" lon="6.83452">
        <ele>628.84</ele>
        <time>2012-03-11T08:07:40Z</time>
      </trkpt>
      <trkpt lat="43.66017" lon="6.83435">
        <ele>630.28</ele>
        <time>2012-03-11T08:07:45Z</time>
      </trkpt>
      <trkpt lat="43.66038" lon="6.83384">
        <ele>630.28</ele>
        <time>2012-03-11T08:07:58Z</time>
      </trkpt>
      <trkpt lat="43.66051" lon="6.83318">
        <ele>627.88</ele>
        <time>2012-03-11T08:08:13Z</time>
      </trkpt>
      <trkpt lat="43.6607" lon="6.83292">
        <ele>628.36</ele>
        <time>2012-03-11T08:08:21Z</time>
      </trkpt>
      <trkpt lat="43.66089" lon="6.83244">
        <ele>629.8</ele>
        <time>2012-03-11T08:08:34Z</time>
      </trkpt>
      <trkpt lat="43.66101" lon="6.83204">
        <ele>629.8</ele>
        <time>2012-03-11T08:08:48Z</time>
      </trkpt>
      <trkpt lat="43.66103" lon="6.832">
        <ele>630.28</ele>
        <time>2012-03-11T08:08:50Z</time>
      </trkpt>
      <trkpt lat="43.66104" lon="6.83192">
        <ele>629.8</ele>
        <time>2012-03-11T08:08:53Z</time>
      </trkpt>
      <trkpt lat="43.66112" lon="6.83158">
        <ele>630.28</ele>
        <time>2012-03-11T08:09:06Z</time>
      </trkpt>
      <trkpt lat="43.66118" lon="6.83123">
        <ele>632.68</ele>
        <time>2012-03-11T08:09:21Z</time>
      </trkpt>
      <trkpt lat="43.66122" lon="6.83104">
        <ele>637.01</ele>
        <time>2012-03-11T08:09:33Z</time>
      </trkpt>
      <trkpt lat="43.66122" lon="6.83102">
        <ele>637.97</ele>
        <time>2012-03-11T08:09:34Z</time>
      </trkpt>
      <trkpt lat="43.66127" lon="6.83075">
        <ele>642.78</ele>
        <time>2012-03-11T08:09:47Z</time>
      </trkpt>
      <trkpt lat="43.66134" lon="6.83044">
        <ele>644.7</ele>
        <time>2012-03-11T08:10:02Z</time>
      </trkpt>
      <trkpt lat="43.66137" lon="6.83026">
        <ele>647.1</ele>
        <time>2012-03-11T08:10:13Z</time>
      </trkpt>
      <trkpt lat="43.66138" lon="6.83023">
        <ele>649.03</ele>
        <time>2012-03-11T08:10:16Z</time>
      </trkpt>
      <trkpt lat="43.66144" lon="6.83004">
        <ele>658.64</ele>
        <time>2012-03-11T08:10:29Z</time>
      </trkpt>
      <trkpt lat="43.66151" lon="6.82987">
        <ele>668.25</ele>
        <time>2012-03-11T08:10:44Z</time>
      </trkpt>
      <trkpt lat="43.66155" lon="6.82965">
        <ele>673.06</ele>
        <time>2012-03-11T08:10:51Z</time>
      </trkpt>
      <trkpt lat="43.66158" lon="6.82959">
        <ele>674.98</ele>
        <time>2012-03-11T08:10:54Z</time>
      </trkpt>
      <trkpt lat="43.6616" lon="6.82953">
        <ele>676.42</ele>
        <time>2012-03-11T08:10:57Z</time>
      </trkpt>
      <trkpt lat="43.66165" lon="6.82937">
        <ele>678.35</ele>
        <time>2012-03-11T08:11:03Z</time>
      </trkpt>
      <trkpt lat="43.66171" lon="6.8292">
        <ele>681.23</ele>
        <time>2012-03-11T08:11:10Z</time>
      </trkpt>
      <trkpt lat="43.66177" lon="6.82906">
        <ele>683.63</ele>
        <time>2012-03-11T08:11:16Z</time>
      </trkpt>
      <trkpt lat="43.66192" lon="6.82872">
        <ele>684.12</ele>
        <time>2012-03-11T08:11:30Z</time>
      </trkpt>
      <trkpt lat="43.66203" lon="6.8285">
        <ele>683.63</ele>
        <time>2012-03-11T08:11:40Z</time>
      </trkpt>
      <trkpt lat="43.66207" lon="6.82844">
        <ele>683.15</ele>
        <time>2012-03-11T08:11:43Z</time>
      </trkpt>
      <trkpt lat="43.66211" lon="6.82832">
        <ele>680.75</ele>
        <time>2012-03-11T08:11:49Z</time>
      </trkpt>
      <trkpt lat="43.66219" lon="6.82799">
        <ele>674.02</ele>
        <time>2012-03-11T08:12:04Z</time>
      </trkpt>
      <trkpt lat="43.66222" lon="6.82787">
        <ele>672.58</ele>
        <time>2012-03-11T08:12:09Z</time>
      </trkpt>
      <trkpt lat="43.66224" lon="6.82755">
        <ele>667.29</ele>
        <time>2012-03-11T08:12:23Z</time>
      </trkpt>
      <trkpt lat="43.66227" lon="6.82749">
        <ele>667.29</ele>
        <time>2012-03-11T08:12:27Z</time>
      </trkpt>
      <trkpt lat="43.66249" lon="6.82739">
        <ele>661.52</ele>
        <time>2012-03-11T08:12:39Z</time>
      </trkpt>
      <trkpt lat="43.66265" lon="6.82732">
        <ele>663.45</ele>
        <time>2012-03-11T08:12:52Z</time>
      </trkpt>
      <trkpt lat="43.66271" lon="6.82729">
        <ele>665.37</ele>
        <time>2012-03-11T08:12:57Z</time>
      </trkpt>
      <trkpt lat="43.66276" lon="6.82716">
        <ele>667.29</ele>
        <time>2012-03-11T08:13:03Z</time>
      </trkpt>
      <trkpt lat="43.66284" lon="6.82688">
        <ele>665.37</ele>
        <time>2012-03-11T08:13:20Z</time>
      </trkpt>
      <trkpt lat="43.66291" lon="6.82658">
        <ele>666.33</ele>
        <time>2012-03-11T08:13:37Z</time>
      </trkpt>
      <trkpt lat="43.663" lon="6.82626">
        <ele>666.33</ele>
        <time>2012-03-11T08:13:53Z</time>
      </trkpt>
      <trkpt lat="43.66302" lon="6.82623">
        <ele>666.81</ele>
        <time>2012-03-11T08:13:55Z</time>
      </trkpt>
      <trkpt lat="43.66305" lon="6.82615">
        <ele>665.85</ele>
        <time>2012-03-11T08:13:59Z</time>
      </trkpt>
      <trkpt lat="43.66308" lon="6.82609">
        <ele>669.22</ele>
        <time>2012-03-11T08:14:05Z</time>
      </trkpt>
      <trkpt lat="43.66313" lon="6.82578">
        <ele>678.35</ele>
        <time>2012-03-11T08:14:20Z</time>
      </trkpt>
      <trkpt lat="43.66326" lon="6.82542">
        <ele>684.12</ele>
        <time>2012-03-11T08:14:34Z</time>
      </trkpt>
      <trkpt lat="43.66341" lon="6.82507">
        <ele>689.4</ele>
        <time>2012-03-11T08:14:47Z</time>
      </trkpt>
      <trkpt lat="43.66349" lon="6.82459">
        <ele>688.92</ele>
        <time>2012-03-11T08:15:03Z</time>
      </trkpt>
      <trkpt lat="43.66362" lon="6.8243">
        <ele>688.92</ele>
        <time>2012-03-11T08:15:13Z</time>
      </trkpt>
      <trkpt lat="43.66347" lon="6.82412">
        <ele>685.56</ele>
        <time>2012-03-11T08:15:23Z</time>
      </trkpt>
      <trkpt lat="43.6634" lon="6.82397">
        <ele>684.6</ele>
        <time>2012-03-11T08:15:28Z</time>
      </trkpt>
      <trkpt lat="43.66336" lon="6.82377">
        <ele>683.15</ele>
        <time>2012-03-11T08:15:35Z</time>
      </trkpt>
      <trkpt lat="43.66351" lon="6.82313">
        <ele>686.52</ele>
        <time>2012-03-11T08:15:48Z</time>
      </trkpt>
      <trkpt lat="43.66355" lon="6.82295">
        <ele>686.52</ele>
        <time>2012-03-11T08:15:51Z</time>
      </trkpt>
      <trkpt lat="43.66367" lon="6.82268">
        <ele>687.48</ele>
        <time>2012-03-11T08:15:56Z</time>
      </trkpt>
      <trkpt lat="43.66372" lon="6.8224">
        <ele>687.48</ele>
        <time>2012-03-11T08:16:02Z</time>
      </trkpt>
      <trkpt lat="43.66382" lon="6.82203">
        <ele>687.96</ele>
        <time>2012-03-11T08:16:11Z</time>
      </trkpt>
      <trkpt lat="43.66393" lon="6.82172">
        <ele>688.92</ele>
        <time>2012-03-11T08:16:19Z</time>
      </trkpt>
      <trkpt lat="43.66395" lon="6.82148">
        <ele>687.48</ele>
        <time>2012-03-11T08:16:25Z</time>
      </trkpt>
      <trkpt lat="43.66402" lon="6.8213">
        <ele>687</ele>
        <time>2012-03-11T08:16:29Z</time>
      </trkpt>
      <trkpt lat="43.66416" lon="6.82079">
        <ele>687.96</ele>
        <time>2012-03-11T08:16:42Z</time>
      </trkpt>
      <trkpt lat="43.66424" lon="6.82055">
        <ele>689.88</ele>
        <time>2012-03-11T08:16:47Z</time>
      </trkpt>
      <trkpt lat="43.66437" lon="6.82025">
        <ele>690.84</ele>
        <time>2012-03-11T08:16:52Z</time>
      </trkpt>
      <trkpt lat="43.66444" lon="6.82008">
        <ele>691.33</ele>
        <time>2012-03-11T08:16:55Z</time>
      </trkpt>
      <trkpt lat="43.66452" lon="6.81986">
        <ele>690.84</ele>
        <time>2012-03-11T08:16:59Z</time>
      </trkpt>
      <trkpt lat="43.66456" lon="6.81974">
        <ele>689.88</ele>
        <time>2012-03-11T08:17:01Z</time>
      </trkpt>
      <trkpt lat="43.66465" lon="6.81952">
        <ele>687.48</ele>
        <time>2012-03-11T08:17:05Z</time>
      </trkpt>
      <trkpt lat="43.66472" lon="6.81935">
        <ele>687</ele>
        <time>2012-03-11T08:17:09Z</time>
      </trkpt>
      <trkpt lat="43.6648" lon="6.81921">
        <ele>687</ele>
        <time>2012-03-11T08:17:12Z</time>
      </trkpt>
      <trkpt lat="43.66488" lon="6.81911">
        <ele>686.52</ele>
        <time>2012-03-11T08:17:14Z</time>
      </trkpt>
      <trkpt lat="43.66501" lon="6.81899">
        <ele>685.08</ele>
        <time>2012-03-11T08:17:17Z</time>
      </trkpt>
      <trkpt lat="43.6651" lon="6.81873">
        <ele>682.67</ele>
        <time>2012-03-11T08:17:21Z</time>
      </trkpt>
      <trkpt lat="43.66527" lon="6.81831">
        <ele>677.39</ele>
        <time>2012-03-11T08:17:28Z</time>
      </trkpt>
      <trkpt lat="43.66524" lon="6.81815">
        <ele>675.94</ele>
        <time>2012-03-11T08:17:32Z</time>
      </trkpt>
      <trkpt lat="43.66528" lon="6.81788">
        <ele>674.02</ele>
        <time>2012-03-11T08:17:39Z</time>
      </trkpt>
      <trkpt lat="43.66532" lon="6.81775">
        <ele>673.06</ele>
        <time>2012-03-11T08:17:42Z</time>
      </trkpt>
      <trkpt lat="43.66521" lon="6.81739">
        <ele>669.22</ele>
        <time>2012-03-11T08:17:50Z</time>
      </trkpt>
      <trkpt lat="43.66525" lon="6.81722">
        <ele>666.81</ele>
        <time>2012-03-11T08:17:53Z</time>
      </trkpt>
      <trkpt lat="43.66524" lon="6.817">
        <ele>665.37</ele>
        <time>2012-03-11T08:17:57Z</time>
      </trkpt>
      <trkpt lat="43.66519" lon="6.81694">
        <ele>664.89</ele>
        <time>2012-03-11T08:17:59Z</time>
      </trkpt>
      <trkpt lat="43.6652" lon="6.81655">
        <ele>658.16</ele>
        <time>2012-03-11T08:18:07Z</time>
      </trkpt>
      <trkpt lat="43.66515" lon="6.81629">
        <ele>654.31</ele>
        <time>2012-03-11T08:18:11Z</time>
      </trkpt>
      <trkpt lat="43.66514" lon="6.81594">
        <ele>647.59</ele>
        <time>2012-03-11T08:18:16Z</time>
      </trkpt>
      <trkpt lat="43.66516" lon="6.81565">
        <ele>642.3</ele>
        <time>2012-03-11T08:18:20Z</time>
      </trkpt>
      <trkpt lat="43.66523" lon="6.81512">
        <ele>636.53</ele>
        <time>2012-03-11T08:18:28Z</time>
      </trkpt>
      <trkpt lat="43.66509" lon="6.81498">
        <ele>635.09</ele>
        <time>2012-03-11T08:18:34Z</time>
      </trkpt>
      <trkpt lat="43.66505" lon="6.81486">
        <ele>633.65</ele>
        <time>2012-03-11T08:18:36Z</time>
      </trkpt>
      <trkpt lat="43.66502" lon="6.81464">
        <ele>631.72</ele>
        <time>2012-03-11T08:18:39Z</time>
      </trkpt>
      <trkpt lat="43.66489" lon="6.81441">
        <ele>630.28</ele>
        <time>2012-03-11T08:18:43Z</time>
      </trkpt>
      <trkpt lat="43.66477" lon="6.81429">
        <ele>629.8</ele>
        <time>2012-03-11T08:18:46Z</time>
      </trkpt>
      <trkpt lat="43.66462" lon="6.81409">
        <ele>628.84</ele>
        <time>2012-03-11T08:18:50Z</time>
      </trkpt>
      <trkpt lat="43.66445" lon="6.81381">
        <ele>624.03</ele>
        <time>2012-03-11T08:18:55Z</time>
      </trkpt>
      <trkpt lat="43.66434" lon="6.81353">
        <ele>618.75</ele>
        <time>2012-03-11T08:19:02Z</time>
      </trkpt>
      <trkpt lat="43.66448" lon="6.81313">
        <ele>615.86</ele>
        <time>2012-03-11T08:19:10Z</time>
      </trkpt>
      <trkpt lat="43.66452" lon="6.81296">
        <ele>613.94</ele>
        <time>2012-03-11T08:19:13Z</time>
      </trkpt>
      <trkpt lat="43.6647" lon="6.81269">
        <ele>611.54</ele>
        <time>2012-03-11T08:19:19Z</time>
      </trkpt>
      <trkpt lat="43.66487" lon="6.81255">
        <ele>609.13</ele>
        <time>2012-03-11T08:19:23Z</time>
      </trkpt>
      <trkpt lat="43.66507" lon="6.81242">
        <ele>606.73</ele>
        <time>2012-03-11T08:19:27Z</time>
      </trkpt>
      <trkpt lat="43.66525" lon="6.81236">
        <ele>603.85</ele>
        <time>2012-03-11T08:19:30Z</time>
      </trkpt>
      <trkpt lat="43.66542" lon="6.81226">
        <ele>600</ele>
        <time>2012-03-11T08:19:34Z</time>
      </trkpt>
      <trkpt lat="43.66557" lon="6.81218">
        <ele>595.67</ele>
        <time>2012-03-11T08:19:39Z</time>
      </trkpt>
      <trkpt lat="43.66561" lon="6.81209">
        <ele>594.23</ele>
        <time>2012-03-11T08:19:41Z</time>
      </trkpt>
      <trkpt lat="43.66589" lon="6.81204">
        <ele>587.98</ele>
        <time>2012-03-11T08:19:47Z</time>
      </trkpt>
      <trkpt lat="43.66607" lon="6.81209">
        <ele>584.62</ele>
        <time>2012-03-11T08:19:50Z</time>
      </trkpt>
      <trkpt lat="43.66622" lon="6.81207">
        <ele>579.81</ele>
        <time>2012-03-11T08:19:54Z</time>
      </trkpt>
      <trkpt lat="43.6664" lon="6.81185">
        <ele>575.97</ele>
        <time>2012-03-11T08:20:02Z</time>
      </trkpt>
      <trkpt lat="43.66654" lon="6.81158">
        <ele>572.6</ele>
        <time>2012-03-11T08:20:10Z</time>
      </trkpt>
      <trkpt lat="43.66658" lon="6.81136">
        <ele>570.68</ele>
        <time>2012-03-11T08:20:14Z</time>
      </trkpt>
      <trkpt lat="43.6665" lon="6.81084">
        <ele>566.35</ele>
        <time>2012-03-11T08:20:22Z</time>
      </trkpt>
      <trkpt lat="43.66644" lon="6.81049">
        <ele>562.99</ele>
        <time>2012-03-11T08:20:27Z</time>
      </trkpt>
      <trkpt lat="43.66663" lon="6.81014">
        <ele>561.07</ele>
        <time>2012-03-11T08:20:36Z</time>
      </trkpt>
      <trkpt lat="43.66666" lon="6.81004">
        <ele>560.59</ele>
        <time>2012-03-11T08:20:38Z</time>
      </trkpt>
      <trkpt lat="43.6668" lon="6.80969">
        <ele>558.18</ele>
        <time>2012-03-11T08:20:45Z</time>
      </trkpt>
      <trkpt lat="43.66694" lon="6.80963">
        <ele>556.26</ele>
        <time>2012-03-11T08:20:49Z</time>
      </trkpt>
      <trkpt lat="43.66704" lon="6.80957">
        <ele>556.26</ele>
        <time>2012-03-11T08:20:59Z</time>
      </trkpt>
      <trkpt lat="43.66703" lon="6.80958">
        <ele>556.26</ele>
        <time>2012-03-11T08:21:15Z</time>
      </trkpt>
      <trkpt lat="43.66703" lon="6.80958">
        <ele>556.26</ele>
        <time>2012-03-11T08:21:32Z</time>
      </trkpt>
      <trkpt lat="43.66703" lon="6.80957">
        <ele>556.26</ele>
        <time>2012-03-11T08:21:47Z</time>
      </trkpt>
      <trkpt lat="43.66703" lon="6.80957">
        <ele>556.74</ele>
        <time>2012-03-11T08:22:22Z</time>
      </trkpt>
      <trkpt lat="43.66703" lon="6.80957">
        <ele>556.74</ele>
        <time>2012-03-11T08:22:25Z</time>
      </trkpt>
      <trkpt lat="43.66729" lon="6.80973">
        <ele>563.95</ele>
        <time>2012-03-11T08:22:38Z</time>
      </trkpt>
      <trkpt lat="43.66763" lon="6.80978">
        <ele>560.11</ele>
        <time>2012-03-11T08:22:51Z</time>
      </trkpt>
      <trkpt lat="43.66766" lon="6.80977">
        <ele>560.11</ele>
        <time>2012-03-11T08:22:52Z</time>
      </trkpt>
      <trkpt lat="43.66779" lon="6.80974">
        <ele>560.11</ele>
        <time>2012-03-11T08:22:55Z</time>
      </trkpt>
      <trkpt lat="43.66811" lon="6.80955">
        <ele>552.9</ele>
        <time>2012-03-11T08:23:03Z</time>
      </trkpt>
      <trkpt lat="43.66809" lon="6.80927">
        <ele>548.57</ele>
        <time>2012-03-11T08:23:07Z</time>
      </trkpt>
      <trkpt lat="43.66806" lon="6.80879">
        <ele>544.24</ele>
        <time>2012-03-11T08:23:13Z</time>
      </trkpt>
      <trkpt lat="43.66804" lon="6.80807">
        <ele>537.99</ele>
        <time>2012-03-11T08:23:21Z</time>
      </trkpt>
      <trkpt lat="43.66797" lon="6.80784">
        <ele>537.03</ele>
        <time>2012-03-11T08:23:24Z</time>
      </trkpt>
      <trkpt lat="43.66795" lon="6.80769">
        <ele>536.55</ele>
        <time>2012-03-11T08:23:26Z</time>
      </trkpt>
      <trkpt lat="43.66788" lon="6.80749">
        <ele>535.59</ele>
        <time>2012-03-11T08:23:30Z</time>
      </trkpt>
      <trkpt lat="43.6678" lon="6.80728">
        <ele>535.11</ele>
        <time>2012-03-11T08:23:34Z</time>
      </trkpt>
      <trkpt lat="43.66773" lon="6.80699">
        <ele>535.11</ele>
        <time>2012-03-11T08:23:40Z</time>
      </trkpt>
      <trkpt lat="43.66771" lon="6.80683">
        <ele>534.63</ele>
        <time>2012-03-11T08:23:43Z</time>
      </trkpt>
      <trkpt lat="43.66768" lon="6.80657">
        <ele>533.67</ele>
        <time>2012-03-11T08:23:47Z</time>
      </trkpt>
      <trkpt lat="43.66758" lon="6.80615">
        <ele>534.15</ele>
        <time>2012-03-11T08:23:56Z</time>
      </trkpt>
      <trkpt lat="43.6675" lon="6.80585">
        <ele>534.63</ele>
        <time>2012-03-11T08:24:02Z</time>
      </trkpt>
      <trkpt lat="43.66739" lon="6.80567">
        <ele>534.63</ele>
        <time>2012-03-11T08:24:06Z</time>
      </trkpt>
      <trkpt lat="43.6673" lon="6.80545">
        <ele>534.15</ele>
        <time>2012-03-11T08:24:10Z</time>
      </trkpt>
      <trkpt lat="43.6672" lon="6.80521">
        <ele>533.19</ele>
        <time>2012-03-11T08:24:14Z</time>
      </trkpt>
      <trkpt lat="43.66708" lon="6.80485">
        <ele>532.23</ele>
        <time>2012-03-11T08:24:19Z</time>
      </trkpt>
      <trkpt lat="43.66702" lon="6.80424">
        <ele>527.42</ele>
        <time>2012-03-11T08:24:26Z</time>
      </trkpt>
      <trkpt lat="43.667" lon="6.80403">
        <ele>525.98</ele>
        <time>2012-03-11T08:24:28Z</time>
      </trkpt>
      <trkpt lat="43.66706" lon="6.80369">
        <ele>524.54</ele>
        <time>2012-03-11T08:24:32Z</time>
      </trkpt>
      <trkpt lat="43.66698" lon="6.80329">
        <ele>524.54</ele>
        <time>2012-03-11T08:24:38Z</time>
      </trkpt>
      <trkpt lat="43.66691" lon="6.80298">
        <ele>522.61</ele>
        <time>2012-03-11T08:24:42Z</time>
      </trkpt>
      <trkpt lat="43.66681" lon="6.80273">
        <ele>522.13</ele>
        <time>2012-03-11T08:24:45Z</time>
      </trkpt>
      <trkpt lat="43.66669" lon="6.80243">
        <ele>522.13</ele>
        <time>2012-03-11T08:24:49Z</time>
      </trkpt>
      <trkpt lat="43.66664" lon="6.80202">
        <ele>522.13</ele>
        <time>2012-03-11T08:24:54Z</time>
      </trkpt>
      <trkpt lat="43.6665" lon="6.80168">
        <ele>525.5</ele>
        <time>2012-03-11T08:25:02Z</time>
      </trkpt>
      <trkpt lat="43.66649" lon="6.80144">
        <ele>525.98</ele>
        <time>2012-03-11T08:25:06Z</time>
      </trkpt>
      <trkpt lat="43.66648" lon="6.8013">
        <ele>526.46</ele>
        <time>2012-03-11T08:25:08Z</time>
      </trkpt>
      <trkpt lat="43.66644" lon="6.80111">
        <ele>526.46</ele>
        <time>2012-03-11T08:25:11Z</time>
      </trkpt>
      <trkpt lat="43.66642" lon="6.80031">
        <ele>523.09</ele>
        <time>2012-03-11T08:25:21Z</time>
      </trkpt>
      <trkpt lat="43.66645" lon="6.79999">
        <ele>521.65</ele>
        <time>2012-03-11T08:25:25Z</time>
      </trkpt>
      <trkpt lat="43.66634" lon="6.79975">
        <ele>519.73</ele>
        <time>2012-03-11T08:25:29Z</time>
      </trkpt>
      <trkpt lat="43.66621" lon="6.79968">
        <ele>519.25</ele>
        <time>2012-03-11T08:25:31Z</time>
      </trkpt>
      <trkpt lat="43.66591" lon="6.79933">
        <ele>514.92</ele>
        <time>2012-03-11T08:25:36Z</time>
      </trkpt>
      <trkpt lat="43.66542" lon="6.79897">
        <ele>507.23</ele>
        <time>2012-03-11T08:25:42Z</time>
      </trkpt>
      <trkpt lat="43.66491" lon="6.79868">
        <ele>500.5</ele>
        <time>2012-03-11T08:25:48Z</time>
      </trkpt>
      <trkpt lat="43.66468" lon="6.79829">
        <ele>493.29</ele>
        <time>2012-03-11T08:25:52Z</time>
      </trkpt>
      <trkpt lat="43.66458" lon="6.79809">
        <ele>489.93</ele>
        <time>2012-03-11T08:25:54Z</time>
      </trkpt>
      <trkpt lat="43.66434" lon="6.79745">
        <ele>482.72</ele>
        <time>2012-03-11T08:25:59Z</time>
      </trkpt>
      <trkpt lat="43.66405" lon="6.79692">
        <ele>475.99</ele>
        <time>2012-03-11T08:26:05Z</time>
      </trkpt>
      <trkpt lat="43.6637" lon="6.79682">
        <ele>475.03</ele>
        <time>2012-03-11T08:26:09Z</time>
      </trkpt>
      <trkpt lat="43.66279" lon="6.79632">
        <ele>474.55</ele>
        <time>2012-03-11T08:26:21Z</time>
      </trkpt>
      <trkpt lat="43.66221" lon="6.79612">
        <ele>474.55</ele>
        <time>2012-03-11T08:26:29Z</time>
      </trkpt>
      <trkpt lat="43.66184" lon="6.79593">
        <ele>473.59</ele>
        <time>2012-03-11T08:26:35Z</time>
      </trkpt>
      <trkpt lat="43.66168" lon="6.79603">
        <ele>473.59</ele>
        <time>2012-03-11T08:26:39Z</time>
      </trkpt>
      <trkpt lat="43.66157" lon="6.79655">
        <ele>472.14</ele>
        <time>2012-03-11T08:26:46Z</time>
      </trkpt>
      <trkpt lat="43.66131" lon="6.79676">
        <ele>472.14</ele>
        <time>2012-03-11T08:26:52Z</time>
      </trkpt>
      <trkpt lat="43.66105" lon="6.79671">
        <ele>471.66</ele>
        <time>2012-03-11T08:26:57Z</time>
      </trkpt>
      <trkpt lat="43.66061" lon="6.79663">
        <ele>470.7</ele>
        <time>2012-03-11T08:27:06Z</time>
      </trkpt>
      <trkpt lat="43.66045" lon="6.7965">
        <ele>470.7</ele>
        <time>2012-03-11T08:27:10Z</time>
      </trkpt>
      <trkpt lat="43.66021" lon="6.79602">
        <ele>469.26</ele>
        <time>2012-03-11T08:27:19Z</time>
      </trkpt>
      <trkpt lat="43.65981" lon="6.7958">
        <ele>469.26</ele>
        <time>2012-03-11T08:27:28Z</time>
      </trkpt>
      <trkpt lat="43.65937" lon="6.79534">
        <ele>468.78</ele>
        <time>2012-03-11T08:27:39Z</time>
      </trkpt>
      <trkpt lat="43.65932" lon="6.79525">
        <ele>468.78</ele>
        <time>2012-03-11T08:27:41Z</time>
      </trkpt>
      <trkpt lat="43.65873" lon="6.79453">
        <ele>465.9</ele>
        <time>2012-03-11T08:27:57Z</time>
      </trkpt>
      <trkpt lat="43.65837" lon="6.79438">
        <ele>465.9</ele>
        <time>2012-03-11T08:28:04Z</time>
      </trkpt>
      <trkpt lat="43.65813" lon="6.7942">
        <ele>464.93</ele>
        <time>2012-03-11T08:28:09Z</time>
      </trkpt>
      <trkpt lat="43.65806" lon="6.7941">
        <ele>464.45</ele>
        <time>2012-03-11T08:28:11Z</time>
      </trkpt>
      <trkpt lat="43.65788" lon="6.794">
        <ele>463.97</ele>
        <time>2012-03-11T08:28:15Z</time>
      </trkpt>
      <trkpt lat="43.65742" lon="6.79412">
        <ele>463.49</ele>
        <time>2012-03-11T08:28:24Z</time>
      </trkpt>
      <trkpt lat="43.65715" lon="6.7943">
        <ele>463.01</ele>
        <time>2012-03-11T08:28:30Z</time>
      </trkpt>
      <trkpt lat="43.65653" lon="6.79467">
        <ele>463.01</ele>
        <time>2012-03-11T08:28:43Z</time>
      </trkpt>
      <trkpt lat="43.65644" lon="6.79473">
        <ele>463.01</ele>
        <time>2012-03-11T08:28:45Z</time>
      </trkpt>
      <trkpt lat="43.65572" lon="6.79521">
        <ele>462.05</ele>
        <time>2012-03-11T08:29:00Z</time>
      </trkpt>
      <trkpt lat="43.655" lon="6.79578">
        <ele>461.57</ele>
        <time>2012-03-11T08:29:15Z</time>
      </trkpt>
      <trkpt lat="43.65437" lon="6.79611">
        <ele>459.65</ele>
        <time>2012-03-11T08:29:26Z</time>
      </trkpt>
      <trkpt lat="43.65426" lon="6.79615">
        <ele>459.65</ele>
        <time>2012-03-11T08:29:28Z</time>
      </trkpt>
      <trkpt lat="43.65369" lon="6.79658">
        <ele>456.28</ele>
        <time>2012-03-11T08:29:39Z</time>
      </trkpt>
      <trkpt lat="43.65353" lon="6.79681">
        <ele>455.32</ele>
        <time>2012-03-11T08:29:43Z</time>
      </trkpt>
      <trkpt lat="43.65336" lon="6.79724">
        <ele>452.92</ele>
        <time>2012-03-11T08:29:49Z</time>
      </trkpt>
      <trkpt lat="43.65315" lon="6.79752">
        <ele>451.96</ele>
        <time>2012-03-11T08:29:54Z</time>
      </trkpt>
      <trkpt lat="43.65261" lon="6.7977">
        <ele>449.07</ele>
        <time>2012-03-11T08:30:03Z</time>
      </trkpt>
      <trkpt lat="43.65171" lon="6.79784">
        <ele>449.07</ele>
        <time>2012-03-11T08:30:19Z</time>
      </trkpt>
      <trkpt lat="43.65166" lon="6.79785">
        <ele>448.59</ele>
        <time>2012-03-11T08:30:20Z</time>
      </trkpt>
      <trkpt lat="43.6515" lon="6.79813">
        <ele>448.11</ele>
        <time>2012-03-11T08:30:27Z</time>
      </trkpt>
      <trkpt lat="43.65159" lon="6.79851">
        <ele>450.03</ele>
        <time>2012-03-11T08:30:39Z</time>
      </trkpt>
      <trkpt lat="43.6516" lon="6.79852">
        <ele>449.55</ele>
        <time>2012-03-11T08:30:48Z</time>
      </trkpt>
      <trkpt lat="43.65158" lon="6.7986">
        <ele>450.52</ele>
        <time>2012-03-11T08:31:04Z</time>
      </trkpt>
      <trkpt lat="43.65156" lon="6.79864">
        <ele>451</ele>
        <time>2012-03-11T08:31:15Z</time>
      </trkpt>
      <trkpt lat="43.65154" lon="6.79862">
        <ele>452.44</ele>
        <time>2012-03-11T08:31:33Z</time>
      </trkpt>
      <trkpt lat="43.65158" lon="6.79857">
        <ele>453.88</ele>
        <time>2012-03-11T08:31:45Z</time>
      </trkpt>
      <trkpt lat="43.65158" lon="6.79857">
        <ele>453.4</ele>
        <time>2012-03-11T08:32:03Z</time>
      </trkpt>
      <trkpt lat="43.65159" lon="6.79857">
        <ele>451.96</ele>
        <time>2012-03-11T08:32:16Z</time>
      </trkpt>
      <trkpt lat="43.65159" lon="6.79856">
        <ele>451</ele>
        <time>2012-03-11T08:32:31Z</time>
      </trkpt>
      <trkpt lat="43.6516" lon="6.79855">
        <ele>450.52</ele>
        <time>2012-03-11T08:32:45Z</time>
      </trkpt>
      <trkpt lat="43.65159" lon="6.79853">
        <ele>450.52</ele>
        <time>2012-03-11T08:33:00Z</time>
      </trkpt>
      <trkpt lat="43.65159" lon="6.79853">
        <ele>450.03</ele>
        <time>2012-03-11T08:33:15Z</time>
      </trkpt>
      <trkpt lat="43.6516" lon="6.7985">
        <ele>450.03</ele>
        <time>2012-03-11T08:33:35Z</time>
      </trkpt>
      <trkpt lat="43.65161" lon="6.79848">
        <ele>450.03</ele>
        <time>2012-03-11T08:33:46Z</time>
      </trkpt>
      <trkpt lat="43.65161" lon="6.7985">
        <ele>450.52</ele>
        <time>2012-03-11T08:33:50Z</time>
      </trkpt>
      <trkpt lat="43.65159" lon="6.79854">
        <ele>451.96</ele>
        <time>2012-03-11T08:34:01Z</time>
      </trkpt>
      <trkpt lat="43.65158" lon="6.79857">
        <ele>452.44</ele>
        <time>2012-03-11T08:34:12Z</time>
      </trkpt>
      <trkpt lat="43.65158" lon="6.79857">
        <ele>452.92</ele>
        <time>2012-03-11T08:34:23Z</time>
      </trkpt>
      <trkpt lat="43.65158" lon="6.79857">
        <ele>452.92</ele>
        <time>2012-03-11T08:34:52Z</time>
      </trkpt>
      <trkpt lat="43.65157" lon="6.79857">
        <ele>452.44</ele>
        <time>2012-03-11T08:35:08Z</time>
      </trkpt>
      <trkpt lat="43.65157" lon="6.79857">
        <ele>452.44</ele>
        <time>2012-03-11T08:35:35Z</time>
      </trkpt>
      <trkpt lat="43.65156" lon="6.79858">
        <ele>452.44</ele>
        <time>2012-03-11T08:35:58Z</time>
      </trkpt>
      <trkpt lat="43.65156" lon="6.79859">
        <ele>451.48</ele>
        <time>2012-03-11T08:36:20Z</time>
      </trkpt>
      <trkpt lat="43.65156" lon="6.79859">
        <ele>451</ele>
        <time>2012-03-11T08:36:37Z</time>
      </trkpt>
      <trkpt lat="43.65155" lon="6.79859">
        <ele>450.52</ele>
        <time>2012-03-11T08:37:08Z</time>
      </trkpt>
      <trkpt lat="43.65155" lon="6.79859">
        <ele>450.52</ele>
        <time>2012-03-11T08:37:35Z</time>
      </trkpt>
      <trkpt lat="43.65154" lon="6.7986">
        <ele>450.52</ele>
        <time>2012-03-11T08:38:03Z</time>
      </trkpt>
      <trkpt lat="43.65154" lon="6.79861">
        <ele>451.48</ele>
        <time>2012-03-11T08:38:13Z</time>
      </trkpt>
      <trkpt lat="43.65153" lon="6.79903">
        <ele>455.32</ele>
        <time>2012-03-11T08:38:29Z</time>
      </trkpt>
      <trkpt lat="43.65147" lon="6.7993">
        <ele>453.88</ele>
        <time>2012-03-11T08:38:35Z</time>
      </trkpt>
      <trkpt lat="43.65143" lon="6.79943">
        <ele>452.44</ele>
        <time>2012-03-11T08:38:37Z</time>
      </trkpt>
      <trkpt lat="43.65135" lon="6.79966">
        <ele>451</ele>
        <time>2012-03-11T08:38:41Z</time>
      </trkpt>
      <trkpt lat="43.65099" lon="6.80042">
        <ele>449.55</ele>
        <time>2012-03-11T08:38:55Z</time>
      </trkpt>
      <trkpt lat="43.6508" lon="6.80055">
        <ele>449.55</ele>
        <time>2012-03-11T08:39:00Z</time>
      </trkpt>
      <trkpt lat="43.65033" lon="6.80053">
        <ele>452.92</ele>
        <time>2012-03-11T08:39:14Z</time>
      </trkpt>
      <trkpt lat="43.6503" lon="6.80056">
        <ele>452.92</ele>
        <time>2012-03-11T08:39:16Z</time>
      </trkpt>
      <trkpt lat="43.65038" lon="6.80108">
        <ele>452.44</ele>
        <time>2012-03-11T08:39:25Z</time>
      </trkpt>
      <trkpt lat="43.65033" lon="6.80198">
        <ele>452.92</ele>
        <time>2012-03-11T08:39:37Z</time>
      </trkpt>
      <trkpt lat="43.65011" lon="6.80273">
        <ele>451.48</ele>
        <time>2012-03-11T08:39:50Z</time>
      </trkpt>
      <trkpt lat="43.64998" lon="6.80306">
        <ele>451</ele>
        <time>2012-03-11T08:39:56Z</time>
      </trkpt>
      <trkpt lat="43.64993" lon="6.80323">
        <ele>451</ele>
        <time>2012-03-11T08:39:59Z</time>
      </trkpt>
      <trkpt lat="43.64986" lon="6.80368">
        <ele>451.48</ele>
        <time>2012-03-11T08:40:07Z</time>
      </trkpt>
      <trkpt lat="43.64975" lon="6.80376">
        <ele>452.44</ele>
        <time>2012-03-11T08:40:13Z</time>
      </trkpt>
      <trkpt lat="43.64932" lon="6.80397">
        <ele>458.21</ele>
        <time>2012-03-11T08:40:33Z</time>
      </trkpt>
      <trkpt lat="43.649" lon="6.80417">
        <ele>460.13</ele>
        <time>2012-03-11T08:40:46Z</time>
      </trkpt>
      <trkpt lat="43.64855" lon="6.80426">
        <ele>461.09</ele>
        <time>2012-03-11T08:41:02Z</time>
      </trkpt>
      <trkpt lat="43.64804" lon="6.80424">
        <ele>459.65</ele>
        <time>2012-03-11T08:41:16Z</time>
      </trkpt>
      <trkpt lat="43.64794" lon="6.80408">
        <ele>458.69</ele>
        <time>2012-03-11T08:41:20Z</time>
      </trkpt>
      <trkpt lat="43.64764" lon="6.80362">
        <ele>454.36</ele>
        <time>2012-03-11T08:41:28Z</time>
      </trkpt>
      <trkpt lat="43.6475" lon="6.80314">
        <ele>453.4</ele>
        <time>2012-03-11T08:41:38Z</time>
      </trkpt>
      <trkpt lat="43.64742" lon="6.80305">
        <ele>454.36</ele>
        <time>2012-03-11T08:41:42Z</time>
      </trkpt>
      <trkpt lat="43.64734" lon="6.80295">
        <ele>455.8</ele>
        <time>2012-03-11T08:41:46Z</time>
      </trkpt>
      <trkpt lat="43.64706" lon="6.80276">
        <ele>458.21</ele>
        <time>2012-03-11T08:41:57Z</time>
      </trkpt>
      <trkpt lat="43.64672" lon="6.8026">
        <ele>462.53</ele>
        <time>2012-03-11T08:42:10Z</time>
      </trkpt>
      <trkpt lat="43.64637" lon="6.80265">
        <ele>463.49</ele>
        <time>2012-03-11T08:42:27Z</time>
      </trkpt>
      <trkpt lat="43.64615" lon="6.80252">
        <ele>465.42</ele>
        <time>2012-03-11T08:42:41Z</time>
      </trkpt>
      <trkpt lat="43.64614" lon="6.80209">
        <ele>467.34</ele>
        <time>2012-03-11T08:42:53Z</time>
      </trkpt>
      <trkpt lat="43.64615" lon="6.80159">
        <ele>471.18</ele>
        <time>2012-03-11T08:43:08Z</time>
      </trkpt>
      <trkpt lat="43.64612" lon="6.80118">
        <ele>472.14</ele>
        <time>2012-03-11T08:43:20Z</time>
      </trkpt>
      <trkpt lat="43.64615" lon="6.80066">
        <ele>475.99</ele>
        <time>2012-03-11T08:43:36Z</time>
      </trkpt>
      <trkpt lat="43.64613" lon="6.80042">
        <ele>478.39</ele>
        <time>2012-03-11T08:43:44Z</time>
      </trkpt>
      <trkpt lat="43.64595" lon="6.80031">
        <ele>478.87</ele>
        <time>2012-03-11T08:43:53Z</time>
      </trkpt>
      <trkpt lat="43.64548" lon="6.80035">
        <ele>478.87</ele>
        <time>2012-03-11T08:44:07Z</time>
      </trkpt>
      <trkpt lat="43.6455" lon="6.80002">
        <ele>476.95</ele>
        <time>2012-03-11T08:44:13Z</time>
      </trkpt>
      <trkpt lat="43.64556" lon="6.79992">
        <ele>476.95</ele>
        <time>2012-03-11T08:44:15Z</time>
      </trkpt>
      <trkpt lat="43.64568" lon="6.79965">
        <ele>476.95</ele>
        <time>2012-03-11T08:44:20Z</time>
      </trkpt>
      <trkpt lat="43.64571" lon="6.79941">
        <ele>476.47</ele>
        <time>2012-03-11T08:44:24Z</time>
      </trkpt>
      <trkpt lat="43.64561" lon="6.79868">
        <ele>473.59</ele>
        <time>2012-03-11T08:44:34Z</time>
      </trkpt>
      <trkpt lat="43.64561" lon="6.79852">
        <ele>473.11</ele>
        <time>2012-03-11T08:44:36Z</time>
      </trkpt>
      <trkpt lat="43.64542" lon="6.79824">
        <ele>472.63</ele>
        <time>2012-03-11T08:44:42Z</time>
      </trkpt>
      <trkpt lat="43.64501" lon="6.79828">
        <ele>474.55</ele>
        <time>2012-03-11T08:44:51Z</time>
      </trkpt>
      <trkpt lat="43.64487" lon="6.79825">
        <ele>475.03</ele>
        <time>2012-03-11T08:44:54Z</time>
      </trkpt>
      <trkpt lat="43.6446" lon="6.79825">
        <ele>475.51</ele>
        <time>2012-03-11T08:44:59Z</time>
      </trkpt>
      <trkpt lat="43.6445" lon="6.79822">
        <ele>475.51</ele>
        <time>2012-03-11T08:45:01Z</time>
      </trkpt>
      <trkpt lat="43.64434" lon="6.79813">
        <ele>475.99</ele>
        <time>2012-03-11T08:45:04Z</time>
      </trkpt>
      <trkpt lat="43.64395" lon="6.79811">
        <ele>474.07</ele>
        <time>2012-03-11T08:45:10Z</time>
      </trkpt>
      <trkpt lat="43.64373" lon="6.79826">
        <ele>474.55</ele>
        <time>2012-03-11T08:45:15Z</time>
      </trkpt>
      <trkpt lat="43.64358" lon="6.7984">
        <ele>474.55</ele>
        <time>2012-03-11T08:45:19Z</time>
      </trkpt>
      <trkpt lat="43.64319" lon="6.79903">
        <ele>473.11</ele>
        <time>2012-03-11T08:45:29Z</time>
      </trkpt>
      <trkpt lat="43.64278" lon="6.7992">
        <ele>474.55</ele>
        <time>2012-03-11T08:45:35Z</time>
      </trkpt>
      <trkpt lat="43.64253" lon="6.79919">
        <ele>475.03</ele>
        <time>2012-03-11T08:45:38Z</time>
      </trkpt>
      <trkpt lat="43.64226" lon="6.7991">
        <ele>474.07</ele>
        <time>2012-03-11T08:45:41Z</time>
      </trkpt>
      <trkpt lat="43.64195" lon="6.79913">
        <ele>471.18</ele>
        <time>2012-03-11T08:45:45Z</time>
      </trkpt>
      <trkpt lat="43.64153" lon="6.79947">
        <ele>461.57</ele>
        <time>2012-03-11T08:45:50Z</time>
      </trkpt>
      <trkpt lat="43.64121" lon="6.79983">
        <ele>454.84</ele>
        <time>2012-03-11T08:45:54Z</time>
      </trkpt>
      <trkpt lat="43.64096" lon="6.80031">
        <ele>450.52</ele>
        <time>2012-03-11T08:45:59Z</time>
      </trkpt>
      <trkpt lat="43.64075" lon="6.80055">
        <ele>448.11</ele>
        <time>2012-03-11T08:46:03Z</time>
      </trkpt>
      <trkpt lat="43.64019" lon="6.80086">
        <ele>438.02</ele>
        <time>2012-03-11T08:46:10Z</time>
      </trkpt>
      <trkpt lat="43.63993" lon="6.80091">
        <ele>432.73</ele>
        <time>2012-03-11T08:46:13Z</time>
      </trkpt>
      <trkpt lat="43.63959" lon="6.80116">
        <ele>425.52</ele>
        <time>2012-03-11T08:46:18Z</time>
      </trkpt>
      <trkpt lat="43.63902" lon="6.80154">
        <ele>415.43</ele>
        <time>2012-03-11T08:46:24Z</time>
      </trkpt>
      <trkpt lat="43.63841" lon="6.80152">
        <ele>403.89</ele>
        <time>2012-03-11T08:46:31Z</time>
      </trkpt>
      <trkpt lat="43.63825" lon="6.80136">
        <ele>397.64</ele>
        <time>2012-03-11T08:46:37Z</time>
      </trkpt>
      <trkpt lat="43.6382" lon="6.80115">
        <ele>394.76</ele>
        <time>2012-03-11T08:46:47Z</time>
      </trkpt>
      <trkpt lat="43.6382" lon="6.80115">
        <ele>394.76</ele>
        <time>2012-03-11T08:46:57Z</time>
      </trkpt>
      <trkpt lat="43.6381" lon="6.80094">
        <ele>392.36</ele>
        <time>2012-03-11T08:47:06Z</time>
      </trkpt>
      <trkpt lat="43.63789" lon="6.80074">
        <ele>387.55</ele>
        <time>2012-03-11T08:47:11Z</time>
      </trkpt>
      <trkpt lat="43.63739" lon="6.80073">
        <ele>382.74</ele>
        <time>2012-03-11T08:47:19Z</time>
      </trkpt>
      <trkpt lat="43.63727" lon="6.8007">
        <ele>382.26</ele>
        <time>2012-03-11T08:47:21Z</time>
      </trkpt>
      <trkpt lat="43.63716" lon="6.80065">
        <ele>381.78</ele>
        <time>2012-03-11T08:47:23Z</time>
      </trkpt>
      <trkpt lat="43.63698" lon="6.80052">
        <ele>382.74</ele>
        <time>2012-03-11T08:47:27Z</time>
      </trkpt>
      <trkpt lat="43.63675" lon="6.80041">
        <ele>384.18</ele>
        <time>2012-03-11T08:47:32Z</time>
      </trkpt>
      <trkpt lat="43.63652" lon="6.80025">
        <ele>385.15</ele>
        <time>2012-03-11T08:47:38Z</time>
      </trkpt>
      <trkpt lat="43.63596" lon="6.79981">
        <ele>382.74</ele>
        <time>2012-03-11T08:47:52Z</time>
      </trkpt>
      <trkpt lat="43.63579" lon="6.79969">
        <ele>382.26</ele>
        <time>2012-03-11T08:47:56Z</time>
      </trkpt>
      <trkpt lat="43.6357" lon="6.79965">
        <ele>382.74</ele>
        <time>2012-03-11T08:47:58Z</time>
      </trkpt>
      <trkpt lat="43.63517" lon="6.79942">
        <ele>381.78</ele>
        <time>2012-03-11T08:48:12Z</time>
      </trkpt>
      <trkpt lat="43.63487" lon="6.79928">
        <ele>379.38</ele>
        <time>2012-03-11T08:48:19Z</time>
      </trkpt>
      <trkpt lat="43.6347" lon="6.79934">
        <ele>378.42</ele>
        <time>2012-03-11T08:48:23Z</time>
      </trkpt>
      <trkpt lat="43.63431" lon="6.79974">
        <ele>373.13</ele>
        <time>2012-03-11T08:48:35Z</time>
      </trkpt>
      <trkpt lat="43.63413" lon="6.79983">
        <ele>370.24</ele>
        <time>2012-03-11T08:48:40Z</time>
      </trkpt>
      <trkpt lat="43.634" lon="6.79997">
        <ele>367.36</ele>
        <time>2012-03-11T08:48:44Z</time>
      </trkpt>
      <trkpt lat="43.63381" lon="6.80042">
        <ele>357.27</ele>
        <time>2012-03-11T08:48:56Z</time>
      </trkpt>
      <trkpt lat="43.63364" lon="6.80057">
        <ele>354.38</ele>
        <time>2012-03-11T08:49:03Z</time>
      </trkpt>
      <trkpt lat="43.63331" lon="6.80063">
        <ele>351.5</ele>
        <time>2012-03-11T08:49:12Z</time>
      </trkpt>
      <trkpt lat="43.63319" lon="6.80066">
        <ele>350.54</ele>
        <time>2012-03-11T08:49:15Z</time>
      </trkpt>
      <trkpt lat="43.633" lon="6.80069">
        <ele>347.17</ele>
        <time>2012-03-11T08:49:20Z</time>
      </trkpt>
      <trkpt lat="43.63279" lon="6.80075">
        <ele>344.29</ele>
        <time>2012-03-11T08:49:26Z</time>
      </trkpt>
      <trkpt lat="43.6327" lon="6.80078">
        <ele>343.81</ele>
        <time>2012-03-11T08:49:28Z</time>
      </trkpt>
      <trkpt lat="43.63259" lon="6.80096">
        <ele>343.81</ele>
        <time>2012-03-11T08:49:32Z</time>
      </trkpt>
      <trkpt lat="43.63247" lon="6.80123">
        <ele>344.29</ele>
        <time>2012-03-11T08:49:37Z</time>
      </trkpt>
      <trkpt lat="43.63221" lon="6.80155">
        <ele>342.85</ele>
        <time>2012-03-11T08:49:44Z</time>
      </trkpt>
      <trkpt lat="43.63202" lon="6.80175">
        <ele>339</ele>
        <time>2012-03-11T08:49:52Z</time>
      </trkpt>
      <trkpt lat="43.63202" lon="6.80175">
        <ele>338.52</ele>
        <time>2012-03-11T08:49:53Z</time>
      </trkpt>
      <trkpt lat="43.63207" lon="6.80157">
        <ele>336.12</ele>
        <time>2012-03-11T08:49:58Z</time>
      </trkpt>
      <trkpt lat="43.63206" lon="6.80146">
        <ele>334.68</ele>
        <time>2012-03-11T08:50:00Z</time>
      </trkpt>
      <trkpt lat="43.63203" lon="6.8015">
        <ele>332.75</ele>
        <time>2012-03-11T08:50:06Z</time>
      </trkpt>
      <trkpt lat="43.63198" lon="6.80154">
        <ele>330.83</ele>
        <time>2012-03-11T08:50:16Z</time>
      </trkpt>
      <trkpt lat="43.63197" lon="6.80153">
        <ele>330.35</ele>
        <time>2012-03-11T08:50:18Z</time>
      </trkpt>
      <trkpt lat="43.63198" lon="6.80149">
        <ele>329.39</ele>
        <time>2012-03-11T08:50:22Z</time>
      </trkpt>
      <trkpt lat="43.63194" lon="6.80149">
        <ele>328.43</ele>
        <time>2012-03-11T08:50:32Z</time>
      </trkpt>
      <trkpt lat="43.63195" lon="6.80142">
        <ele>326.99</ele>
        <time>2012-03-11T08:50:39Z</time>
      </trkpt>
      <trkpt lat="43.63191" lon="6.80138">
        <ele>325.06</ele>
        <time>2012-03-11T08:50:43Z</time>
      </trkpt>
      <trkpt lat="43.6319" lon="6.80142">
        <ele>322.66</ele>
        <time>2012-03-11T08:50:48Z</time>
      </trkpt>
      <trkpt lat="43.63174" lon="6.80156">
        <ele>321.22</ele>
        <time>2012-03-11T08:50:57Z</time>
      </trkpt>
      <trkpt lat="43.63146" lon="6.80182">
        <ele>319.78</ele>
        <time>2012-03-11T08:51:07Z</time>
      </trkpt>
      <trkpt lat="43.63125" lon="6.80207">
        <ele>313.53</ele>
        <time>2012-03-11T08:51:18Z</time>
      </trkpt>
      <trkpt lat="43.63126" lon="6.80196">
        <ele>307.76</ele>
        <time>2012-03-11T08:51:27Z</time>
      </trkpt>
      <trkpt lat="43.63124" lon="6.80188">
        <ele>302.47</ele>
        <time>2012-03-11T08:51:35Z</time>
      </trkpt>
      <trkpt lat="43.63125" lon="6.80184">
        <ele>298.63</ele>
        <time>2012-03-11T08:51:45Z</time>
      </trkpt>
      <trkpt lat="43.63125" lon="6.80184">
        <ele>298.63</ele>
        <time>2012-03-11T08:51:46Z</time>
      </trkpt>
      <trkpt lat="43.6312" lon="6.8018">
        <ele>297.18</ele>
        <time>2012-03-11T08:51:50Z</time>
      </trkpt>
      <trkpt lat="43.63119" lon="6.80171">
        <ele>295.26</ele>
        <time>2012-03-11T08:51:53Z</time>
      </trkpt>
      <trkpt lat="43.63117" lon="6.80169">
        <ele>292.86</ele>
        <time>2012-03-11T08:51:56Z</time>
      </trkpt>
      <trkpt lat="43.63111" lon="6.80172">
        <ele>290.94</ele>
        <time>2012-03-11T08:52:06Z</time>
      </trkpt>
      <trkpt lat="43.63112" lon="6.80172">
        <ele>289.97</ele>
        <time>2012-03-11T08:52:07Z</time>
      </trkpt>
      <trkpt lat="43.63112" lon="6.8017">
        <ele>285.65</ele>
        <time>2012-03-11T08:52:16Z</time>
      </trkpt>
      <trkpt lat="43.63112" lon="6.8017">
        <ele>285.17</ele>
        <time>2012-03-11T08:52:17Z</time>
      </trkpt>
      <trkpt lat="43.63109" lon="6.80173">
        <ele>285.17</ele>
        <time>2012-03-11T08:52:20Z</time>
      </trkpt>
      <trkpt lat="43.63105" lon="6.80174">
        <ele>283.25</ele>
        <time>2012-03-11T08:52:30Z</time>
      </trkpt>
      <trkpt lat="43.63106" lon="6.80172">
        <ele>282.28</ele>
        <time>2012-03-11T08:52:34Z</time>
      </trkpt>
      <trkpt lat="43.63101" lon="6.80166">
        <ele>279.88</ele>
        <time>2012-03-11T08:52:42Z</time>
      </trkpt>
      <trkpt lat="43.63098" lon="6.80172">
        <ele>277.48</ele>
        <time>2012-03-11T08:52:45Z</time>
      </trkpt>
      <trkpt lat="43.63095" lon="6.80173">
        <ele>275.56</ele>
        <time>2012-03-11T08:52:49Z</time>
      </trkpt>
      <trkpt lat="43.63093" lon="6.80173">
        <ele>274.59</ele>
        <time>2012-03-11T08:52:54Z</time>
      </trkpt>
      <trkpt lat="43.63091" lon="6.80176">
        <ele>273.63</ele>
        <time>2012-03-11T08:52:57Z</time>
      </trkpt>
      <trkpt lat="43.63087" lon="6.80177">
        <ele>271.23</ele>
        <time>2012-03-11T08:53:01Z</time>
      </trkpt>
      <trkpt lat="43.63088" lon="6.80167">
        <ele>267.86</ele>
        <time>2012-03-11T08:53:08Z</time>
      </trkpt>
      <trkpt lat="43.63085" lon="6.80168">
        <ele>266.42</ele>
        <time>2012-03-11T08:53:18Z</time>
      </trkpt>
      <trkpt lat="43.63079" lon="6.8017">
        <ele>264.02</ele>
        <time>2012-03-11T08:53:26Z</time>
      </trkpt>
      <trkpt lat="43.63066" lon="6.80182">
        <ele>258.25</ele>
        <time>2012-03-11T08:53:32Z</time>
      </trkpt>
      <trkpt lat="43.63067" lon="6.80175">
        <ele>255.37</ele>
        <time>2012-03-11T08:53:36Z</time>
      </trkpt>
      <trkpt lat="43.63068" lon="6.80166">
        <ele>252.48</ele>
        <time>2012-03-11T08:53:40Z</time>
      </trkpt>
      <trkpt lat="43.63066" lon="6.80166">
        <ele>252.48</ele>
        <time>2012-03-11T08:53:42Z</time>
      </trkpt>
      <trkpt lat="43.63057" lon="6.80175">
        <ele>246.23</ele>
        <time>2012-03-11T08:53:51Z</time>
      </trkpt>
      <trkpt lat="43.63059" lon="6.80169">
        <ele>244.31</ele>
        <time>2012-03-11T08:53:54Z</time>
      </trkpt>
      <trkpt lat="43.63058" lon="6.80166">
        <ele>243.35</ele>
        <time>2012-03-11T08:53:57Z</time>
      </trkpt>
      <trkpt lat="43.63054" lon="6.80171">
        <ele>241.91</ele>
        <time>2012-03-11T08:54:00Z</time>
      </trkpt>
      <trkpt lat="43.63051" lon="6.80173">
        <ele>241.43</ele>
        <time>2012-03-11T08:54:02Z</time>
      </trkpt>
      <trkpt lat="43.63049" lon="6.80174">
        <ele>240.95</ele>
        <time>2012-03-11T08:54:04Z</time>
      </trkpt>
      <trkpt lat="43.63057" lon="6.8014">
        <ele>236.62</ele>
        <time>2012-03-11T08:54:16Z</time>
      </trkpt>
      <trkpt lat="43.63067" lon="6.80105">
        <ele>231.81</ele>
        <time>2012-03-11T08:54:26Z</time>
      </trkpt>
      <trkpt lat="43.63068" lon="6.80099">
        <ele>231.33</ele>
        <time>2012-03-11T08:54:28Z</time>
      </trkpt>
      <trkpt lat="43.63066" lon="6.80088">
        <ele>230.85</ele>
        <time>2012-03-11T08:54:34Z</time>
      </trkpt>
      <trkpt lat="43.63069" lon="6.80084">
        <ele>230.85</ele>
        <time>2012-03-11T08:54:36Z</time>
      </trkpt>
      <trkpt lat="43.63071" lon="6.80074">
        <ele>228.93</ele>
        <time>2012-03-11T08:54:40Z</time>
      </trkpt>
      <trkpt lat="43.63082" lon="6.80052">
        <ele>223.64</ele>
        <time>2012-03-11T08:54:49Z</time>
      </trkpt>
      <trkpt lat="43.6307" lon="6.80057">
        <ele>222.68</ele>
        <time>2012-03-11T08:54:53Z</time>
      </trkpt>
      <trkpt lat="43.63064" lon="6.80061">
        <ele>222.2</ele>
        <time>2012-03-11T08:54:55Z</time>
      </trkpt>
      <trkpt lat="43.63068" lon="6.80051">
        <ele>219.32</ele>
        <time>2012-03-11T08:55:00Z</time>
      </trkpt>
      <trkpt lat="43.63074" lon="6.80039">
        <ele>215.47</ele>
        <time>2012-03-11T08:55:09Z</time>
      </trkpt>
      <trkpt lat="43.63074" lon="6.80038">
        <ele>214.99</ele>
        <time>2012-03-11T08:55:11Z</time>
      </trkpt>
      <trkpt lat="43.63071" lon="6.8004">
        <ele>214.03</ele>
        <time>2012-03-11T08:55:14Z</time>
      </trkpt>
      <trkpt lat="43.63062" lon="6.80044">
        <ele>212.11</ele>
        <time>2012-03-11T08:55:18Z</time>
      </trkpt>
      <trkpt lat="43.63053" lon="6.80049">
        <ele>209.22</ele>
        <time>2012-03-11T08:55:26Z</time>
      </trkpt>
      <trkpt lat="43.63048" lon="6.80052">
        <ele>209.7</ele>
        <time>2012-03-11T08:55:31Z</time>
      </trkpt>
      <trkpt lat="43.63034" lon="6.80057">
        <ele>210.19</ele>
        <time>2012-03-11T08:55:40Z</time>
      </trkpt>
      <trkpt lat="43.6303" lon="6.80062">
        <ele>212.11</ele>
        <time>2012-03-11T08:55:46Z</time>
      </trkpt>
      <trkpt lat="43.63006" lon="6.80086">
        <ele>214.03</ele>
        <time>2012-03-11T08:55:57Z</time>
      </trkpt>
      <trkpt lat="43.63003" lon="6.8009">
        <ele>214.03</ele>
        <time>2012-03-11T08:55:58Z</time>
      </trkpt>
      <trkpt lat="43.6298" lon="6.8012">
        <ele>215.47</ele>
        <time>2012-03-11T08:56:07Z</time>
      </trkpt>
      <trkpt lat="43.62978" lon="6.80123">
        <ele>214.99</ele>
        <time>2012-03-11T08:56:08Z</time>
      </trkpt>
      <trkpt lat="43.6296" lon="6.80122">
        <ele>212.59</ele>
        <time>2012-03-11T08:56:15Z</time>
      </trkpt>
      <trkpt lat="43.62939" lon="6.8013">
        <ele>211.63</ele>
        <time>2012-03-11T08:56:21Z</time>
      </trkpt>
      <trkpt lat="43.62937" lon="6.80155">
        <ele>210.67</ele>
        <time>2012-03-11T08:56:28Z</time>
      </trkpt>
      <trkpt lat="43.62926" lon="6.80159">
        <ele>206.82</ele>
        <time>2012-03-11T08:56:33Z</time>
      </trkpt>
      <trkpt lat="43.62931" lon="6.80166">
        <ele>205.38</ele>
        <time>2012-03-11T08:56:36Z</time>
      </trkpt>
      <trkpt lat="43.62933" lon="6.8018">
        <ele>204.42</ele>
        <time>2012-03-11T08:56:39Z</time>
      </trkpt>
      <trkpt lat="43.62928" lon="6.80194">
        <ele>203.94</ele>
        <time>2012-03-11T08:56:43Z</time>
      </trkpt>
      <trkpt lat="43.62918" lon="6.80199">
        <ele>200.57</ele>
        <time>2012-03-11T08:56:54Z</time>
      </trkpt>
      <trkpt lat="43.62918" lon="6.80199">
        <ele>200.57</ele>
        <time>2012-03-11T08:57:14Z</time>
      </trkpt>
      <trkpt lat="43.62916" lon="6.80199">
        <ele>200.09</ele>
        <time>2012-03-11T08:57:15Z</time>
      </trkpt>
      <trkpt lat="43.62898" lon="6.80204">
        <ele>192.88</ele>
        <time>2012-03-11T08:57:24Z</time>
      </trkpt>
      <trkpt lat="43.62894" lon="6.80206">
        <ele>190.48</ele>
        <time>2012-03-11T08:57:30Z</time>
      </trkpt>
      <trkpt lat="43.62884" lon="6.80211">
        <ele>188.56</ele>
        <time>2012-03-11T08:57:36Z</time>
      </trkpt>
      <trkpt lat="43.62881" lon="6.80215">
        <ele>188.08</ele>
        <time>2012-03-11T08:57:46Z</time>
      </trkpt>
      <trkpt lat="43.62885" lon="6.80221">
        <ele>190.96</ele>
        <time>2012-03-11T08:57:52Z</time>
      </trkpt>
      <trkpt lat="43.62885" lon="6.80223">
        <ele>192.4</ele>
        <time>2012-03-11T08:57:54Z</time>
      </trkpt>
      <trkpt lat="43.62886" lon="6.80229">
        <ele>194.8</ele>
        <time>2012-03-11T08:57:59Z</time>
      </trkpt>
      <trkpt lat="43.62887" lon="6.80234">
        <ele>197.21</ele>
        <time>2012-03-11T08:58:10Z</time>
      </trkpt>
      <trkpt lat="43.62887" lon="6.80234">
        <ele>197.21</ele>
        <time>2012-03-11T08:58:29Z</time>
      </trkpt>
      <trkpt lat="43.62887" lon="6.80233">
        <ele>196.73</ele>
        <time>2012-03-11T08:59:04Z</time>
      </trkpt>
      <trkpt lat="43.62887" lon="6.80233">
        <ele>196.73</ele>
        <time>2012-03-11T08:59:25Z</time>
      </trkpt>
      <trkpt lat="43.62888" lon="6.80233">
        <ele>196.73</ele>
        <time>2012-03-11T08:59:57Z</time>
      </trkpt>
      <trkpt lat="43.62888" lon="6.80233">
        <ele>196.73</ele>
        <time>2012-03-11T09:00:24Z</time>
      </trkpt>
      <trkpt lat="43.62888" lon="6.80233">
        <ele>196.73</ele>
        <time>2012-03-11T09:00:45Z</time>
      </trkpt>
      <trkpt lat="43.62887" lon="6.80237">
        <ele>196.25</ele>
        <time>2012-03-11T09:01:11Z</time>
      </trkpt>
      <trkpt lat="43.62886" lon="6.80247">
        <ele>196.73</ele>
        <time>2012-03-11T09:01:15Z</time>
      </trkpt>
      <trkpt lat="43.62881" lon="6.8029">
        <ele>200.57</ele>
        <time>2012-03-11T09:01:27Z</time>
      </trkpt>
      <trkpt lat="43.6288" lon="6.80314">
        <ele>203.46</ele>
        <time>2012-03-11T09:01:34Z</time>
      </trkpt>
      <trkpt lat="43.62888" lon="6.80331">
        <ele>208.26</ele>
        <time>2012-03-11T09:01:41Z</time>
      </trkpt>
      <trkpt lat="43.62901" lon="6.80364">
        <ele>212.59</ele>
        <time>2012-03-11T09:01:50Z</time>
      </trkpt>
      <trkpt lat="43.62908" lon="6.80378">
        <ele>211.15</ele>
        <time>2012-03-11T09:01:54Z</time>
      </trkpt>
      <trkpt lat="43.62921" lon="6.80399">
        <ele>210.67</ele>
        <time>2012-03-11T09:01:58Z</time>
      </trkpt>
      <trkpt lat="43.62929" lon="6.80415">
        <ele>210.67</ele>
        <time>2012-03-11T09:02:01Z</time>
      </trkpt>
      <trkpt lat="43.62955" lon="6.80477">
        <ele>209.22</ele>
        <time>2012-03-11T09:02:13Z</time>
      </trkpt>
      <trkpt lat="43.62963" lon="6.80493">
        <ele>210.19</ele>
        <time>2012-03-11T09:02:16Z</time>
      </trkpt>
      <trkpt lat="43.62974" lon="6.80505">
        <ele>212.59</ele>
        <time>2012-03-11T09:02:20Z</time>
      </trkpt>
      <trkpt lat="43.62989" lon="6.80533">
        <ele>216.91</ele>
        <time>2012-03-11T09:02:29Z</time>
      </trkpt>
      <trkpt lat="43.62992" lon="6.80549">
        <ele>219.32</ele>
        <time>2012-03-11T09:02:32Z</time>
      </trkpt>
      <trkpt lat="43.62998" lon="6.80572">
        <ele>221.72</ele>
        <time>2012-03-11T09:02:36Z</time>
      </trkpt>
      <trkpt lat="43.63002" lon="6.80592">
        <ele>222.68</ele>
        <time>2012-03-11T09:02:39Z</time>
      </trkpt>
      <trkpt lat="43.63018" lon="6.80643">
        <ele>227.97</ele>
        <time>2012-03-11T09:02:48Z</time>
      </trkpt>
      <trkpt lat="43.63019" lon="6.80653">
        <ele>228.45</ele>
        <time>2012-03-11T09:02:50Z</time>
      </trkpt>
      <trkpt lat="43.63029" lon="6.80714">
        <ele>225.57</ele>
        <time>2012-03-11T09:03:00Z</time>
      </trkpt>
      <trkpt lat="43.63049" lon="6.80753">
        <ele>229.41</ele>
        <time>2012-03-11T09:03:07Z</time>
      </trkpt>
      <trkpt lat="43.6306" lon="6.80769">
        <ele>231.81</ele>
        <time>2012-03-11T09:03:10Z</time>
      </trkpt>
      <trkpt lat="43.63095" lon="6.80815">
        <ele>239.02</ele>
        <time>2012-03-11T09:03:22Z</time>
      </trkpt>
      <trkpt lat="43.63113" lon="6.80845">
        <ele>244.31</ele>
        <time>2012-03-11T09:03:33Z</time>
      </trkpt>
      <trkpt lat="43.63121" lon="6.80866">
        <ele>241.91</ele>
        <time>2012-03-11T09:03:40Z</time>
      </trkpt>
      <trkpt lat="43.63125" lon="6.80875">
        <ele>240.95</ele>
        <time>2012-03-11T09:03:45Z</time>
      </trkpt>
      <trkpt lat="43.63123" lon="6.80887">
        <ele>238.06</ele>
        <time>2012-03-11T09:03:51Z</time>
      </trkpt>
      <trkpt lat="43.63128" lon="6.80895">
        <ele>237.1</ele>
        <time>2012-03-11T09:03:56Z</time>
      </trkpt>
      <trkpt lat="43.63129" lon="6.809">
        <ele>237.58</ele>
        <time>2012-03-11T09:03:59Z</time>
      </trkpt>
      <trkpt lat="43.63134" lon="6.80916">
        <ele>239.02</ele>
        <time>2012-03-11T09:04:08Z</time>
      </trkpt>
      <trkpt lat="43.63136" lon="6.8092">
        <ele>238.54</ele>
        <time>2012-03-11T09:04:10Z</time>
      </trkpt>
      <trkpt lat="43.63138" lon="6.80956">
        <ele>243.35</ele>
        <time>2012-03-11T09:04:20Z</time>
      </trkpt>
      <trkpt lat="43.6314" lon="6.80977">
        <ele>247.2</ele>
        <time>2012-03-11T09:04:26Z</time>
      </trkpt>
      <trkpt lat="43.6314" lon="6.81025">
        <ele>255.85</ele>
        <time>2012-03-11T09:04:38Z</time>
      </trkpt>
      <trkpt lat="43.63151" lon="6.81075">
        <ele>255.85</ele>
        <time>2012-03-11T09:04:51Z</time>
      </trkpt>
      <trkpt lat="43.6316" lon="6.81093">
        <ele>252</ele>
        <time>2012-03-11T09:04:55Z</time>
      </trkpt>
      <trkpt lat="43.63173" lon="6.81153">
        <ele>250.56</ele>
        <time>2012-03-11T09:05:02Z</time>
      </trkpt>
      <trkpt lat="43.63181" lon="6.81178">
        <ele>248.16</ele>
        <time>2012-03-11T09:05:06Z</time>
      </trkpt>
      <trkpt lat="43.63187" lon="6.8122">
        <ele>246.72</ele>
        <time>2012-03-11T09:05:13Z</time>
      </trkpt>
      <trkpt lat="43.63193" lon="6.81259">
        <ele>249.12</ele>
        <time>2012-03-11T09:05:22Z</time>
      </trkpt>
      <trkpt lat="43.63197" lon="6.81294">
        <ele>243.83</ele>
        <time>2012-03-11T09:05:29Z</time>
      </trkpt>
      <trkpt lat="43.632" lon="6.81315">
        <ele>232.78</ele>
        <time>2012-03-11T09:05:33Z</time>
      </trkpt>
      <trkpt lat="43.63198" lon="6.81342">
        <ele>223.16</ele>
        <time>2012-03-11T09:05:37Z</time>
      </trkpt>
      <trkpt lat="43.63197" lon="6.81354">
        <ele>219.32</ele>
        <time>2012-03-11T09:05:39Z</time>
      </trkpt>
      <trkpt lat="43.63196" lon="6.81386">
        <ele>213.55</ele>
        <time>2012-03-11T09:05:44Z</time>
      </trkpt>
      <trkpt lat="43.63194" lon="6.81398">
        <ele>211.63</ele>
        <time>2012-03-11T09:05:46Z</time>
      </trkpt>
      <trkpt lat="43.63189" lon="6.8142">
        <ele>209.7</ele>
        <time>2012-03-11T09:05:50Z</time>
      </trkpt>
      <trkpt lat="43.63183" lon="6.81439">
        <ele>207.78</ele>
        <time>2012-03-11T09:05:55Z</time>
      </trkpt>
      <trkpt lat="43.63195" lon="6.81469">
        <ele>209.7</ele>
        <time>2012-03-11T09:06:05Z</time>
      </trkpt>
      <trkpt lat="43.63209" lon="6.81495">
        <ele>211.15</ele>
        <time>2012-03-11T09:06:16Z</time>
      </trkpt>
      <trkpt lat="43.63219" lon="6.81512">
        <ele>210.67</ele>
        <time>2012-03-11T09:06:23Z</time>
      </trkpt>
      <trkpt lat="43.63241" lon="6.81542">
        <ele>212.59</ele>
        <time>2012-03-11T09:06:32Z</time>
      </trkpt>
      <trkpt lat="43.63249" lon="6.8155">
        <ele>213.07</ele>
        <time>2012-03-11T09:06:41Z</time>
      </trkpt>
      <trkpt lat="43.63255" lon="6.81555">
        <ele>211.15</ele>
        <time>2012-03-11T09:06:50Z</time>
      </trkpt>
      <trkpt lat="43.63255" lon="6.81565">
        <ele>208.74</ele>
        <time>2012-03-11T09:07:01Z</time>
      </trkpt>
      <trkpt lat="43.63255" lon="6.8157">
        <ele>204.9</ele>
        <time>2012-03-11T09:07:06Z</time>
      </trkpt>
      <trkpt lat="43.63254" lon="6.81576">
        <ele>202.98</ele>
        <time>2012-03-11T09:07:09Z</time>
      </trkpt>
      <trkpt lat="43.63262" lon="6.81589">
        <ele>201.53</ele>
        <time>2012-03-11T09:07:21Z</time>
      </trkpt>
      <trkpt lat="43.63263" lon="6.81591">
        <ele>200.09</ele>
        <time>2012-03-11T09:07:24Z</time>
      </trkpt>
      <trkpt lat="43.63271" lon="6.81612">
        <ele>197.21</ele>
        <time>2012-03-11T09:07:32Z</time>
      </trkpt>
      <trkpt lat="43.63273" lon="6.81619">
        <ele>197.21</ele>
        <time>2012-03-11T09:07:37Z</time>
      </trkpt>
      <trkpt lat="43.6327" lon="6.8162">
        <ele>196.73</ele>
        <time>2012-03-11T09:07:39Z</time>
      </trkpt>
      <trkpt lat="43.63268" lon="6.81624">
        <ele>196.25</ele>
        <time>2012-03-11T09:07:42Z</time>
      </trkpt>
      <trkpt lat="43.63268" lon="6.81634">
        <ele>193.36</ele>
        <time>2012-03-11T09:07:54Z</time>
      </trkpt>
      <trkpt lat="43.63265" lon="6.81643">
        <ele>190.96</ele>
        <time>2012-03-11T09:07:56Z</time>
      </trkpt>
      <trkpt lat="43.63233" lon="6.81658">
        <ele>185.67</ele>
        <time>2012-03-11T09:08:04Z</time>
      </trkpt>
      <trkpt lat="43.63213" lon="6.81647">
        <ele>181.35</ele>
        <time>2012-03-11T09:08:12Z</time>
      </trkpt>
      <trkpt lat="43.63201" lon="6.81656">
        <ele>180.38</ele>
        <time>2012-03-11T09:08:17Z</time>
      </trkpt>
      <trkpt lat="43.63167" lon="6.81677">
        <ele>181.83</ele>
        <time>2012-03-11T09:08:31Z</time>
      </trkpt>
      <trkpt lat="43.63138" lon="6.81709">
        <ele>183.75</ele>
        <time>2012-03-11T09:08:44Z</time>
      </trkpt>
      <trkpt lat="43.63135" lon="6.81713">
        <ele>183.27</ele>
        <time>2012-03-11T09:08:45Z</time>
      </trkpt>
      <trkpt lat="43.63113" lon="6.81734">
        <ele>180.38</ele>
        <time>2012-03-11T09:08:50Z</time>
      </trkpt>
      <trkpt lat="43.63102" lon="6.81765">
        <ele>177.98</ele>
        <time>2012-03-11T09:08:55Z</time>
      </trkpt>
      <trkpt lat="43.63102" lon="6.81783">
        <ele>175.1</ele>
        <time>2012-03-11T09:08:59Z</time>
      </trkpt>
      <trkpt lat="43.63094" lon="6.81817">
        <ele>168.85</ele>
        <time>2012-03-11T09:09:05Z</time>
      </trkpt>
      <trkpt lat="43.63077" lon="6.81838">
        <ele>166.93</ele>
        <time>2012-03-11T09:09:10Z</time>
      </trkpt>
      <trkpt lat="43.63031" lon="6.81863">
        <ele>158.75</ele>
        <time>2012-03-11T09:09:24Z</time>
      </trkpt>
      <trkpt lat="43.62993" lon="6.81855">
        <ele>154.91</ele>
        <time>2012-03-11T09:09:37Z</time>
      </trkpt>
      <trkpt lat="43.62961" lon="6.81869">
        <ele>150.1</ele>
        <time>2012-03-11T09:09:49Z</time>
      </trkpt>
      <trkpt lat="43.62924" lon="6.81918">
        <ele>144.34</ele>
        <time>2012-03-11T09:10:06Z</time>
      </trkpt>
      <trkpt lat="43.62894" lon="6.81984">
        <ele>142.89</ele>
        <time>2012-03-11T09:10:22Z</time>
      </trkpt>
      <trkpt lat="43.62863" lon="6.82019">
        <ele>143.37</ele>
        <time>2012-03-11T09:10:35Z</time>
      </trkpt>
      <trkpt lat="43.62834" lon="6.82029">
        <ele>141.93</ele>
        <time>2012-03-11T09:10:44Z</time>
      </trkpt>
      <trkpt lat="43.62818" lon="6.82046">
        <ele>140.49</ele>
        <time>2012-03-11T09:10:48Z</time>
      </trkpt>
      <trkpt lat="43.62797" lon="6.82054">
        <ele>139.05</ele>
        <time>2012-03-11T09:10:53Z</time>
      </trkpt>
      <trkpt lat="43.62777" lon="6.82069">
        <ele>136.64</ele>
        <time>2012-03-11T09:10:57Z</time>
      </trkpt>
      <trkpt lat="43.62751" lon="6.82107">
        <ele>133.76</ele>
        <time>2012-03-11T09:11:02Z</time>
      </trkpt>
      <trkpt lat="43.62738" lon="6.82131">
        <ele>131.84</ele>
        <time>2012-03-11T09:11:05Z</time>
      </trkpt>
      <trkpt lat="43.62729" lon="6.82148">
        <ele>129.92</ele>
        <time>2012-03-11T09:11:08Z</time>
      </trkpt>
      <trkpt lat="43.62699" lon="6.82167">
        <ele>125.11</ele>
        <time>2012-03-11T09:11:15Z</time>
      </trkpt>
      <trkpt lat="43.62694" lon="6.8218">
        <ele>124.15</ele>
        <time>2012-03-11T09:11:17Z</time>
      </trkpt>
      <trkpt lat="43.62674" lon="6.82212">
        <ele>122.71</ele>
        <time>2012-03-11T09:11:25Z</time>
      </trkpt>
      <trkpt lat="43.62634" lon="6.82255">
        <ele>116.94</ele>
        <time>2012-03-11T09:11:33Z</time>
      </trkpt>
      <trkpt lat="43.62618" lon="6.82297">
        <ele>114.53</ele>
        <time>2012-03-11T09:11:37Z</time>
      </trkpt>
      <trkpt lat="43.62597" lon="6.82322">
        <ele>113.09</ele>
        <time>2012-03-11T09:11:41Z</time>
      </trkpt>
      <trkpt lat="43.6258" lon="6.82341">
        <ele>111.17</ele>
        <time>2012-03-11T09:11:44Z</time>
      </trkpt>
      <trkpt lat="43.62548" lon="6.82402">
        <ele>108.29</ele>
        <time>2012-03-11T09:11:50Z</time>
      </trkpt>
      <trkpt lat="43.62526" lon="6.8247">
        <ele>109.73</ele>
        <time>2012-03-11T09:12:00Z</time>
      </trkpt>
      <trkpt lat="43.6252" lon="6.82509">
        <ele>117.42</ele>
        <time>2012-03-11T09:12:11Z</time>
      </trkpt>
      <trkpt lat="43.6252" lon="6.82511">
        <ele>118.38</ele>
        <time>2012-03-11T09:12:12Z</time>
      </trkpt>
      <trkpt lat="43.62521" lon="6.82513">
        <ele>119.34</ele>
        <time>2012-03-11T09:12:24Z</time>
      </trkpt>
      <trkpt lat="43.62522" lon="6.82513">
        <ele>120.3</ele>
        <time>2012-03-11T09:12:42Z</time>
      </trkpt>
      <trkpt lat="43.62523" lon="6.82513">
        <ele>120.3</ele>
        <time>2012-03-11T09:12:50Z</time>
      </trkpt>
      <trkpt lat="43.62522" lon="6.82514">
        <ele>121.26</ele>
        <time>2012-03-11T09:12:52Z</time>
      </trkpt>
      <trkpt lat="43.6252" lon="6.82557">
        <ele>129.43</ele>
        <time>2012-03-11T09:13:04Z</time>
      </trkpt>
      <trkpt lat="43.62497" lon="6.82643">
        <ele>134.72</ele>
        <time>2012-03-11T09:13:22Z</time>
      </trkpt>
      <trkpt lat="43.62486" lon="6.82695">
        <ele>137.61</ele>
        <time>2012-03-11T09:13:33Z</time>
      </trkpt>
      <trkpt lat="43.62485" lon="6.8277">
        <ele>143.85</ele>
        <time>2012-03-11T09:13:50Z</time>
      </trkpt>
      <trkpt lat="43.6249" lon="6.82846">
        <ele>147.22</ele>
        <time>2012-03-11T09:14:09Z</time>
      </trkpt>
      <trkpt lat="43.62496" lon="6.82916">
        <ele>152.51</ele>
        <time>2012-03-11T09:14:26Z</time>
      </trkpt>
      <trkpt lat="43.62503" lon="6.82991">
        <ele>161.64</ele>
        <time>2012-03-11T09:14:45Z</time>
      </trkpt>
      <trkpt lat="43.62507" lon="6.83057">
        <ele>170.29</ele>
        <time>2012-03-11T09:15:02Z</time>
      </trkpt>
      <trkpt lat="43.62513" lon="6.83132">
        <ele>181.83</ele>
        <time>2012-03-11T09:15:21Z</time>
      </trkpt>
      <trkpt lat="43.62524" lon="6.83207">
        <ele>192.4</ele>
        <time>2012-03-11T09:15:40Z</time>
      </trkpt>
      <trkpt lat="43.62543" lon="6.83254">
        <ele>202.98</ele>
        <time>2012-03-11T09:15:54Z</time>
      </trkpt>
      <trkpt lat="43.6256" lon="6.83323">
        <ele>210.67</ele>
        <time>2012-03-11T09:16:13Z</time>
      </trkpt>
      <trkpt lat="43.62576" lon="6.83386">
        <ele>223.16</ele>
        <time>2012-03-11T09:16:31Z</time>
      </trkpt>
      <trkpt lat="43.62604" lon="6.83445">
        <ele>234.22</ele>
        <time>2012-03-11T09:16:51Z</time>
      </trkpt>
      <trkpt lat="43.62632" lon="6.83501">
        <ele>249.12</ele>
        <time>2012-03-11T09:17:09Z</time>
      </trkpt>
      <trkpt lat="43.62661" lon="6.8355">
        <ele>260.65</ele>
        <time>2012-03-11T09:17:25Z</time>
      </trkpt>
      <trkpt lat="43.62693" lon="6.8361">
        <ele>277.96</ele>
        <time>2012-03-11T09:17:45Z</time>
      </trkpt>
      <trkpt lat="43.62726" lon="6.83659">
        <ele>292.86</ele>
        <time>2012-03-11T09:18:03Z</time>
      </trkpt>
      <trkpt lat="43.62764" lon="6.83697">
        <ele>298.63</ele>
        <time>2012-03-11T09:18:22Z</time>
      </trkpt>
      <trkpt lat="43.62806" lon="6.83719">
        <ele>299.11</ele>
        <time>2012-03-11T09:18:35Z</time>
      </trkpt>
      <trkpt lat="43.62843" lon="6.8378">
        <ele>308.72</ele>
        <time>2012-03-11T09:18:49Z</time>
      </trkpt>
      <trkpt lat="43.6287" lon="6.83831">
        <ele>325.54</ele>
        <time>2012-03-11T09:19:03Z</time>
      </trkpt>
      <trkpt lat="43.6289" lon="6.83879">
        <ele>338.04</ele>
        <time>2012-03-11T09:19:16Z</time>
      </trkpt>
      <trkpt lat="43.62911" lon="6.8393">
        <ele>355.34</ele>
        <time>2012-03-11T09:19:32Z</time>
      </trkpt>
      <trkpt lat="43.62944" lon="6.83961">
        <ele>362.07</ele>
        <time>2012-03-11T09:19:47Z</time>
      </trkpt>
      <trkpt lat="43.63003" lon="6.83991">
        <ele>352.46</ele>
        <time>2012-03-11T09:20:08Z</time>
      </trkpt>
      <trkpt lat="43.63062" lon="6.84011">
        <ele>339</ele>
        <time>2012-03-11T09:20:22Z</time>
      </trkpt>
      <trkpt lat="43.63067" lon="6.84013">
        <ele>337.56</ele>
        <time>2012-03-11T09:20:23Z</time>
      </trkpt>
      <trkpt lat="43.63111" lon="6.84067">
        <ele>334.68</ele>
        <time>2012-03-11T09:20:38Z</time>
      </trkpt>
      <trkpt lat="43.63137" lon="6.84126">
        <ele>342.37</ele>
        <time>2012-03-11T09:20:54Z</time>
      </trkpt>
      <trkpt lat="43.6314" lon="6.84132">
        <ele>343.33</ele>
        <time>2012-03-11T09:20:56Z</time>
      </trkpt>
      <trkpt lat="43.63122" lon="6.84151">
        <ele>348.62</ele>
        <time>2012-03-11T09:21:05Z</time>
      </trkpt>
      <trkpt lat="43.6308" lon="6.84135">
        <ele>326.99</ele>
        <time>2012-03-11T09:21:24Z</time>
      </trkpt>
      <trkpt lat="43.63039" lon="6.84118">
        <ele>306.8</ele>
        <time>2012-03-11T09:21:42Z</time>
      </trkpt>
      <trkpt lat="43.63015" lon="6.84137">
        <ele>298.63</ele>
        <time>2012-03-11T09:21:56Z</time>
      </trkpt>
      <trkpt lat="43.62995" lon="6.84165">
        <ele>294.3</ele>
        <time>2012-03-11T09:22:09Z</time>
      </trkpt>
      <trkpt lat="43.62962" lon="6.84158">
        <ele>283.25</ele>
        <time>2012-03-11T09:22:25Z</time>
      </trkpt>
      <trkpt lat="43.62964" lon="6.8417">
        <ele>281.32</ele>
        <time>2012-03-11T09:22:31Z</time>
      </trkpt>
      <trkpt lat="43.62993" lon="6.84186">
        <ele>269.79</ele>
        <time>2012-03-11T09:22:49Z</time>
      </trkpt>
      <trkpt lat="43.63017" lon="6.84182">
        <ele>267.86</ele>
        <time>2012-03-11T09:23:00Z</time>
      </trkpt>
      <trkpt lat="43.63048" lon="6.84161">
        <ele>260.65</ele>
        <time>2012-03-11T09:23:15Z</time>
      </trkpt>
      <trkpt lat="43.63068" lon="6.84181">
        <ele>264.02</ele>
        <time>2012-03-11T09:23:29Z</time>
      </trkpt>
      <trkpt lat="43.63084" lon="6.8421">
        <ele>264.98</ele>
        <time>2012-03-11T09:23:42Z</time>
      </trkpt>
      <trkpt lat="43.63082" lon="6.84214">
        <ele>263.54</ele>
        <time>2012-03-11T09:23:50Z</time>
      </trkpt>
      <trkpt lat="43.63095" lon="6.84234">
        <ele>268.83</ele>
        <time>2012-03-11T09:24:05Z</time>
      </trkpt>
      <trkpt lat="43.63095" lon="6.84244">
        <ele>274.59</ele>
        <time>2012-03-11T09:24:17Z</time>
      </trkpt>
      <trkpt lat="43.63095" lon="6.84247">
        <ele>274.59</ele>
        <time>2012-03-11T09:24:27Z</time>
      </trkpt>
      <trkpt lat="43.63094" lon="6.84254">
        <ele>268.83</ele>
        <time>2012-03-11T09:24:38Z</time>
      </trkpt>
      <trkpt lat="43.63087" lon="6.84257">
        <ele>266.9</ele>
        <time>2012-03-11T09:24:43Z</time>
      </trkpt>
      <trkpt lat="43.63085" lon="6.84265">
        <ele>267.86</ele>
        <time>2012-03-11T09:24:47Z</time>
      </trkpt>
      <trkpt lat="43.63087" lon="6.84271">
        <ele>268.35</ele>
        <time>2012-03-11T09:24:50Z</time>
      </trkpt>
      <trkpt lat="43.63088" lon="6.84308">
        <ele>266.42</ele>
        <time>2012-03-11T09:25:05Z</time>
      </trkpt>
      <trkpt lat="43.63072" lon="6.84327">
        <ele>259.69</ele>
        <time>2012-03-11T09:25:16Z</time>
      </trkpt>
      <trkpt lat="43.63047" lon="6.84356">
        <ele>252.96</ele>
        <time>2012-03-11T09:25:24Z</time>
      </trkpt>
      <trkpt lat="43.63029" lon="6.84389">
        <ele>247.2</ele>
        <time>2012-03-11T09:25:31Z</time>
      </trkpt>
      <trkpt lat="43.63028" lon="6.84394">
        <ele>246.72</ele>
        <time>2012-03-11T09:25:32Z</time>
      </trkpt>
      <trkpt lat="43.63037" lon="6.84446">
        <ele>245.27</ele>
        <time>2012-03-11T09:25:42Z</time>
      </trkpt>
      <trkpt lat="43.63044" lon="6.84463">
        <ele>244.31</ele>
        <time>2012-03-11T09:25:45Z</time>
      </trkpt>
      <trkpt lat="43.6305" lon="6.84498">
        <ele>242.87</ele>
        <time>2012-03-11T09:25:50Z</time>
      </trkpt>
      <trkpt lat="43.63048" lon="6.84533">
        <ele>240.47</ele>
        <time>2012-03-11T09:25:54Z</time>
      </trkpt>
      <trkpt lat="43.63012" lon="6.84596">
        <ele>237.58</ele>
        <time>2012-03-11T09:26:03Z</time>
      </trkpt>
      <trkpt lat="43.62958" lon="6.84618">
        <ele>236.62</ele>
        <time>2012-03-11T09:26:16Z</time>
      </trkpt>
      <trkpt lat="43.62912" lon="6.84619">
        <ele>240.47</ele>
        <time>2012-03-11T09:26:32Z</time>
      </trkpt>
      <trkpt lat="43.62865" lon="6.84612">
        <ele>245.27</ele>
        <time>2012-03-11T09:26:47Z</time>
      </trkpt>
      <trkpt lat="43.62804" lon="6.84615">
        <ele>245.27</ele>
        <time>2012-03-11T09:27:04Z</time>
      </trkpt>
      <trkpt lat="43.62793" lon="6.84619">
        <ele>244.79</ele>
        <time>2012-03-11T09:27:07Z</time>
      </trkpt>
      <trkpt lat="43.62772" lon="6.84618">
        <ele>242.39</ele>
        <time>2012-03-11T09:27:11Z</time>
      </trkpt>
      <trkpt lat="43.62756" lon="6.84613">
        <ele>241.43</ele>
        <time>2012-03-11T09:27:14Z</time>
      </trkpt>
      <trkpt lat="43.62731" lon="6.84618">
        <ele>239.99</ele>
        <time>2012-03-11T09:27:18Z</time>
      </trkpt>
      <trkpt lat="43.62712" lon="6.84627">
        <ele>239.02</ele>
        <time>2012-03-11T09:27:21Z</time>
      </trkpt>
      <trkpt lat="43.62666" lon="6.84624">
        <ele>238.06</ele>
        <time>2012-03-11T09:27:29Z</time>
      </trkpt>
      <trkpt lat="43.6266" lon="6.84651">
        <ele>239.51</ele>
        <time>2012-03-11T09:27:35Z</time>
      </trkpt>
      <trkpt lat="43.62668" lon="6.84661">
        <ele>239.51</ele>
        <time>2012-03-11T09:27:37Z</time>
      </trkpt>
      <trkpt lat="43.62683" lon="6.84685">
        <ele>239.51</ele>
        <time>2012-03-11T09:27:41Z</time>
      </trkpt>
      <trkpt lat="43.6271" lon="6.84708">
        <ele>237.58</ele>
        <time>2012-03-11T09:27:46Z</time>
      </trkpt>
      <trkpt lat="43.62755" lon="6.84712">
        <ele>233.74</ele>
        <time>2012-03-11T09:27:56Z</time>
      </trkpt>
      <trkpt lat="43.62772" lon="6.84702">
        <ele>233.74</ele>
        <time>2012-03-11T09:28:00Z</time>
      </trkpt>
      <trkpt lat="43.62807" lon="6.84709">
        <ele>228.45</ele>
        <time>2012-03-11T09:28:08Z</time>
      </trkpt>
      <trkpt lat="43.6281" lon="6.84709">
        <ele>227.97</ele>
        <time>2012-03-11T09:28:09Z</time>
      </trkpt>
      <trkpt lat="43.62823" lon="6.84709">
        <ele>226.05</ele>
        <time>2012-03-11T09:28:12Z</time>
      </trkpt>
      <trkpt lat="43.62834" lon="6.8471">
        <ele>225.09</ele>
        <time>2012-03-11T09:28:14Z</time>
      </trkpt>
      <trkpt lat="43.62863" lon="6.84707">
        <ele>224.12</ele>
        <time>2012-03-11T09:28:22Z</time>
      </trkpt>
      <trkpt lat="43.62883" lon="6.84709">
        <ele>223.64</ele>
        <time>2012-03-11T09:28:27Z</time>
      </trkpt>
      <trkpt lat="43.62889" lon="6.84714">
        <ele>223.64</ele>
        <time>2012-03-11T09:28:29Z</time>
      </trkpt>
      <trkpt lat="43.62916" lon="6.84732">
        <ele>219.32</ele>
        <time>2012-03-11T09:28:38Z</time>
      </trkpt>
      <trkpt lat="43.62946" lon="6.84759">
        <ele>209.7</ele>
        <time>2012-03-11T09:28:46Z</time>
      </trkpt>
      <trkpt lat="43.6295" lon="6.84759">
        <ele>209.22</ele>
        <time>2012-03-11T09:28:47Z</time>
      </trkpt>
      <trkpt lat="43.63027" lon="6.84769">
        <ele>208.74</ele>
        <time>2012-03-11T09:29:02Z</time>
      </trkpt>
      <trkpt lat="43.63036" lon="6.8477">
        <ele>208.74</ele>
        <time>2012-03-11T09:29:04Z</time>
      </trkpt>
      <trkpt lat="43.63054" lon="6.84802">
        <ele>212.59</ele>
        <time>2012-03-11T09:29:13Z</time>
      </trkpt>
      <trkpt lat="43.63037" lon="6.84835">
        <ele>215.47</ele>
        <time>2012-03-11T09:29:28Z</time>
      </trkpt>
      <trkpt lat="43.6301" lon="6.84841">
        <ele>214.03</ele>
        <time>2012-03-11T09:29:35Z</time>
      </trkpt>
      <trkpt lat="43.62987" lon="6.84851">
        <ele>212.11</ele>
        <time>2012-03-11T09:29:40Z</time>
      </trkpt>
      <trkpt lat="43.62969" lon="6.84865">
        <ele>210.67</ele>
        <time>2012-03-11T09:29:44Z</time>
      </trkpt>
      <trkpt lat="43.62948" lon="6.84891">
        <ele>210.19</ele>
        <time>2012-03-11T09:29:51Z</time>
      </trkpt>
      <trkpt lat="43.6291" lon="6.84943">
        <ele>211.15</ele>
        <time>2012-03-11T09:30:05Z</time>
      </trkpt>
      <trkpt lat="43.62877" lon="6.85">
        <ele>213.07</ele>
        <time>2012-03-11T09:30:22Z</time>
      </trkpt>
      <trkpt lat="43.62856" lon="6.85056">
        <ele>219.8</ele>
        <time>2012-03-11T09:30:41Z</time>
      </trkpt>
      <trkpt lat="43.62836" lon="6.85108">
        <ele>223.64</ele>
        <time>2012-03-11T09:30:59Z</time>
      </trkpt>
      <trkpt lat="43.62823" lon="6.85162">
        <ele>228.93</ele>
        <time>2012-03-11T09:31:17Z</time>
      </trkpt>
      <trkpt lat="43.62815" lon="6.85206">
        <ele>232.78</ele>
        <time>2012-03-11T09:31:34Z</time>
      </trkpt>
      <trkpt lat="43.62811" lon="6.85257">
        <ele>237.58</ele>
        <time>2012-03-11T09:31:52Z</time>
      </trkpt>
      <trkpt lat="43.62807" lon="6.85304">
        <ele>240.47</ele>
        <time>2012-03-11T09:32:09Z</time>
      </trkpt>
      <trkpt lat="43.62782" lon="6.85332">
        <ele>238.06</ele>
        <time>2012-03-11T09:32:22Z</time>
      </trkpt>
      <trkpt lat="43.6277" lon="6.85339">
        <ele>237.1</ele>
        <time>2012-03-11T09:32:25Z</time>
      </trkpt>
      <trkpt lat="43.62754" lon="6.85358">
        <ele>235.66</ele>
        <time>2012-03-11T09:32:29Z</time>
      </trkpt>
      <trkpt lat="43.62718" lon="6.85399">
        <ele>237.1</ele>
        <time>2012-03-11T09:32:44Z</time>
      </trkpt>
      <trkpt lat="43.62706" lon="6.85416">
        <ele>238.54</ele>
        <time>2012-03-11T09:32:58Z</time>
      </trkpt>
      <trkpt lat="43.62706" lon="6.85416">
        <ele>238.54</ele>
        <time>2012-03-11T09:33:17Z</time>
      </trkpt>
      <trkpt lat="43.62685" lon="6.85432">
        <ele>237.1</ele>
        <time>2012-03-11T09:33:29Z</time>
      </trkpt>
      <trkpt lat="43.62658" lon="6.8547">
        <ele>235.66</ele>
        <time>2012-03-11T09:33:40Z</time>
      </trkpt>
      <trkpt lat="43.62633" lon="6.85505">
        <ele>236.62</ele>
        <time>2012-03-11T09:33:52Z</time>
      </trkpt>
      <trkpt lat="43.62622" lon="6.85537">
        <ele>235.66</ele>
        <time>2012-03-11T09:33:59Z</time>
      </trkpt>
      <trkpt lat="43.62617" lon="6.85567">
        <ele>232.78</ele>
        <time>2012-03-11T09:34:03Z</time>
      </trkpt>
      <trkpt lat="43.62609" lon="6.85598">
        <ele>231.81</ele>
        <time>2012-03-11T09:34:07Z</time>
      </trkpt>
      <trkpt lat="43.62603" lon="6.8562">
        <ele>230.85</ele>
        <time>2012-03-11T09:34:10Z</time>
      </trkpt>
      <trkpt lat="43.62604" lon="6.85644">
        <ele>228.93</ele>
        <time>2012-03-11T09:34:13Z</time>
      </trkpt>
      <trkpt lat="43.62596" lon="6.85676">
        <ele>225.57</ele>
        <time>2012-03-11T09:34:17Z</time>
      </trkpt>
      <trkpt lat="43.62596" lon="6.8571">
        <ele>221.72</ele>
        <time>2012-03-11T09:34:21Z</time>
      </trkpt>
      <trkpt lat="43.62588" lon="6.85767">
        <ele>215.47</ele>
        <time>2012-03-11T09:34:29Z</time>
      </trkpt>
      <trkpt lat="43.62588" lon="6.85776">
        <ele>214.51</ele>
        <time>2012-03-11T09:34:30Z</time>
      </trkpt>
      <trkpt lat="43.62592" lon="6.85818">
        <ele>212.11</ele>
        <time>2012-03-11T09:34:34Z</time>
      </trkpt>
      <trkpt lat="43.62603" lon="6.85886">
        <ele>209.7</ele>
        <time>2012-03-11T09:34:42Z</time>
      </trkpt>
      <trkpt lat="43.6263" lon="6.85956">
        <ele>206.34</ele>
        <time>2012-03-11T09:34:53Z</time>
      </trkpt>
      <trkpt lat="43.62633" lon="6.85957">
        <ele>207.78</ele>
        <time>2012-03-11T09:35:02Z</time>
      </trkpt>
      <trkpt lat="43.62643" lon="6.85975">
        <ele>209.22</ele>
        <time>2012-03-11T09:35:13Z</time>
      </trkpt>
      <trkpt lat="43.62668" lon="6.86022">
        <ele>210.67</ele>
        <time>2012-03-11T09:35:27Z</time>
      </trkpt>
      <trkpt lat="43.62693" lon="6.86061">
        <ele>210.67</ele>
        <time>2012-03-11T09:35:39Z</time>
      </trkpt>
      <trkpt lat="43.62672" lon="6.86092">
        <ele>207.78</ele>
        <time>2012-03-11T09:35:46Z</time>
      </trkpt>
      <trkpt lat="43.6264" lon="6.86083">
        <ele>203.46</ele>
        <time>2012-03-11T09:35:51Z</time>
      </trkpt>
      <trkpt lat="43.62627" lon="6.86072">
        <ele>202.49</ele>
        <time>2012-03-11T09:35:53Z</time>
      </trkpt>
      <trkpt lat="43.62565" lon="6.86004">
        <ele>198.65</ele>
        <time>2012-03-11T09:36:05Z</time>
      </trkpt>
      <trkpt lat="43.62526" lon="6.85915">
        <ele>195.77</ele>
        <time>2012-03-11T09:36:18Z</time>
      </trkpt>
      <trkpt lat="43.62514" lon="6.85798">
        <ele>194.32</ele>
        <time>2012-03-11T09:36:33Z</time>
      </trkpt>
      <trkpt lat="43.62521" lon="6.85701">
        <ele>191.92</ele>
        <time>2012-03-11T09:36:46Z</time>
      </trkpt>
      <trkpt lat="43.62524" lon="6.85664">
        <ele>190.96</ele>
        <time>2012-03-11T09:36:51Z</time>
      </trkpt>
      <trkpt lat="43.62521" lon="6.8563">
        <ele>190.96</ele>
        <time>2012-03-11T09:36:56Z</time>
      </trkpt>
      <trkpt lat="43.62508" lon="6.85565">
        <ele>189.04</ele>
        <time>2012-03-11T09:37:05Z</time>
      </trkpt>
      <trkpt lat="43.625" lon="6.8553">
        <ele>187.11</ele>
        <time>2012-03-11T09:37:10Z</time>
      </trkpt>
      <trkpt lat="43.62496" lon="6.85508">
        <ele>186.15</ele>
        <time>2012-03-11T09:37:13Z</time>
      </trkpt>
      <trkpt lat="43.62469" lon="6.85438">
        <ele>185.67</ele>
        <time>2012-03-11T09:37:24Z</time>
      </trkpt>
      <trkpt lat="43.62462" lon="6.85394">
        <ele>184.71</ele>
        <time>2012-03-11T09:37:32Z</time>
      </trkpt>
      <trkpt lat="43.62454" lon="6.85405">
        <ele>185.67</ele>
        <time>2012-03-11T09:37:36Z</time>
      </trkpt>
      <trkpt lat="43.62438" lon="6.85435">
        <ele>185.67</ele>
        <time>2012-03-11T09:37:43Z</time>
      </trkpt>
      <trkpt lat="43.62411" lon="6.85478">
        <ele>183.27</ele>
        <time>2012-03-11T09:37:52Z</time>
      </trkpt>
      <trkpt lat="43.62397" lon="6.85492">
        <ele>181.83</ele>
        <time>2012-03-11T09:37:55Z</time>
      </trkpt>
      <trkpt lat="43.62374" lon="6.85488">
        <ele>179.9</ele>
        <time>2012-03-11T09:38:03Z</time>
      </trkpt>
      <trkpt lat="43.62373" lon="6.85477">
        <ele>178.94</ele>
        <time>2012-03-11T09:38:05Z</time>
      </trkpt>
      <trkpt lat="43.62365" lon="6.85435">
        <ele>173.66</ele>
        <time>2012-03-11T09:38:11Z</time>
      </trkpt>
      <trkpt lat="43.62353" lon="6.85373">
        <ele>166.93</ele>
        <time>2012-03-11T09:38:23Z</time>
      </trkpt>
      <trkpt lat="43.62353" lon="6.85373">
        <ele>166.93</ele>
        <time>2012-03-11T09:38:33Z</time>
      </trkpt>
      <trkpt lat="43.62345" lon="6.85358">
        <ele>165</ele>
        <time>2012-03-11T09:38:40Z</time>
      </trkpt>
      <trkpt lat="43.62321" lon="6.85344">
        <ele>157.31</ele>
        <time>2012-03-11T09:38:50Z</time>
      </trkpt>
      <trkpt lat="43.62299" lon="6.85334">
        <ele>155.87</ele>
        <time>2012-03-11T09:38:56Z</time>
      </trkpt>
      <trkpt lat="43.62292" lon="6.85327">
        <ele>155.87</ele>
        <time>2012-03-11T09:38:58Z</time>
      </trkpt>
      <trkpt lat="43.62273" lon="6.85304">
        <ele>156.83</ele>
        <time>2012-03-11T09:39:06Z</time>
      </trkpt>
      <trkpt lat="43.6227" lon="6.85301">
        <ele>156.83</ele>
        <time>2012-03-11T09:39:07Z</time>
      </trkpt>
      <trkpt lat="43.62228" lon="6.85284">
        <ele>156.35</ele>
        <time>2012-03-11T09:39:17Z</time>
      </trkpt>
      <trkpt lat="43.62218" lon="6.85264">
        <ele>157.31</ele>
        <time>2012-03-11T09:39:26Z</time>
      </trkpt>
      <trkpt lat="43.62219" lon="6.85263">
        <ele>157.79</ele>
        <time>2012-03-11T09:39:30Z</time>
      </trkpt>
      <trkpt lat="43.6221" lon="6.85243">
        <ele>163.56</ele>
        <time>2012-03-11T09:39:40Z</time>
      </trkpt>
      <trkpt lat="43.62188" lon="6.85214">
        <ele>165.96</ele>
        <time>2012-03-11T09:39:52Z</time>
      </trkpt>
      <trkpt lat="43.62159" lon="6.85199">
        <ele>159.72</ele>
        <time>2012-03-11T09:40:01Z</time>
      </trkpt>
      <trkpt lat="43.6213" lon="6.85236">
        <ele>152.51</ele>
        <time>2012-03-11T09:40:12Z</time>
      </trkpt>
      <trkpt lat="43.62123" lon="6.85243">
        <ele>152.03</ele>
        <time>2012-03-11T09:40:21Z</time>
      </trkpt>
      <trkpt lat="43.6212" lon="6.85247">
        <ele>152.51</ele>
        <time>2012-03-11T09:40:28Z</time>
      </trkpt>
      <trkpt lat="43.62115" lon="6.85251">
        <ele>152.03</ele>
        <time>2012-03-11T09:40:32Z</time>
      </trkpt>
      <trkpt lat="43.6211" lon="6.85243">
        <ele>154.43</ele>
        <time>2012-03-11T09:40:41Z</time>
      </trkpt>
      <trkpt lat="43.62078" lon="6.8524">
        <ele>155.39</ele>
        <time>2012-03-11T09:40:51Z</time>
      </trkpt>
      <trkpt lat="43.62052" lon="6.85231">
        <ele>152.99</ele>
        <time>2012-03-11T09:40:58Z</time>
      </trkpt>
      <trkpt lat="43.62039" lon="6.85221">
        <ele>151.06</ele>
        <time>2012-03-11T09:41:01Z</time>
      </trkpt>
      <trkpt lat="43.62021" lon="6.85183">
        <ele>146.26</ele>
        <time>2012-03-11T09:41:11Z</time>
      </trkpt>
      <trkpt lat="43.62014" lon="6.85164">
        <ele>145.3</ele>
        <time>2012-03-11T09:41:19Z</time>
      </trkpt>
      <trkpt lat="43.62014" lon="6.85164">
        <ele>145.3</ele>
        <time>2012-03-11T09:41:20Z</time>
      </trkpt>
      <trkpt lat="43.62013" lon="6.85164">
        <ele>145.3</ele>
        <time>2012-03-11T09:41:22Z</time>
      </trkpt>
      <trkpt lat="43.62011" lon="6.85159">
        <ele>145.3</ele>
        <time>2012-03-11T09:41:26Z</time>
      </trkpt>
      <trkpt lat="43.62009" lon="6.85149">
        <ele>145.3</ele>
        <time>2012-03-11T09:41:29Z</time>
      </trkpt>
      <trkpt lat="43.61987" lon="6.85109">
        <ele>145.78</ele>
        <time>2012-03-11T09:41:37Z</time>
      </trkpt>
      <trkpt lat="43.61983" lon="6.85103">
        <ele>146.26</ele>
        <time>2012-03-11T09:41:38Z</time>
      </trkpt>
      <trkpt lat="43.61971" lon="6.85085">
        <ele>147.22</ele>
        <time>2012-03-11T09:41:42Z</time>
      </trkpt>
      <trkpt lat="43.61944" lon="6.85077">
        <ele>147.7</ele>
        <time>2012-03-11T09:41:49Z</time>
      </trkpt>
      <trkpt lat="43.61916" lon="6.85072">
        <ele>145.3</ele>
        <time>2012-03-11T09:41:54Z</time>
      </trkpt>
      <trkpt lat="43.61895" lon="6.85056">
        <ele>142.41</ele>
        <time>2012-03-11T09:41:59Z</time>
      </trkpt>
      <trkpt lat="43.61873" lon="6.85018">
        <ele>135.68</ele>
        <time>2012-03-11T09:42:09Z</time>
      </trkpt>
      <trkpt lat="43.61869" lon="6.85013">
        <ele>134.72</ele>
        <time>2012-03-11T09:42:11Z</time>
      </trkpt>
      <trkpt lat="43.61836" lon="6.85011">
        <ele>128.47</ele>
        <time>2012-03-11T09:42:20Z</time>
      </trkpt>
      <trkpt lat="43.61825" lon="6.85015">
        <ele>126.55</ele>
        <time>2012-03-11T09:42:22Z</time>
      </trkpt>
      <trkpt lat="43.61807" lon="6.85016">
        <ele>122.71</ele>
        <time>2012-03-11T09:42:26Z</time>
      </trkpt>
      <trkpt lat="43.61795" lon="6.85011">
        <ele>119.34</ele>
        <time>2012-03-11T09:42:34Z</time>
      </trkpt>
      <trkpt lat="43.61788" lon="6.8501">
        <ele>118.38</ele>
        <time>2012-03-11T09:42:40Z</time>
      </trkpt>
      <trkpt lat="43.61764" lon="6.8501">
        <ele>115.98</ele>
        <time>2012-03-11T09:42:48Z</time>
      </trkpt>
      <trkpt lat="43.61742" lon="6.85024">
        <ele>114.05</ele>
        <time>2012-03-11T09:42:54Z</time>
      </trkpt>
      <trkpt lat="43.61714" lon="6.85013">
        <ele>115.01</ele>
        <time>2012-03-11T09:43:01Z</time>
      </trkpt>
      <trkpt lat="43.61691" lon="6.84989">
        <ele>115.98</ele>
        <time>2012-03-11T09:43:07Z</time>
      </trkpt>
      <trkpt lat="43.61652" lon="6.8496">
        <ele>115.5</ele>
        <time>2012-03-11T09:43:14Z</time>
      </trkpt>
      <trkpt lat="43.61635" lon="6.84952">
        <ele>113.57</ele>
        <time>2012-03-11T09:43:18Z</time>
      </trkpt>
      <trkpt lat="43.61579" lon="6.84935">
        <ele>107.81</ele>
        <time>2012-03-11T09:43:28Z</time>
      </trkpt>
      <trkpt lat="43.61565" lon="6.84929">
        <ele>106.36</ele>
        <time>2012-03-11T09:43:30Z</time>
      </trkpt>
      <trkpt lat="43.61513" lon="6.84916">
        <ele>100.6</ele>
        <time>2012-03-11T09:43:39Z</time>
      </trkpt>
      <trkpt lat="43.61497" lon="6.84902">
        <ele>101.08</ele>
        <time>2012-03-11T09:43:45Z</time>
      </trkpt>
      <trkpt lat="43.61485" lon="6.84893">
        <ele>103.48</ele>
        <time>2012-03-11T09:43:50Z</time>
      </trkpt>
      <trkpt lat="43.61475" lon="6.8485">
        <ele>111.65</ele>
        <time>2012-03-11T09:44:02Z</time>
      </trkpt>
      <trkpt lat="43.61475" lon="6.84793">
        <ele>117.42</ele>
        <time>2012-03-11T09:44:14Z</time>
      </trkpt>
      <trkpt lat="43.61484" lon="6.84733">
        <ele>124.63</ele>
        <time>2012-03-11T09:44:26Z</time>
      </trkpt>
      <trkpt lat="43.61477" lon="6.84691">
        <ele>121.74</ele>
        <time>2012-03-11T09:44:35Z</time>
      </trkpt>
      <trkpt lat="43.61466" lon="6.84663">
        <ele>116.94</ele>
        <time>2012-03-11T09:44:40Z</time>
      </trkpt>
      <trkpt lat="43.6143" lon="6.8464">
        <ele>105.4</ele>
        <time>2012-03-11T09:44:51Z</time>
      </trkpt>
      <trkpt lat="43.61423" lon="6.84633">
        <ele>103</ele>
        <time>2012-03-11T09:44:55Z</time>
      </trkpt>
      <trkpt lat="43.61418" lon="6.84631">
        <ele>102.04</ele>
        <time>2012-03-11T09:44:57Z</time>
      </trkpt>
      <trkpt lat="43.61394" lon="6.84611">
        <ele>97.23</ele>
        <time>2012-03-11T09:45:04Z</time>
      </trkpt>
      <trkpt lat="43.61374" lon="6.84572">
        <ele>92.9</ele>
        <time>2012-03-11T09:45:13Z</time>
      </trkpt>
      <trkpt lat="43.61371" lon="6.84559">
        <ele>90.98</ele>
        <time>2012-03-11T09:45:16Z</time>
      </trkpt>
      <trkpt lat="43.61366" lon="6.8454">
        <ele>86.66</ele>
        <time>2012-03-11T09:45:21Z</time>
      </trkpt>
      <trkpt lat="43.61345" lon="6.84512">
        <ele>77.04</ele>
        <time>2012-03-11T09:45:32Z</time>
      </trkpt>
      <trkpt lat="43.61329" lon="6.84504">
        <ele>71.27</ele>
        <time>2012-03-11T09:45:41Z</time>
      </trkpt>
      <trkpt lat="43.61327" lon="6.84502">
        <ele>70.79</ele>
        <time>2012-03-11T09:45:47Z</time>
      </trkpt>
      <trkpt lat="43.61313" lon="6.84485">
        <ele>68.87</ele>
        <time>2012-03-11T09:45:56Z</time>
      </trkpt>
      <trkpt lat="43.61312" lon="6.84472">
        <ele>68.39</ele>
        <time>2012-03-11T09:46:00Z</time>
      </trkpt>
      <trkpt lat="43.61304" lon="6.84437">
        <ele>69.35</ele>
        <time>2012-03-11T09:46:08Z</time>
      </trkpt>
      <trkpt lat="43.61304" lon="6.84427">
        <ele>69.83</ele>
        <time>2012-03-11T09:46:10Z</time>
      </trkpt>
      <trkpt lat="43.61279" lon="6.8441">
        <ele>71.27</ele>
        <time>2012-03-11T09:46:19Z</time>
      </trkpt>
      <trkpt lat="43.61276" lon="6.84409">
        <ele>71.76</ele>
        <time>2012-03-11T09:46:20Z</time>
      </trkpt>
      <trkpt lat="43.6126" lon="6.84418">
        <ele>78.48</ele>
        <time>2012-03-11T09:46:30Z</time>
      </trkpt>
      <trkpt lat="43.61251" lon="6.84421">
        <ele>82.81</ele>
        <time>2012-03-11T09:46:35Z</time>
      </trkpt>
      <trkpt lat="43.61237" lon="6.84423">
        <ele>88.1</ele>
        <time>2012-03-11T09:46:43Z</time>
      </trkpt>
      <trkpt lat="43.61207" lon="6.84425">
        <ele>96.75</ele>
        <time>2012-03-11T09:46:57Z</time>
      </trkpt>
      <trkpt lat="43.61187" lon="6.84426">
        <ele>99.15</ele>
        <time>2012-03-11T09:47:04Z</time>
      </trkpt>
      <trkpt lat="43.61122" lon="6.84456">
        <ele>91.94</ele>
        <time>2012-03-11T09:47:17Z</time>
      </trkpt>
      <trkpt lat="43.61118" lon="6.84459">
        <ele>90.98</ele>
        <time>2012-03-11T09:47:18Z</time>
      </trkpt>
      <trkpt lat="43.61094" lon="6.84483">
        <ele>86.18</ele>
        <time>2012-03-11T09:47:24Z</time>
      </trkpt>
      <trkpt lat="43.61076" lon="6.84495">
        <ele>82.33</ele>
        <time>2012-03-11T09:47:33Z</time>
      </trkpt>
      <trkpt lat="43.61076" lon="6.84495">
        <ele>82.33</ele>
        <time>2012-03-11T09:47:36Z</time>
      </trkpt>
      <trkpt lat="43.61066" lon="6.84495">
        <ele>82.81</ele>
        <time>2012-03-11T09:47:41Z</time>
      </trkpt>
      <trkpt lat="43.61038" lon="6.84485">
        <ele>86.66</ele>
        <time>2012-03-11T09:47:51Z</time>
      </trkpt>
      <trkpt lat="43.61035" lon="6.84489">
        <ele>88.58</ele>
        <time>2012-03-11T09:48:03Z</time>
      </trkpt>
      <trkpt lat="43.61035" lon="6.84489">
        <ele>88.58</ele>
        <time>2012-03-11T09:48:17Z</time>
      </trkpt>
      <trkpt lat="43.61035" lon="6.8449">
        <ele>88.58</ele>
        <time>2012-03-11T09:48:39Z</time>
      </trkpt>
      <trkpt lat="43.61035" lon="6.8449">
        <ele>88.58</ele>
        <time>2012-03-11T09:48:53Z</time>
      </trkpt>
      <trkpt lat="43.61035" lon="6.8449">
        <ele>88.58</ele>
        <time>2012-03-11T09:49:08Z</time>
      </trkpt>
      <trkpt lat="43.61034" lon="6.84491">
        <ele>89.06</ele>
        <time>2012-03-11T09:49:26Z</time>
      </trkpt>
      <trkpt lat="43.61034" lon="6.84491">
        <ele>89.06</ele>
        <time>2012-03-11T09:49:47Z</time>
      </trkpt>
      <trkpt lat="43.61033" lon="6.84493">
        <ele>88.58</ele>
        <time>2012-03-11T09:50:05Z</time>
      </trkpt>
      <trkpt lat="43.61033" lon="6.84493">
        <ele>88.58</ele>
        <time>2012-03-11T09:50:19Z</time>
      </trkpt>
      <trkpt lat="43.61033" lon="6.84493">
        <ele>88.58</ele>
        <time>2012-03-11T09:50:39Z</time>
      </trkpt>
      <trkpt lat="43.61033" lon="6.84493">
        <ele>88.58</ele>
        <time>2012-03-11T09:50:55Z</time>
      </trkpt>
      <trkpt lat="43.61033" lon="6.84493">
        <ele>88.58</ele>
        <time>2012-03-11T09:51:11Z</time>
      </trkpt>
      <trkpt lat="43.61033" lon="6.84494">
        <ele>88.1</ele>
        <time>2012-03-11T09:51:24Z</time>
      </trkpt>
      <trkpt lat="43.61033" lon="6.84494">
        <ele>88.1</ele>
        <time>2012-03-11T09:51:43Z</time>
      </trkpt>
      <trkpt lat="43.61032" lon="6.84496">
        <ele>87.62</ele>
        <time>2012-03-11T09:52:01Z</time>
      </trkpt>
      <trkpt lat="43.61031" lon="6.84496">
        <ele>86.66</ele>
        <time>2012-03-11T09:52:27Z</time>
      </trkpt>
      <trkpt lat="43.61031" lon="6.84497">
        <ele>86.18</ele>
        <time>2012-03-11T09:52:40Z</time>
      </trkpt>
      <trkpt lat="43.61031" lon="6.84497">
        <ele>85.69</ele>
        <time>2012-03-11T09:53:08Z</time>
      </trkpt>
      <trkpt lat="43.61031" lon="6.84497">
        <ele>85.69</ele>
        <time>2012-03-11T09:53:27Z</time>
      </trkpt>
      <trkpt lat="43.61029" lon="6.84496">
        <ele>84.25</ele>
        <time>2012-03-11T09:53:48Z</time>
      </trkpt>
      <trkpt lat="43.61029" lon="6.84496">
        <ele>84.25</ele>
        <time>2012-03-11T09:54:14Z</time>
      </trkpt>
      <trkpt lat="43.61028" lon="6.84496">
        <ele>83.29</ele>
        <time>2012-03-11T09:54:42Z</time>
      </trkpt>
      <trkpt lat="43.61028" lon="6.84496">
        <ele>83.29</ele>
        <time>2012-03-11T09:55:05Z</time>
      </trkpt>
      <trkpt lat="43.61027" lon="6.84496">
        <ele>83.29</ele>
        <time>2012-03-11T09:55:31Z</time>
      </trkpt>
      <trkpt lat="43.61027" lon="6.84497">
        <ele>83.29</ele>
        <time>2012-03-11T09:55:44Z</time>
      </trkpt>
      <trkpt lat="43.61027" lon="6.84497">
        <ele>82.81</ele>
        <time>2012-03-11T09:56:01Z</time>
      </trkpt>
      <trkpt lat="43.61027" lon="6.84498">
        <ele>81.85</ele>
        <time>2012-03-11T09:56:29Z</time>
      </trkpt>
      <trkpt lat="43.61027" lon="6.84498">
        <ele>81.85</ele>
        <time>2012-03-11T09:56:56Z</time>
      </trkpt>
      <trkpt lat="43.61027" lon="6.84498">
        <ele>81.37</ele>
        <time>2012-03-11T09:57:25Z</time>
      </trkpt>
      <trkpt lat="43.61027" lon="6.84498">
        <ele>81.37</ele>
        <time>2012-03-11T09:57:44Z</time>
      </trkpt>
      <trkpt lat="43.61026" lon="6.84497">
        <ele>81.37</ele>
        <time>2012-03-11T09:57:57Z</time>
      </trkpt>
      <trkpt lat="43.61026" lon="6.84497">
        <ele>81.37</ele>
        <time>2012-03-11T09:58:12Z</time>
      </trkpt>
      <trkpt lat="43.61027" lon="6.84498">
        <ele>80.89</ele>
        <time>2012-03-11T09:58:39Z</time>
      </trkpt>
      <trkpt lat="43.61027" lon="6.84498">
        <ele>80.89</ele>
        <time>2012-03-11T09:58:54Z</time>
      </trkpt>
      <trkpt lat="43.61027" lon="6.84497">
        <ele>79.93</ele>
        <time>2012-03-11T09:59:12Z</time>
      </trkpt>
      <trkpt lat="43.61027" lon="6.84497">
        <ele>79.93</ele>
        <time>2012-03-11T09:59:27Z</time>
      </trkpt>
      <trkpt lat="43.61027" lon="6.84497">
        <ele>79.93</ele>
        <time>2012-03-11T09:59:34Z</time>
      </trkpt>
      <trkpt lat="43.61027" lon="6.84491">
        <ele>81.85</ele>
        <time>2012-03-11T09:59:43Z</time>
      </trkpt>
      <trkpt lat="43.61024" lon="6.84487">
        <ele>83.29</ele>
        <time>2012-03-11T09:59:47Z</time>
      </trkpt>
      <trkpt lat="43.60996" lon="6.84484">
        <ele>90.5</ele>
        <time>2012-03-11T09:59:59Z</time>
      </trkpt>
      <trkpt lat="43.6096" lon="6.84491">
        <ele>90.5</ele>
        <time>2012-03-11T10:00:12Z</time>
      </trkpt>
      <trkpt lat="43.60941" lon="6.84499">
        <ele>90.5</ele>
        <time>2012-03-11T10:00:18Z</time>
      </trkpt>
      <trkpt lat="43.60945" lon="6.84536">
        <ele>87.14</ele>
        <time>2012-03-11T10:00:27Z</time>
      </trkpt>
      <trkpt lat="43.6095" lon="6.84563">
        <ele>86.66</ele>
        <time>2012-03-11T10:00:32Z</time>
      </trkpt>
      <trkpt lat="43.6097" lon="6.84572">
        <ele>81.85</ele>
        <time>2012-03-11T10:00:40Z</time>
      </trkpt>
      <trkpt lat="43.60985" lon="6.84598">
        <ele>81.37</ele>
        <time>2012-03-11T10:00:46Z</time>
      </trkpt>
      <trkpt lat="43.60992" lon="6.84611">
        <ele>80.89</ele>
        <time>2012-03-11T10:00:48Z</time>
      </trkpt>
      <trkpt lat="43.60991" lon="6.84666">
        <ele>79.93</ele>
        <time>2012-03-11T10:00:55Z</time>
      </trkpt>
      <trkpt lat="43.60951" lon="6.84717">
        <ele>76.08</ele>
        <time>2012-03-11T10:01:03Z</time>
      </trkpt>
      <trkpt lat="43.60946" lon="6.84724">
        <ele>75.6</ele>
        <time>2012-03-11T10:01:04Z</time>
      </trkpt>
      <trkpt lat="43.60919" lon="6.84764">
        <ele>73.68</ele>
        <time>2012-03-11T10:01:11Z</time>
      </trkpt>
      <trkpt lat="43.60878" lon="6.84825">
        <ele>70.31</ele>
        <time>2012-03-11T10:01:24Z</time>
      </trkpt>
      <trkpt lat="43.60825" lon="6.84877">
        <ele>69.35</ele>
        <time>2012-03-11T10:01:39Z</time>
      </trkpt>
      <trkpt lat="43.60822" lon="6.84883">
        <ele>69.83</ele>
        <time>2012-03-11T10:01:42Z</time>
      </trkpt>
      <trkpt lat="43.60813" lon="6.84891">
        <ele>67.43</ele>
        <time>2012-03-11T10:01:52Z</time>
      </trkpt>
      <trkpt lat="43.6081" lon="6.84893">
        <ele>67.43</ele>
        <time>2012-03-11T10:02:07Z</time>
      </trkpt>
      <trkpt lat="43.60787" lon="6.84908">
        <ele>70.31</ele>
        <time>2012-03-11T10:02:15Z</time>
      </trkpt>
      <trkpt lat="43.60773" lon="6.84918">
        <ele>71.27</ele>
        <time>2012-03-11T10:02:21Z</time>
      </trkpt>
      <trkpt lat="43.60743" lon="6.8493">
        <ele>70.31</ele>
        <time>2012-03-11T10:02:32Z</time>
      </trkpt>
      <trkpt lat="43.60724" lon="6.84931">
        <ele>72.72</ele>
        <time>2012-03-11T10:02:38Z</time>
      </trkpt>
      <trkpt lat="43.60712" lon="6.84934">
        <ele>75.12</ele>
        <time>2012-03-11T10:02:49Z</time>
      </trkpt>
      <trkpt lat="43.60712" lon="6.84934">
        <ele>75.6</ele>
        <time>2012-03-11T10:02:53Z</time>
      </trkpt>
      <trkpt lat="43.60711" lon="6.8494">
        <ele>75.12</ele>
        <time>2012-03-11T10:03:00Z</time>
      </trkpt>
      <trkpt lat="43.60702" lon="6.84941">
        <ele>78</ele>
        <time>2012-03-11T10:03:08Z</time>
      </trkpt>
      <trkpt lat="43.60697" lon="6.84937">
        <ele>76.08</ele>
        <time>2012-03-11T10:03:18Z</time>
      </trkpt>
      <trkpt lat="43.60693" lon="6.84933">
        <ele>78.48</ele>
        <time>2012-03-11T10:03:27Z</time>
      </trkpt>
      <trkpt lat="43.60681" lon="6.84934">
        <ele>81.37</ele>
        <time>2012-03-11T10:03:35Z</time>
      </trkpt>
      <trkpt lat="43.60659" lon="6.84935">
        <ele>83.77</ele>
        <time>2012-03-11T10:03:45Z</time>
      </trkpt>
      <trkpt lat="43.60649" lon="6.84937">
        <ele>86.66</ele>
        <time>2012-03-11T10:03:50Z</time>
      </trkpt>
      <trkpt lat="43.60629" lon="6.84956">
        <ele>89.54</ele>
        <time>2012-03-11T10:03:59Z</time>
      </trkpt>
      <trkpt lat="43.60618" lon="6.84956">
        <ele>91.46</ele>
        <time>2012-03-11T10:04:07Z</time>
      </trkpt>
      <trkpt lat="43.60612" lon="6.84962">
        <ele>92.42</ele>
        <time>2012-03-11T10:04:17Z</time>
      </trkpt>
      <trkpt lat="43.60609" lon="6.84966">
        <ele>91.94</ele>
        <time>2012-03-11T10:04:22Z</time>
      </trkpt>
      <trkpt lat="43.60598" lon="6.8498">
        <ele>91.94</ele>
        <time>2012-03-11T10:04:31Z</time>
      </trkpt>
      <trkpt lat="43.60584" lon="6.84997">
        <ele>94.35</ele>
        <time>2012-03-11T10:04:41Z</time>
      </trkpt>
      <trkpt lat="43.60564" lon="6.85025">
        <ele>100.11</ele>
        <time>2012-03-11T10:04:52Z</time>
      </trkpt>
      <trkpt lat="43.6056" lon="6.85031">
        <ele>100.11</ele>
        <time>2012-03-11T10:04:54Z</time>
      </trkpt>
      <trkpt lat="43.60554" lon="6.85036">
        <ele>99.15</ele>
        <time>2012-03-11T10:04:57Z</time>
      </trkpt>
      <trkpt lat="43.60531" lon="6.85058">
        <ele>101.08</ele>
        <time>2012-03-11T10:05:08Z</time>
      </trkpt>
      <trkpt lat="43.60509" lon="6.85083">
        <ele>101.08</ele>
        <time>2012-03-11T10:05:18Z</time>
      </trkpt>
      <trkpt lat="43.60483" lon="6.85116">
        <ele>100.11</ele>
        <time>2012-03-11T10:05:30Z</time>
      </trkpt>
      <trkpt lat="43.60467" lon="6.85141">
        <ele>100.6</ele>
        <time>2012-03-11T10:05:41Z</time>
      </trkpt>
      <trkpt lat="43.60467" lon="6.8514">
        <ele>100.6</ele>
        <time>2012-03-11T10:05:54Z</time>
      </trkpt>
      <trkpt lat="43.60467" lon="6.85143">
        <ele>100.6</ele>
        <time>2012-03-11T10:06:09Z</time>
      </trkpt>
      <trkpt lat="43.6046" lon="6.85161">
        <ele>103.96</ele>
        <time>2012-03-11T10:06:21Z</time>
      </trkpt>
      <trkpt lat="43.60455" lon="6.85179">
        <ele>103.96</ele>
        <time>2012-03-11T10:06:33Z</time>
      </trkpt>
      <trkpt lat="43.60448" lon="6.85191">
        <ele>105.88</ele>
        <time>2012-03-11T10:06:37Z</time>
      </trkpt>
      <trkpt lat="43.60442" lon="6.85214">
        <ele>115.98</ele>
        <time>2012-03-11T10:06:47Z</time>
      </trkpt>
      <trkpt lat="43.60442" lon="6.85219">
        <ele>117.42</ele>
        <time>2012-03-11T10:06:49Z</time>
      </trkpt>
      <trkpt lat="43.60439" lon="6.85232">
        <ele>121.26</ele>
        <time>2012-03-11T10:06:59Z</time>
      </trkpt>
      <trkpt lat="43.60438" lon="6.85242">
        <ele>126.55</ele>
        <time>2012-03-11T10:07:11Z</time>
      </trkpt>
      <trkpt lat="43.60435" lon="6.85252">
        <ele>128.47</ele>
        <time>2012-03-11T10:07:17Z</time>
      </trkpt>
      <trkpt lat="43.60434" lon="6.85297">
        <ele>139.53</ele>
        <time>2012-03-11T10:07:31Z</time>
      </trkpt>
      <trkpt lat="43.60435" lon="6.85311">
        <ele>142.41</ele>
        <time>2012-03-11T10:07:36Z</time>
      </trkpt>
      <trkpt lat="43.60438" lon="6.85327">
        <ele>147.7</ele>
        <time>2012-03-11T10:07:42Z</time>
      </trkpt>
      <trkpt lat="43.60441" lon="6.85339">
        <ele>148.18</ele>
        <time>2012-03-11T10:07:52Z</time>
      </trkpt>
      <trkpt lat="43.60448" lon="6.8536">
        <ele>148.18</ele>
        <time>2012-03-11T10:08:01Z</time>
      </trkpt>
      <trkpt lat="43.60453" lon="6.85369">
        <ele>148.18</ele>
        <time>2012-03-11T10:08:12Z</time>
      </trkpt>
      <trkpt lat="43.60454" lon="6.8537">
        <ele>148.18</ele>
        <time>2012-03-11T10:08:26Z</time>
      </trkpt>
      <trkpt lat="43.60454" lon="6.8537">
        <ele>148.18</ele>
        <time>2012-03-11T10:08:27Z</time>
      </trkpt>
      <trkpt lat="43.60479" lon="6.85378">
        <ele>145.78</ele>
        <time>2012-03-11T10:08:39Z</time>
      </trkpt>
      <trkpt lat="43.6049" lon="6.85383">
        <ele>142.89</ele>
        <time>2012-03-11T10:08:44Z</time>
      </trkpt>
      <trkpt lat="43.605" lon="6.8539">
        <ele>140.01</ele>
        <time>2012-03-11T10:08:55Z</time>
      </trkpt>
      <trkpt lat="43.60509" lon="6.85394">
        <ele>137.61</ele>
        <time>2012-03-11T10:09:04Z</time>
      </trkpt>
      <trkpt lat="43.60531" lon="6.85396">
        <ele>133.76</ele>
        <time>2012-03-11T10:09:14Z</time>
      </trkpt>
      <trkpt lat="43.60551" lon="6.85399">
        <ele>132.32</ele>
        <time>2012-03-11T10:09:23Z</time>
      </trkpt>
      <trkpt lat="43.60567" lon="6.85399">
        <ele>130.88</ele>
        <time>2012-03-11T10:09:33Z</time>
      </trkpt>
      <trkpt lat="43.60584" lon="6.85395">
        <ele>129.92</ele>
        <time>2012-03-11T10:09:40Z</time>
      </trkpt>
      <trkpt lat="43.60591" lon="6.85393">
        <ele>128.95</ele>
        <time>2012-03-11T10:09:49Z</time>
      </trkpt>
      <trkpt lat="43.60593" lon="6.85392">
        <ele>129.43</ele>
        <time>2012-03-11T10:09:58Z</time>
      </trkpt>
      <trkpt lat="43.60596" lon="6.85394">
        <ele>121.74</ele>
        <time>2012-03-11T10:10:03Z</time>
      </trkpt>
      <trkpt lat="43.60611" lon="6.85394">
        <ele>116.46</ele>
        <time>2012-03-11T10:10:11Z</time>
      </trkpt>
      <trkpt lat="43.6063" lon="6.85388">
        <ele>115.01</ele>
        <time>2012-03-11T10:10:22Z</time>
      </trkpt>
      <trkpt lat="43.60639" lon="6.8538">
        <ele>108.77</ele>
        <time>2012-03-11T10:10:33Z</time>
      </trkpt>
      <trkpt lat="43.6065" lon="6.85375">
        <ele>104.44</ele>
        <time>2012-03-11T10:10:45Z</time>
      </trkpt>
      <trkpt lat="43.60652" lon="6.85373">
        <ele>103.96</ele>
        <time>2012-03-11T10:10:46Z</time>
      </trkpt>
      <trkpt lat="43.60668" lon="6.85366">
        <ele>101.08</ele>
        <time>2012-03-11T10:10:53Z</time>
      </trkpt>
      <trkpt lat="43.60676" lon="6.85364">
        <ele>99.15</ele>
        <time>2012-03-11T10:11:04Z</time>
      </trkpt>
      <trkpt lat="43.60676" lon="6.85364">
        <ele>99.15</ele>
        <time>2012-03-11T10:11:15Z</time>
      </trkpt>
      <trkpt lat="43.60676" lon="6.85364">
        <ele>99.15</ele>
        <time>2012-03-11T10:11:17Z</time>
      </trkpt>
      <trkpt lat="43.60696" lon="6.85353">
        <ele>100.11</ele>
        <time>2012-03-11T10:11:25Z</time>
      </trkpt>
      <trkpt lat="43.60706" lon="6.85347">
        <ele>101.08</ele>
        <time>2012-03-11T10:11:29Z</time>
      </trkpt>
      <trkpt lat="43.60729" lon="6.85335">
        <ele>100.6</ele>
        <time>2012-03-11T10:11:38Z</time>
      </trkpt>
      <trkpt lat="43.60746" lon="6.8532">
        <ele>99.15</ele>
        <time>2012-03-11T10:11:49Z</time>
      </trkpt>
      <trkpt lat="43.60746" lon="6.85319">
        <ele>99.15</ele>
        <time>2012-03-11T10:11:54Z</time>
      </trkpt>
      <trkpt lat="43.60757" lon="6.85314">
        <ele>97.23</ele>
        <time>2012-03-11T10:11:59Z</time>
      </trkpt>
      <trkpt lat="43.60762" lon="6.85313">
        <ele>96.27</ele>
        <time>2012-03-11T10:12:01Z</time>
      </trkpt>
      <trkpt lat="43.6077" lon="6.85311">
        <ele>96.27</ele>
        <time>2012-03-11T10:12:05Z</time>
      </trkpt>
      <trkpt lat="43.60805" lon="6.85303">
        <ele>95.31</ele>
        <time>2012-03-11T10:12:19Z</time>
      </trkpt>
      <trkpt lat="43.6084" lon="6.85289">
        <ele>85.21</ele>
        <time>2012-03-11T10:12:31Z</time>
      </trkpt>
      <trkpt lat="43.60851" lon="6.85287">
        <ele>81.37</ele>
        <time>2012-03-11T10:12:34Z</time>
      </trkpt>
      <trkpt lat="43.60862" lon="6.85308">
        <ele>79.45</ele>
        <time>2012-03-11T10:12:43Z</time>
      </trkpt>
      <trkpt lat="43.60869" lon="6.85329">
        <ele>79.93</ele>
        <time>2012-03-11T10:12:59Z</time>
      </trkpt>
      <trkpt lat="43.60869" lon="6.85329">
        <ele>79.93</ele>
        <time>2012-03-11T10:13:23Z</time>
      </trkpt>
      <trkpt lat="43.60869" lon="6.85331">
        <ele>79.45</ele>
        <time>2012-03-11T10:13:25Z</time>
      </trkpt>
      <trkpt lat="43.60873" lon="6.85344">
        <ele>78</ele>
        <time>2012-03-11T10:13:30Z</time>
      </trkpt>
      <trkpt lat="43.6086" lon="6.85344">
        <ele>74.16</ele>
        <time>2012-03-11T10:13:40Z</time>
      </trkpt>
      <trkpt lat="43.60834" lon="6.85338">
        <ele>70.79</ele>
        <time>2012-03-11T10:13:55Z</time>
      </trkpt>
      <trkpt lat="43.60814" lon="6.85347">
        <ele>71.76</ele>
        <time>2012-03-11T10:14:10Z</time>
      </trkpt>
      <trkpt lat="43.60795" lon="6.85353">
        <ele>72.72</ele>
        <time>2012-03-11T10:14:24Z</time>
      </trkpt>
      <trkpt lat="43.60773" lon="6.85362">
        <ele>75.6</ele>
        <time>2012-03-11T10:14:42Z</time>
      </trkpt>
      <trkpt lat="43.6076" lon="6.85376">
        <ele>80.89</ele>
        <time>2012-03-11T10:14:58Z</time>
      </trkpt>
      <trkpt lat="43.60754" lon="6.85388">
        <ele>83.77</ele>
        <time>2012-03-11T10:15:11Z</time>
      </trkpt>
      <trkpt lat="43.60752" lon="6.85399">
        <ele>86.66</ele>
        <time>2012-03-11T10:15:24Z</time>
      </trkpt>
      <trkpt lat="43.60752" lon="6.85411">
        <ele>91.46</ele>
        <time>2012-03-11T10:15:38Z</time>
      </trkpt>
      <trkpt lat="43.60755" lon="6.85424">
        <ele>95.79</ele>
        <time>2012-03-11T10:15:52Z</time>
      </trkpt>
      <trkpt lat="43.60756" lon="6.85429">
        <ele>96.27</ele>
        <time>2012-03-11T10:15:57Z</time>
      </trkpt>
      <trkpt lat="43.60761" lon="6.85441">
        <ele>99.15</ele>
        <time>2012-03-11T10:16:12Z</time>
      </trkpt>
      <trkpt lat="43.60763" lon="6.8545">
        <ele>100.11</ele>
        <time>2012-03-11T10:16:24Z</time>
      </trkpt>
      <trkpt lat="43.60768" lon="6.85461">
        <ele>104.92</ele>
        <time>2012-03-11T10:16:37Z</time>
      </trkpt>
      <trkpt lat="43.60773" lon="6.85474">
        <ele>110.69</ele>
        <time>2012-03-11T10:16:51Z</time>
      </trkpt>
      <trkpt lat="43.60774" lon="6.85487">
        <ele>115.01</ele>
        <time>2012-03-11T10:17:03Z</time>
      </trkpt>
      <trkpt lat="43.60771" lon="6.85496">
        <ele>113.57</ele>
        <time>2012-03-11T10:17:10Z</time>
      </trkpt>
      <trkpt lat="43.60761" lon="6.85491">
        <ele>114.53</ele>
        <time>2012-03-11T10:17:24Z</time>
      </trkpt>
      <trkpt lat="43.60752" lon="6.85485">
        <ele>114.53</ele>
        <time>2012-03-11T10:17:39Z</time>
      </trkpt>
      <trkpt lat="43.60743" lon="6.85479">
        <ele>117.9</ele>
        <time>2012-03-11T10:17:52Z</time>
      </trkpt>
      <trkpt lat="43.60732" lon="6.85476">
        <ele>123.19</ele>
        <time>2012-03-11T10:18:06Z</time>
      </trkpt>
      <trkpt lat="43.60722" lon="6.85474">
        <ele>124.63</ele>
        <time>2012-03-11T10:18:19Z</time>
      </trkpt>
      <trkpt lat="43.60709" lon="6.85474">
        <ele>125.11</ele>
        <time>2012-03-11T10:18:33Z</time>
      </trkpt>
      <trkpt lat="43.60702" lon="6.85474">
        <ele>125.59</ele>
        <time>2012-03-11T10:18:48Z</time>
      </trkpt>
      <trkpt lat="43.60681" lon="6.85483">
        <ele>130.4</ele>
        <time>2012-03-11T10:19:03Z</time>
      </trkpt>
      <trkpt lat="43.60663" lon="6.85499">
        <ele>132.8</ele>
        <time>2012-03-11T10:19:17Z</time>
      </trkpt>
      <trkpt lat="43.60643" lon="6.85519">
        <ele>134.24</ele>
        <time>2012-03-11T10:19:28Z</time>
      </trkpt>
      <trkpt lat="43.60625" lon="6.85533">
        <ele>134.72</ele>
        <time>2012-03-11T10:19:37Z</time>
      </trkpt>
      <trkpt lat="43.60612" lon="6.85538">
        <ele>133.28</ele>
        <time>2012-03-11T10:19:40Z</time>
      </trkpt>
      <trkpt lat="43.60578" lon="6.85542">
        <ele>124.63</ele>
        <time>2012-03-11T10:19:46Z</time>
      </trkpt>
      <trkpt lat="43.60551" lon="6.85537">
        <ele>119.34</ele>
        <time>2012-03-11T10:19:50Z</time>
      </trkpt>
      <trkpt lat="43.6051" lon="6.85545">
        <ele>117.42</ele>
        <time>2012-03-11T10:20:00Z</time>
      </trkpt>
      <trkpt lat="43.60488" lon="6.8556">
        <ele>121.74</ele>
        <time>2012-03-11T10:20:16Z</time>
      </trkpt>
      <trkpt lat="43.60469" lon="6.85572">
        <ele>123.67</ele>
        <time>2012-03-11T10:20:32Z</time>
      </trkpt>
      <trkpt lat="43.60449" lon="6.85572">
        <ele>126.55</ele>
        <time>2012-03-11T10:20:48Z</time>
      </trkpt>
      <trkpt lat="43.60432" lon="6.85564">
        <ele>128.47</ele>
        <time>2012-03-11T10:21:04Z</time>
      </trkpt>
      <trkpt lat="43.60413" lon="6.85553">
        <ele>131.84</ele>
        <time>2012-03-11T10:21:22Z</time>
      </trkpt>
      <trkpt lat="43.60404" lon="6.85552">
        <ele>132.32</ele>
        <time>2012-03-11T10:21:34Z</time>
      </trkpt>
      <trkpt lat="43.60403" lon="6.85552">
        <ele>132.32</ele>
        <time>2012-03-11T10:21:51Z</time>
      </trkpt>
      <trkpt lat="43.60403" lon="6.85552">
        <ele>132.32</ele>
        <time>2012-03-11T10:22:10Z</time>
      </trkpt>
      <trkpt lat="43.60403" lon="6.85553">
        <ele>132.32</ele>
        <time>2012-03-11T10:22:42Z</time>
      </trkpt>
      <trkpt lat="43.60403" lon="6.85553">
        <ele>132.32</ele>
        <time>2012-03-11T10:23:12Z</time>
      </trkpt>
      <trkpt lat="43.60403" lon="6.85553">
        <ele>131.84</ele>
        <time>2012-03-11T10:23:23Z</time>
      </trkpt>
      <trkpt lat="43.60402" lon="6.85552">
        <ele>131.84</ele>
        <time>2012-03-11T10:23:25Z</time>
      </trkpt>
      <trkpt lat="43.60393" lon="6.8555">
        <ele>132.8</ele>
        <time>2012-03-11T10:23:32Z</time>
      </trkpt>
      <trkpt lat="43.60372" lon="6.85544">
        <ele>137.61</ele>
        <time>2012-03-11T10:23:50Z</time>
      </trkpt>
      <trkpt lat="43.6035" lon="6.85535">
        <ele>141.93</ele>
        <time>2012-03-11T10:24:08Z</time>
      </trkpt>
      <trkpt lat="43.6033" lon="6.85536">
        <ele>145.3</ele>
        <time>2012-03-11T10:24:25Z</time>
      </trkpt>
      <trkpt lat="43.60311" lon="6.85538">
        <ele>148.18</ele>
        <time>2012-03-11T10:24:42Z</time>
      </trkpt>
      <trkpt lat="43.60294" lon="6.85539">
        <ele>151.06</ele>
        <time>2012-03-11T10:24:57Z</time>
      </trkpt>
      <trkpt lat="43.6028" lon="6.85537">
        <ele>152.51</ele>
        <time>2012-03-11T10:25:08Z</time>
      </trkpt>
      <trkpt lat="43.60264" lon="6.85528">
        <ele>154.91</ele>
        <time>2012-03-11T10:25:26Z</time>
      </trkpt>
      <trkpt lat="43.60257" lon="6.85523">
        <ele>155.39</ele>
        <time>2012-03-11T10:25:35Z</time>
      </trkpt>
      <trkpt lat="43.60254" lon="6.85519">
        <ele>155.87</ele>
        <time>2012-03-11T10:25:39Z</time>
      </trkpt>
      <trkpt lat="43.60235" lon="6.85506">
        <ele>157.79</ele>
        <time>2012-03-11T10:25:58Z</time>
      </trkpt>
      <trkpt lat="43.60219" lon="6.85495">
        <ele>161.64</ele>
        <time>2012-03-11T10:26:15Z</time>
      </trkpt>
      <trkpt lat="43.60212" lon="6.85491">
        <ele>163.56</ele>
        <time>2012-03-11T10:26:23Z</time>
      </trkpt>
      <trkpt lat="43.60209" lon="6.8549">
        <ele>164.04</ele>
        <time>2012-03-11T10:26:26Z</time>
      </trkpt>
      <trkpt lat="43.60194" lon="6.85484">
        <ele>165.96</ele>
        <time>2012-03-11T10:26:42Z</time>
      </trkpt>
      <trkpt lat="43.60177" lon="6.85487">
        <ele>168.37</ele>
        <time>2012-03-11T10:26:59Z</time>
      </trkpt>
      <trkpt lat="43.60159" lon="6.85491">
        <ele>170.77</ele>
        <time>2012-03-11T10:27:14Z</time>
      </trkpt>
      <trkpt lat="43.60149" lon="6.85492">
        <ele>172.69</ele>
        <time>2012-03-11T10:27:24Z</time>
      </trkpt>
      <trkpt lat="43.60145" lon="6.85497">
        <ele>174.62</ele>
        <time>2012-03-11T10:27:29Z</time>
      </trkpt>
      <trkpt lat="43.60134" lon="6.85517">
        <ele>182.31</ele>
        <time>2012-03-11T10:27:44Z</time>
      </trkpt>
      <trkpt lat="43.60114" lon="6.85532">
        <ele>182.31</ele>
        <time>2012-03-11T10:28:00Z</time>
      </trkpt>
      <trkpt lat="43.60097" lon="6.85542">
        <ele>184.23</ele>
        <time>2012-03-11T10:28:16Z</time>
      </trkpt>
      <trkpt lat="43.60079" lon="6.85536">
        <ele>185.67</ele>
        <time>2012-03-11T10:28:32Z</time>
      </trkpt>
      <trkpt lat="43.60074" lon="6.85534">
        <ele>185.67</ele>
        <time>2012-03-11T10:28:36Z</time>
      </trkpt>
      <trkpt lat="43.60071" lon="6.8553">
        <ele>186.15</ele>
        <time>2012-03-11T10:28:40Z</time>
      </trkpt>
      <trkpt lat="43.60073" lon="6.85527">
        <ele>186.15</ele>
        <time>2012-03-11T10:28:44Z</time>
      </trkpt>
      <trkpt lat="43.60085" lon="6.85526">
        <ele>192.88</ele>
        <time>2012-03-11T10:28:57Z</time>
      </trkpt>
      <trkpt lat="43.60096" lon="6.85515">
        <ele>197.21</ele>
        <time>2012-03-11T10:29:10Z</time>
      </trkpt>
      <trkpt lat="43.60111" lon="6.855">
        <ele>202.01</ele>
        <time>2012-03-11T10:29:26Z</time>
      </trkpt>
      <trkpt lat="43.60121" lon="6.85473">
        <ele>202.98</ele>
        <time>2012-03-11T10:29:43Z</time>
      </trkpt>
      <trkpt lat="43.60124" lon="6.85466">
        <ele>205.38</ele>
        <time>2012-03-11T10:29:48Z</time>
      </trkpt>
      <trkpt lat="43.60139" lon="6.85456">
        <ele>214.51</ele>
        <time>2012-03-11T10:30:06Z</time>
      </trkpt>
      <trkpt lat="43.60157" lon="6.85441">
        <ele>219.32</ele>
        <time>2012-03-11T10:30:25Z</time>
      </trkpt>
      <trkpt lat="43.60166" lon="6.8543">
        <ele>220.76</ele>
        <time>2012-03-11T10:30:35Z</time>
      </trkpt>
      <trkpt lat="43.6017" lon="6.85418">
        <ele>218.36</ele>
        <time>2012-03-11T10:30:42Z</time>
      </trkpt>
      <trkpt lat="43.60172" lon="6.85399">
        <ele>215.95</ele>
        <time>2012-03-11T10:30:58Z</time>
      </trkpt>
      <trkpt lat="43.60167" lon="6.85387">
        <ele>213.55</ele>
        <time>2012-03-11T10:31:13Z</time>
      </trkpt>
      <trkpt lat="43.60163" lon="6.85381">
        <ele>213.07</ele>
        <time>2012-03-11T10:31:21Z</time>
      </trkpt>
      <trkpt lat="43.60154" lon="6.85373">
        <ele>212.11</ele>
        <time>2012-03-11T10:31:35Z</time>
      </trkpt>
      <trkpt lat="43.60149" lon="6.85367">
        <ele>212.59</ele>
        <time>2012-03-11T10:31:50Z</time>
      </trkpt>
      <trkpt lat="43.60141" lon="6.85359">
        <ele>214.51</ele>
        <time>2012-03-11T10:32:04Z</time>
      </trkpt>
      <trkpt lat="43.60135" lon="6.85354">
        <ele>215.47</ele>
        <time>2012-03-11T10:32:16Z</time>
      </trkpt>
      <trkpt lat="43.60129" lon="6.85347">
        <ele>216.91</ele>
        <time>2012-03-11T10:32:31Z</time>
      </trkpt>
      <trkpt lat="43.60123" lon="6.85337">
        <ele>218.36</ele>
        <time>2012-03-11T10:32:44Z</time>
      </trkpt>
      <trkpt lat="43.60117" lon="6.85328">
        <ele>219.8</ele>
        <time>2012-03-11T10:32:57Z</time>
      </trkpt>
      <trkpt lat="43.60112" lon="6.85321">
        <ele>222.2</ele>
        <time>2012-03-11T10:33:09Z</time>
      </trkpt>
      <trkpt lat="43.60108" lon="6.85313">
        <ele>227.01</ele>
        <time>2012-03-11T10:33:22Z</time>
      </trkpt>
      <trkpt lat="43.60106" lon="6.85301">
        <ele>230.37</ele>
        <time>2012-03-11T10:33:34Z</time>
      </trkpt>
      <trkpt lat="43.60108" lon="6.85289">
        <ele>235.18</ele>
        <time>2012-03-11T10:33:46Z</time>
      </trkpt>
      <trkpt lat="43.60112" lon="6.8527">
        <ele>239.99</ele>
        <time>2012-03-11T10:34:02Z</time>
      </trkpt>
      <trkpt lat="43.60113" lon="6.8526">
        <ele>240.47</ele>
        <time>2012-03-11T10:34:11Z</time>
      </trkpt>
      <trkpt lat="43.60113" lon="6.85247">
        <ele>240.95</ele>
        <time>2012-03-11T10:34:26Z</time>
      </trkpt>
      <trkpt lat="43.6011" lon="6.85251">
        <ele>240.95</ele>
        <time>2012-03-11T10:34:33Z</time>
      </trkpt>
      <trkpt lat="43.60109" lon="6.85253">
        <ele>241.43</ele>
        <time>2012-03-11T10:34:35Z</time>
      </trkpt>
      <trkpt lat="43.60105" lon="6.85265">
        <ele>243.35</ele>
        <time>2012-03-11T10:34:49Z</time>
      </trkpt>
      <trkpt lat="43.60105" lon="6.85265">
        <ele>243.35</ele>
        <time>2012-03-11T10:34:54Z</time>
      </trkpt>
      <trkpt lat="43.60104" lon="6.85266">
        <ele>243.35</ele>
        <time>2012-03-11T10:34:56Z</time>
      </trkpt>
      <trkpt lat="43.60101" lon="6.85271">
        <ele>245.27</ele>
        <time>2012-03-11T10:35:00Z</time>
      </trkpt>
      <trkpt lat="43.60081" lon="6.85297">
        <ele>248.16</ele>
        <time>2012-03-11T10:35:18Z</time>
      </trkpt>
      <trkpt lat="43.60059" lon="6.85319">
        <ele>247.68</ele>
        <time>2012-03-11T10:35:35Z</time>
      </trkpt>
      <trkpt lat="43.60038" lon="6.85344">
        <ele>245.27</ele>
        <time>2012-03-11T10:35:55Z</time>
      </trkpt>
      <trkpt lat="43.60021" lon="6.85364">
        <ele>244.79</ele>
        <time>2012-03-11T10:36:11Z</time>
      </trkpt>
      <trkpt lat="43.59998" lon="6.85382">
        <ele>245.75</ele>
        <time>2012-03-11T10:36:27Z</time>
      </trkpt>
      <trkpt lat="43.59986" lon="6.85388">
        <ele>246.72</ele>
        <time>2012-03-11T10:36:39Z</time>
      </trkpt>
      <trkpt lat="43.59986" lon="6.85388">
        <ele>247.2</ele>
        <time>2012-03-11T10:37:02Z</time>
      </trkpt>
      <trkpt lat="43.59983" lon="6.8539">
        <ele>247.68</ele>
        <time>2012-03-11T10:37:16Z</time>
      </trkpt>
      <trkpt lat="43.59958" lon="6.85417">
        <ele>250.56</ele>
        <time>2012-03-11T10:37:30Z</time>
      </trkpt>
      <trkpt lat="43.59924" lon="6.85428">
        <ele>255.37</ele>
        <time>2012-03-11T10:37:45Z</time>
      </trkpt>
      <trkpt lat="43.59888" lon="6.85443">
        <ele>257.29</ele>
        <time>2012-03-11T10:38:04Z</time>
      </trkpt>
      <trkpt lat="43.59858" lon="6.85467">
        <ele>258.25</ele>
        <time>2012-03-11T10:38:20Z</time>
      </trkpt>
      <trkpt lat="43.59835" lon="6.85491">
        <ele>259.69</ele>
        <time>2012-03-11T10:38:35Z</time>
      </trkpt>
      <trkpt lat="43.59843" lon="6.85527">
        <ele>263.54</ele>
        <time>2012-03-11T10:38:49Z</time>
      </trkpt>
      <trkpt lat="43.59859" lon="6.85576">
        <ele>268.83</ele>
        <time>2012-03-11T10:39:09Z</time>
      </trkpt>
      <trkpt lat="43.59867" lon="6.85623">
        <ele>271.23</ele>
        <time>2012-03-11T10:39:27Z</time>
      </trkpt>
      <trkpt lat="43.59867" lon="6.85624">
        <ele>271.23</ele>
        <time>2012-03-11T10:39:29Z</time>
      </trkpt>
      <trkpt lat="43.59868" lon="6.85621">
        <ele>271.23</ele>
        <time>2012-03-11T10:39:40Z</time>
      </trkpt>
      <trkpt lat="43.59868" lon="6.85621">
        <ele>271.23</ele>
        <time>2012-03-11T10:40:04Z</time>
      </trkpt>
      <trkpt lat="43.59868" lon="6.85621">
        <ele>271.23</ele>
        <time>2012-03-11T10:40:33Z</time>
      </trkpt>
      <trkpt lat="43.59869" lon="6.85622">
        <ele>271.23</ele>
        <time>2012-03-11T10:40:58Z</time>
      </trkpt>
      <trkpt lat="43.59868" lon="6.85621">
        <ele>270.75</ele>
        <time>2012-03-11T10:41:02Z</time>
      </trkpt>
      <trkpt lat="43.59868" lon="6.8563">
        <ele>270.75</ele>
        <time>2012-03-11T10:41:07Z</time>
      </trkpt>
      <trkpt lat="43.59866" lon="6.85665">
        <ele>274.59</ele>
        <time>2012-03-11T10:41:24Z</time>
      </trkpt>
      <trkpt lat="43.5984" lon="6.8569">
        <ele>276.52</ele>
        <time>2012-03-11T10:41:39Z</time>
      </trkpt>
      <trkpt lat="43.59808" lon="6.85713">
        <ele>280.36</ele>
        <time>2012-03-11T10:41:54Z</time>
      </trkpt>
      <trkpt lat="43.5977" lon="6.85713">
        <ele>285.17</ele>
        <time>2012-03-11T10:42:09Z</time>
      </trkpt>
      <trkpt lat="43.59732" lon="6.85732">
        <ele>289.01</ele>
        <time>2012-03-11T10:42:26Z</time>
      </trkpt>
      <trkpt lat="43.59698" lon="6.85753">
        <ele>291.9</ele>
        <time>2012-03-11T10:42:41Z</time>
      </trkpt>
      <trkpt lat="43.59667" lon="6.85787">
        <ele>292.86</ele>
        <time>2012-03-11T10:42:57Z</time>
      </trkpt>
      <trkpt lat="43.59631" lon="6.85814">
        <ele>294.78</ele>
        <time>2012-03-11T10:43:13Z</time>
      </trkpt>
      <trkpt lat="43.59593" lon="6.85837">
        <ele>298.15</ele>
        <time>2012-03-11T10:43:29Z</time>
      </trkpt>
      <trkpt lat="43.59573" lon="6.8588">
        <ele>299.59</ele>
        <time>2012-03-11T10:43:44Z</time>
      </trkpt>
      <trkpt lat="43.59547" lon="6.85918">
        <ele>303.43</ele>
        <time>2012-03-11T10:44:00Z</time>
      </trkpt>
      <trkpt lat="43.59515" lon="6.85944">
        <ele>305.84</ele>
        <time>2012-03-11T10:44:14Z</time>
      </trkpt>
      <trkpt lat="43.59465" lon="6.85979">
        <ele>307.28</ele>
        <time>2012-03-11T10:44:34Z</time>
      </trkpt>
      <trkpt lat="43.59431" lon="6.86018">
        <ele>307.76</ele>
        <time>2012-03-11T10:44:52Z</time>
      </trkpt>
      <trkpt lat="43.59397" lon="6.86056">
        <ele>308.72</ele>
        <time>2012-03-11T10:45:08Z</time>
      </trkpt>
      <trkpt lat="43.59369" lon="6.861">
        <ele>312.57</ele>
        <time>2012-03-11T10:45:24Z</time>
      </trkpt>
      <trkpt lat="43.59342" lon="6.8614">
        <ele>311.6</ele>
        <time>2012-03-11T10:45:38Z</time>
      </trkpt>
      <trkpt lat="43.59311" lon="6.8617">
        <ele>312.57</ele>
        <time>2012-03-11T10:45:52Z</time>
      </trkpt>
      <trkpt lat="43.5928" lon="6.862">
        <ele>316.89</ele>
        <time>2012-03-11T10:46:05Z</time>
      </trkpt>
      <trkpt lat="43.59257" lon="6.86243">
        <ele>318.81</ele>
        <time>2012-03-11T10:46:19Z</time>
      </trkpt>
      <trkpt lat="43.59227" lon="6.86284">
        <ele>317.37</ele>
        <time>2012-03-11T10:46:34Z</time>
      </trkpt>
      <trkpt lat="43.59219" lon="6.86338">
        <ele>320.26</ele>
        <time>2012-03-11T10:46:49Z</time>
      </trkpt>
      <trkpt lat="43.59222" lon="6.86393">
        <ele>322.66</ele>
        <time>2012-03-11T10:47:04Z</time>
      </trkpt>
      <trkpt lat="43.59229" lon="6.86459">
        <ele>325.54</ele>
        <time>2012-03-11T10:47:23Z</time>
      </trkpt>
      <trkpt lat="43.5924" lon="6.86524">
        <ele>328.91</ele>
        <time>2012-03-11T10:47:43Z</time>
      </trkpt>
      <trkpt lat="43.59263" lon="6.8657">
        <ele>333.71</ele>
        <time>2012-03-11T10:48:00Z</time>
      </trkpt>
      <trkpt lat="43.5929" lon="6.8661">
        <ele>335.64</ele>
        <time>2012-03-11T10:48:17Z</time>
      </trkpt>
      <trkpt lat="43.5933" lon="6.86631">
        <ele>338.52</ele>
        <time>2012-03-11T10:48:35Z</time>
      </trkpt>
      <trkpt lat="43.59372" lon="6.86663">
        <ele>341.41</ele>
        <time>2012-03-11T10:48:54Z</time>
      </trkpt>
      <trkpt lat="43.59393" lon="6.86703">
        <ele>344.29</ele>
        <time>2012-03-11T10:49:10Z</time>
      </trkpt>
      <trkpt lat="43.5937" lon="6.86737">
        <ele>344.29</ele>
        <time>2012-03-11T10:49:24Z</time>
      </trkpt>
      <trkpt lat="43.59354" lon="6.86782">
        <ele>346.69</ele>
        <time>2012-03-11T10:49:40Z</time>
      </trkpt>
      <trkpt lat="43.59352" lon="6.86843">
        <ele>348.13</ele>
        <time>2012-03-11T10:49:59Z</time>
      </trkpt>
      <trkpt lat="43.59346" lon="6.86892">
        <ele>351.5</ele>
        <time>2012-03-11T10:50:14Z</time>
      </trkpt>
      <trkpt lat="43.59364" lon="6.86922">
        <ele>352.94</ele>
        <time>2012-03-11T10:50:26Z</time>
      </trkpt>
      <trkpt lat="43.59377" lon="6.86975">
        <ele>354.86</ele>
        <time>2012-03-11T10:50:42Z</time>
      </trkpt>
      <trkpt lat="43.59362" lon="6.87012">
        <ele>351.98</ele>
        <time>2012-03-11T10:50:54Z</time>
      </trkpt>
      <trkpt lat="43.59322" lon="6.87039">
        <ele>349.58</ele>
        <time>2012-03-11T10:51:11Z</time>
      </trkpt>
      <trkpt lat="43.59299" lon="6.87078">
        <ele>351.5</ele>
        <time>2012-03-11T10:51:26Z</time>
      </trkpt>
      <trkpt lat="43.59295" lon="6.87143">
        <ele>354.38</ele>
        <time>2012-03-11T10:51:44Z</time>
      </trkpt>
      <trkpt lat="43.59282" lon="6.87202">
        <ele>356.79</ele>
        <time>2012-03-11T10:52:00Z</time>
      </trkpt>
      <trkpt lat="43.59243" lon="6.87238">
        <ele>357.27</ele>
        <time>2012-03-11T10:52:17Z</time>
      </trkpt>
      <trkpt lat="43.5919" lon="6.87255">
        <ele>358.23</ele>
        <time>2012-03-11T10:52:38Z</time>
      </trkpt>
      <trkpt lat="43.59159" lon="6.87289">
        <ele>359.67</ele>
        <time>2012-03-11T10:52:52Z</time>
      </trkpt>
      <trkpt lat="43.59136" lon="6.87346">
        <ele>363.04</ele>
        <time>2012-03-11T10:53:08Z</time>
      </trkpt>
      <trkpt lat="43.59122" lon="6.87414">
        <ele>366.4</ele>
        <time>2012-03-11T10:53:26Z</time>
      </trkpt>
      <trkpt lat="43.59112" lon="6.87485">
        <ele>371.21</ele>
        <time>2012-03-11T10:53:44Z</time>
      </trkpt>
      <trkpt lat="43.59084" lon="6.87524">
        <ele>373.61</ele>
        <time>2012-03-11T10:53:59Z</time>
      </trkpt>
      <trkpt lat="43.59064" lon="6.87546">
        <ele>378.9</ele>
        <time>2012-03-11T10:54:14Z</time>
      </trkpt>
      <trkpt lat="43.59063" lon="6.87547">
        <ele>378.9</ele>
        <time>2012-03-11T10:54:15Z</time>
      </trkpt>
      <trkpt lat="43.59052" lon="6.87561">
        <ele>381.78</ele>
        <time>2012-03-11T10:54:29Z</time>
      </trkpt>
      <trkpt lat="43.59052" lon="6.87562">
        <ele>381.78</ele>
        <time>2012-03-11T10:54:39Z</time>
      </trkpt>
      <trkpt lat="43.59052" lon="6.87562">
        <ele>381.78</ele>
        <time>2012-03-11T10:54:56Z</time>
      </trkpt>
      <trkpt lat="43.59052" lon="6.87563">
        <ele>381.78</ele>
        <time>2012-03-11T10:55:17Z</time>
      </trkpt>
      <trkpt lat="43.59052" lon="6.87563">
        <ele>381.78</ele>
        <time>2012-03-11T10:55:33Z</time>
      </trkpt>
      <trkpt lat="43.5905" lon="6.87563">
        <ele>381.3</ele>
        <time>2012-03-11T10:55:55Z</time>
      </trkpt>
      <trkpt lat="43.5905" lon="6.87563">
        <ele>381.3</ele>
        <time>2012-03-11T10:56:11Z</time>
      </trkpt>
      <trkpt lat="43.5905" lon="6.87563">
        <ele>381.3</ele>
        <time>2012-03-11T10:56:22Z</time>
      </trkpt>
      <trkpt lat="43.5905" lon="6.87563">
        <ele>381.3</ele>
        <time>2012-03-11T10:56:46Z</time>
      </trkpt>
      <trkpt lat="43.5905" lon="6.87563">
        <ele>381.3</ele>
        <time>2012-03-11T10:57:07Z</time>
      </trkpt>
      <trkpt lat="43.59049" lon="6.87563">
        <ele>381.78</ele>
        <time>2012-03-11T10:57:36Z</time>
      </trkpt>
      <trkpt lat="43.59048" lon="6.87564">
        <ele>381.78</ele>
        <time>2012-03-11T10:57:59Z</time>
      </trkpt>
      <trkpt lat="43.59048" lon="6.87564">
        <ele>381.78</ele>
        <time>2012-03-11T10:58:25Z</time>
      </trkpt>
      <trkpt lat="43.59047" lon="6.87563">
        <ele>381.78</ele>
        <time>2012-03-11T10:59:03Z</time>
      </trkpt>
      <trkpt lat="43.59046" lon="6.87563">
        <ele>381.3</ele>
        <time>2012-03-11T10:59:23Z</time>
      </trkpt>
      <trkpt lat="43.59046" lon="6.87563">
        <ele>381.3</ele>
        <time>2012-03-11T10:59:43Z</time>
      </trkpt>
      <trkpt lat="43.59046" lon="6.87563">
        <ele>381.3</ele>
        <time>2012-03-11T11:00:04Z</time>
      </trkpt>
      <trkpt lat="43.59046" lon="6.87563">
        <ele>381.3</ele>
        <time>2012-03-11T11:00:28Z</time>
      </trkpt>
      <trkpt lat="43.59045" lon="6.87564">
        <ele>381.3</ele>
        <time>2012-03-11T11:00:41Z</time>
      </trkpt>
      <trkpt lat="43.59045" lon="6.87564">
        <ele>381.3</ele>
        <time>2012-03-11T11:01:00Z</time>
      </trkpt>
      <trkpt lat="43.59045" lon="6.87567">
        <ele>382.26</ele>
        <time>2012-03-11T11:01:04Z</time>
      </trkpt>
      <trkpt lat="43.59032" lon="6.87584">
        <ele>380.34</ele>
        <time>2012-03-11T11:01:17Z</time>
      </trkpt>
      <trkpt lat="43.59012" lon="6.87613">
        <ele>380.82</ele>
        <time>2012-03-11T11:01:31Z</time>
      </trkpt>
      <trkpt lat="43.58978" lon="6.87655">
        <ele>380.34</ele>
        <time>2012-03-11T11:01:46Z</time>
      </trkpt>
      <trkpt lat="43.5895" lon="6.87712">
        <ele>378.42</ele>
        <time>2012-03-11T11:02:00Z</time>
      </trkpt>
      <trkpt lat="43.58948" lon="6.87725">
        <ele>377.45</ele>
        <time>2012-03-11T11:02:02Z</time>
      </trkpt>
      <trkpt lat="43.58929" lon="6.87766">
        <ele>374.57</ele>
        <time>2012-03-11T11:02:08Z</time>
      </trkpt>
      <trkpt lat="43.5889" lon="6.87813">
        <ele>370.73</ele>
        <time>2012-03-11T11:02:15Z</time>
      </trkpt>
      <trkpt lat="43.5888" lon="6.87876">
        <ele>366.4</ele>
        <time>2012-03-11T11:02:21Z</time>
      </trkpt>
      <trkpt lat="43.58885" lon="6.87886">
        <ele>365.44</ele>
        <time>2012-03-11T11:02:22Z</time>
      </trkpt>
      <trkpt lat="43.58895" lon="6.87907">
        <ele>363.04</ele>
        <time>2012-03-11T11:02:24Z</time>
      </trkpt>
      <trkpt lat="43.58893" lon="6.87975">
        <ele>357.27</ele>
        <time>2012-03-11T11:02:30Z</time>
      </trkpt>
      <trkpt lat="43.58886" lon="6.87984">
        <ele>356.31</ele>
        <time>2012-03-11T11:02:31Z</time>
      </trkpt>
      <trkpt lat="43.58864" lon="6.88011">
        <ele>353.42</ele>
        <time>2012-03-11T11:02:34Z</time>
      </trkpt>
      <trkpt lat="43.58782" lon="6.88073">
        <ele>345.73</ele>
        <time>2012-03-11T11:02:43Z</time>
      </trkpt>
      <trkpt lat="43.5875" lon="6.88094">
        <ele>342.85</ele>
        <time>2012-03-11T11:02:46Z</time>
      </trkpt>
      <trkpt lat="43.5873" lon="6.88159">
        <ele>337.56</ele>
        <time>2012-03-11T11:02:51Z</time>
      </trkpt>
      <trkpt lat="43.58738" lon="6.88188">
        <ele>335.64</ele>
        <time>2012-03-11T11:02:53Z</time>
      </trkpt>
      <trkpt lat="43.58751" lon="6.88215">
        <ele>333.71</ele>
        <time>2012-03-11T11:02:55Z</time>
      </trkpt>
      <trkpt lat="43.58784" lon="6.88258">
        <ele>329.87</ele>
        <time>2012-03-11T11:02:59Z</time>
      </trkpt>
      <trkpt lat="43.58803" lon="6.88324">
        <ele>324.58</ele>
        <time>2012-03-11T11:03:04Z</time>
      </trkpt>
      <trkpt lat="43.58774" lon="6.88382">
        <ele>320.26</ele>
        <time>2012-03-11T11:03:09Z</time>
      </trkpt>
      <trkpt lat="43.58765" lon="6.88407">
        <ele>318.33</ele>
        <time>2012-03-11T11:03:11Z</time>
      </trkpt>
      <trkpt lat="43.58737" lon="6.88445">
        <ele>315.45</ele>
        <time>2012-03-11T11:03:15Z</time>
      </trkpt>
      <trkpt lat="43.58712" lon="6.88465">
        <ele>313.53</ele>
        <time>2012-03-11T11:03:18Z</time>
      </trkpt>
      <trkpt lat="43.58677" lon="6.88479">
        <ele>311.6</ele>
        <time>2012-03-11T11:03:22Z</time>
      </trkpt>
      <trkpt lat="43.58637" lon="6.88508">
        <ele>309.2</ele>
        <time>2012-03-11T11:03:27Z</time>
      </trkpt>
      <trkpt lat="43.58603" lon="6.88571">
        <ele>305.84</ele>
        <time>2012-03-11T11:03:34Z</time>
      </trkpt>
      <trkpt lat="43.58596" lon="6.88577">
        <ele>305.36</ele>
        <time>2012-03-11T11:03:35Z</time>
      </trkpt>
      <trkpt lat="43.58498" lon="6.88625">
        <ele>300.07</ele>
        <time>2012-03-11T11:03:47Z</time>
      </trkpt>
      <trkpt lat="43.5848" lon="6.8863">
        <ele>299.11</ele>
        <time>2012-03-11T11:03:49Z</time>
      </trkpt>
      <trkpt lat="43.58461" lon="6.88667">
        <ele>297.18</ele>
        <time>2012-03-11T11:03:53Z</time>
      </trkpt>
      <trkpt lat="43.58455" lon="6.88732">
        <ele>298.63</ele>
        <time>2012-03-11T11:04:01Z</time>
      </trkpt>
      <trkpt lat="43.58455" lon="6.8874">
        <ele>299.59</ele>
        <time>2012-03-11T11:04:03Z</time>
      </trkpt>
      <trkpt lat="43.58456" lon="6.88752">
        <ele>302.47</ele>
        <time>2012-03-11T11:04:08Z</time>
      </trkpt>
      <trkpt lat="43.58424" lon="6.88786">
        <ele>307.28</ele>
        <time>2012-03-11T11:04:26Z</time>
      </trkpt>
      <trkpt lat="43.58397" lon="6.88822">
        <ele>311.6</ele>
        <time>2012-03-11T11:04:45Z</time>
      </trkpt>
      <trkpt lat="43.58363" lon="6.88832">
        <ele>315.93</ele>
        <time>2012-03-11T11:05:03Z</time>
      </trkpt>
      <trkpt lat="43.58344" lon="6.8887">
        <ele>318.33</ele>
        <time>2012-03-11T11:05:22Z</time>
      </trkpt>
      <trkpt lat="43.58335" lon="6.88908">
        <ele>319.78</ele>
        <time>2012-03-11T11:05:39Z</time>
      </trkpt>
      <trkpt lat="43.58327" lon="6.88943">
        <ele>323.14</ele>
        <time>2012-03-11T11:05:56Z</time>
      </trkpt>
      <trkpt lat="43.58323" lon="6.88954">
        <ele>324.1</ele>
        <time>2012-03-11T11:06:02Z</time>
      </trkpt>
      <trkpt lat="43.58335" lon="6.88961">
        <ele>325.06</ele>
        <time>2012-03-11T11:06:13Z</time>
      </trkpt>
      <trkpt lat="43.58351" lon="6.88919">
        <ele>332.27</ele>
        <time>2012-03-11T11:06:31Z</time>
      </trkpt>
      <trkpt lat="43.58369" lon="6.88902">
        <ele>334.2</ele>
        <time>2012-03-11T11:06:47Z</time>
      </trkpt>
      <trkpt lat="43.58388" lon="6.88916">
        <ele>335.64</ele>
        <time>2012-03-11T11:07:04Z</time>
      </trkpt>
      <trkpt lat="43.58394" lon="6.88941">
        <ele>337.56</ele>
        <time>2012-03-11T11:07:21Z</time>
      </trkpt>
      <trkpt lat="43.58384" lon="6.88964">
        <ele>339</ele>
        <time>2012-03-11T11:07:36Z</time>
      </trkpt>
      <trkpt lat="43.58377" lon="6.88983">
        <ele>340.92</ele>
        <time>2012-03-11T11:07:47Z</time>
      </trkpt>
      <trkpt lat="43.5838" lon="6.89017">
        <ele>344.29</ele>
        <time>2012-03-11T11:08:04Z</time>
      </trkpt>
      <trkpt lat="43.58379" lon="6.89035">
        <ele>350.54</ele>
        <time>2012-03-11T11:08:15Z</time>
      </trkpt>
      <trkpt lat="43.58376" lon="6.89044">
        <ele>352.94</ele>
        <time>2012-03-11T11:08:32Z</time>
      </trkpt>
      <trkpt lat="43.58371" lon="6.89054">
        <ele>355.83</ele>
        <time>2012-03-11T11:08:47Z</time>
      </trkpt>
      <trkpt lat="43.58358" lon="6.89063">
        <ele>357.75</ele>
        <time>2012-03-11T11:09:01Z</time>
      </trkpt>
      <trkpt lat="43.58348" lon="6.89065">
        <ele>361.11</ele>
        <time>2012-03-11T11:09:14Z</time>
      </trkpt>
      <trkpt lat="43.58331" lon="6.89066">
        <ele>365.44</ele>
        <time>2012-03-11T11:09:31Z</time>
      </trkpt>
      <trkpt lat="43.58328" lon="6.89067">
        <ele>365.92</ele>
        <time>2012-03-11T11:09:34Z</time>
      </trkpt>
      <trkpt lat="43.58316" lon="6.8907">
        <ele>367.84</ele>
        <time>2012-03-11T11:09:46Z</time>
      </trkpt>
      <trkpt lat="43.5829" lon="6.89068">
        <ele>372.65</ele>
        <time>2012-03-11T11:10:01Z</time>
      </trkpt>
      <trkpt lat="43.58286" lon="6.89067">
        <ele>373.61</ele>
        <time>2012-03-11T11:10:03Z</time>
      </trkpt>
      <trkpt lat="43.5827" lon="6.89056">
        <ele>376.49</ele>
        <time>2012-03-11T11:10:16Z</time>
      </trkpt>
      <trkpt lat="43.58256" lon="6.89045">
        <ele>380.34</ele>
        <time>2012-03-11T11:10:28Z</time>
      </trkpt>
      <trkpt lat="43.58239" lon="6.89038">
        <ele>382.26</ele>
        <time>2012-03-11T11:10:43Z</time>
      </trkpt>
      <trkpt lat="43.58218" lon="6.89037">
        <ele>382.26</ele>
        <time>2012-03-11T11:10:58Z</time>
      </trkpt>
      <trkpt lat="43.58194" lon="6.89038">
        <ele>381.78</ele>
        <time>2012-03-11T11:11:14Z</time>
      </trkpt>
      <trkpt lat="43.5816" lon="6.8904">
        <ele>381.3</ele>
        <time>2012-03-11T11:11:26Z</time>
      </trkpt>
      <trkpt lat="43.58128" lon="6.89039">
        <ele>384.66</ele>
        <time>2012-03-11T11:11:39Z</time>
      </trkpt>
      <trkpt lat="43.58109" lon="6.89036">
        <ele>385.63</ele>
        <time>2012-03-11T11:11:47Z</time>
      </trkpt>
      <trkpt lat="43.58085" lon="6.89062">
        <ele>381.3</ele>
        <time>2012-03-11T11:11:58Z</time>
      </trkpt>
      <trkpt lat="43.58059" lon="6.89118">
        <ele>376.49</ele>
        <time>2012-03-11T11:12:12Z</time>
      </trkpt>
      <trkpt lat="43.58039" lon="6.89159">
        <ele>372.17</ele>
        <time>2012-03-11T11:12:23Z</time>
      </trkpt>
      <trkpt lat="43.58016" lon="6.89157">
        <ele>374.57</ele>
        <time>2012-03-11T11:12:33Z</time>
      </trkpt>
      <trkpt lat="43.57995" lon="6.89161">
        <ele>376.49</ele>
        <time>2012-03-11T11:12:43Z</time>
      </trkpt>
      <trkpt lat="43.57971" lon="6.89167">
        <ele>377.45</ele>
        <time>2012-03-11T11:12:58Z</time>
      </trkpt>
      <trkpt lat="43.57967" lon="6.8917">
        <ele>377.45</ele>
        <time>2012-03-11T11:13:07Z</time>
      </trkpt>
      <trkpt lat="43.57958" lon="6.89182">
        <ele>377.94</ele>
        <time>2012-03-11T11:13:19Z</time>
      </trkpt>
      <trkpt lat="43.57946" lon="6.89192">
        <ele>378.9</ele>
        <time>2012-03-11T11:13:33Z</time>
      </trkpt>
      <trkpt lat="43.57941" lon="6.89197">
        <ele>379.86</ele>
        <time>2012-03-11T11:13:43Z</time>
      </trkpt>
      <trkpt lat="43.57927" lon="6.89209">
        <ele>385.15</ele>
        <time>2012-03-11T11:13:56Z</time>
      </trkpt>
      <trkpt lat="43.57907" lon="6.89217">
        <ele>392.84</ele>
        <time>2012-03-11T11:14:08Z</time>
      </trkpt>
      <trkpt lat="43.57891" lon="6.89227">
        <ele>395.72</ele>
        <time>2012-03-11T11:14:15Z</time>
      </trkpt>
      <trkpt lat="43.57878" lon="6.89227">
        <ele>397.64</ele>
        <time>2012-03-11T11:14:26Z</time>
      </trkpt>
      <trkpt lat="43.57874" lon="6.89227">
        <ele>398.12</ele>
        <time>2012-03-11T11:14:40Z</time>
      </trkpt>
      <trkpt lat="43.57865" lon="6.89218">
        <ele>401.01</ele>
        <time>2012-03-11T11:14:50Z</time>
      </trkpt>
      <trkpt lat="43.5786" lon="6.89212">
        <ele>402.45</ele>
        <time>2012-03-11T11:14:56Z</time>
      </trkpt>
      <trkpt lat="43.57852" lon="6.89201">
        <ele>402.93</ele>
        <time>2012-03-11T11:15:06Z</time>
      </trkpt>
      <trkpt lat="43.57838" lon="6.89192">
        <ele>401.01</ele>
        <time>2012-03-11T11:15:16Z</time>
      </trkpt>
      <trkpt lat="43.57813" lon="6.89185">
        <ele>400.53</ele>
        <time>2012-03-11T11:15:26Z</time>
      </trkpt>
      <trkpt lat="43.57793" lon="6.89181">
        <ele>402.45</ele>
        <time>2012-03-11T11:15:36Z</time>
      </trkpt>
      <trkpt lat="43.57776" lon="6.89182">
        <ele>407.26</ele>
        <time>2012-03-11T11:15:46Z</time>
      </trkpt>
      <trkpt lat="43.57773" lon="6.89188">
        <ele>408.7</ele>
        <time>2012-03-11T11:15:50Z</time>
      </trkpt>
      <trkpt lat="43.57769" lon="6.89197">
        <ele>406.77</ele>
        <time>2012-03-11T11:15:56Z</time>
      </trkpt>
      <trkpt lat="43.57768" lon="6.89202">
        <ele>405.81</ele>
        <time>2012-03-11T11:16:00Z</time>
      </trkpt>
      <trkpt lat="43.57768" lon="6.89206">
        <ele>405.81</ele>
        <time>2012-03-11T11:16:03Z</time>
      </trkpt>
      <trkpt lat="43.57768" lon="6.89216">
        <ele>406.29</ele>
        <time>2012-03-11T11:16:08Z</time>
      </trkpt>
      <trkpt lat="43.57768" lon="6.8922">
        <ele>406.77</ele>
        <time>2012-03-11T11:16:10Z</time>
      </trkpt>
      <trkpt lat="43.57769" lon="6.89245">
        <ele>409.18</ele>
        <time>2012-03-11T11:16:23Z</time>
      </trkpt>
      <trkpt lat="43.57772" lon="6.89271">
        <ele>410.14</ele>
        <time>2012-03-11T11:16:37Z</time>
      </trkpt>
      <trkpt lat="43.57777" lon="6.89282">
        <ele>410.62</ele>
        <time>2012-03-11T11:16:44Z</time>
      </trkpt>
      <trkpt lat="43.57785" lon="6.89295">
        <ele>410.14</ele>
        <time>2012-03-11T11:16:52Z</time>
      </trkpt>
      <trkpt lat="43.57792" lon="6.89306">
        <ele>411.1</ele>
        <time>2012-03-11T11:16:58Z</time>
      </trkpt>
      <trkpt lat="43.57795" lon="6.89312">
        <ele>412.06</ele>
        <time>2012-03-11T11:17:02Z</time>
      </trkpt>
      <trkpt lat="43.57811" lon="6.89324">
        <ele>412.06</ele>
        <time>2012-03-11T11:17:16Z</time>
      </trkpt>
      <trkpt lat="43.57823" lon="6.89339">
        <ele>412.06</ele>
        <time>2012-03-11T11:17:29Z</time>
      </trkpt>
      <trkpt lat="43.57826" lon="6.89342">
        <ele>412.06</ele>
        <time>2012-03-11T11:17:32Z</time>
      </trkpt>
      <trkpt lat="43.57829" lon="6.89346">
        <ele>413.02</ele>
        <time>2012-03-11T11:17:35Z</time>
      </trkpt>
      <trkpt lat="43.57833" lon="6.89354">
        <ele>413.02</ele>
        <time>2012-03-11T11:17:40Z</time>
      </trkpt>
      <trkpt lat="43.57831" lon="6.89384">
        <ele>413.98</ele>
        <time>2012-03-11T11:17:51Z</time>
      </trkpt>
      <trkpt lat="43.57852" lon="6.89405">
        <ele>411.58</ele>
        <time>2012-03-11T11:18:03Z</time>
      </trkpt>
      <trkpt lat="43.57871" lon="6.8944">
        <ele>411.58</ele>
        <time>2012-03-11T11:18:15Z</time>
      </trkpt>
      <trkpt lat="43.57889" lon="6.89486">
        <ele>412.06</ele>
        <time>2012-03-11T11:18:30Z</time>
      </trkpt>
      <trkpt lat="43.57909" lon="6.8953">
        <ele>408.22</ele>
        <time>2012-03-11T11:18:43Z</time>
      </trkpt>
      <trkpt lat="43.57904" lon="6.89574">
        <ele>410.62</ele>
        <time>2012-03-11T11:18:54Z</time>
      </trkpt>
      <trkpt lat="43.57909" lon="6.89632">
        <ele>411.58</ele>
        <time>2012-03-11T11:19:08Z</time>
      </trkpt>
      <trkpt lat="43.5791" lon="6.89676">
        <ele>412.06</ele>
        <time>2012-03-11T11:19:26Z</time>
      </trkpt>
      <trkpt lat="43.57905" lon="6.89697">
        <ele>414.47</ele>
        <time>2012-03-11T11:19:40Z</time>
      </trkpt>
      <trkpt lat="43.57903" lon="6.89706">
        <ele>414.95</ele>
        <time>2012-03-11T11:19:45Z</time>
      </trkpt>
      <trkpt lat="43.57908" lon="6.89731">
        <ele>419.75</ele>
        <time>2012-03-11T11:20:02Z</time>
      </trkpt>
      <trkpt lat="43.5791" lon="6.89738">
        <ele>421.19</ele>
        <time>2012-03-11T11:20:07Z</time>
      </trkpt>
      <trkpt lat="43.57921" lon="6.89765">
        <ele>424.08</ele>
        <time>2012-03-11T11:20:23Z</time>
      </trkpt>
      <trkpt lat="43.57929" lon="6.8979">
        <ele>423.12</ele>
        <time>2012-03-11T11:20:37Z</time>
      </trkpt>
      <trkpt lat="43.57929" lon="6.8979">
        <ele>423.12</ele>
        <time>2012-03-11T11:20:58Z</time>
      </trkpt>
      <trkpt lat="43.57929" lon="6.8979">
        <ele>423.12</ele>
        <time>2012-03-11T11:21:19Z</time>
      </trkpt>
      <trkpt lat="43.57929" lon="6.8979">
        <ele>423.12</ele>
        <time>2012-03-11T11:21:33Z</time>
      </trkpt>
      <trkpt lat="43.57929" lon="6.8979">
        <ele>423.12</ele>
        <time>2012-03-11T11:21:56Z</time>
      </trkpt>
      <trkpt lat="43.57929" lon="6.8979">
        <ele>423.12</ele>
        <time>2012-03-11T11:22:26Z</time>
      </trkpt>
      <trkpt lat="43.57928" lon="6.89791">
        <ele>422.64</ele>
        <time>2012-03-11T11:22:49Z</time>
      </trkpt>
      <trkpt lat="43.57928" lon="6.89791">
        <ele>422.64</ele>
        <time>2012-03-11T11:23:17Z</time>
      </trkpt>
      <trkpt lat="43.57928" lon="6.89791">
        <ele>422.64</ele>
        <time>2012-03-11T11:23:51Z</time>
      </trkpt>
      <trkpt lat="43.57928" lon="6.89791">
        <ele>422.64</ele>
        <time>2012-03-11T11:24:07Z</time>
      </trkpt>
      <trkpt lat="43.57933" lon="6.89804">
        <ele>422.64</ele>
        <time>2012-03-11T11:24:12Z</time>
      </trkpt>
      <trkpt lat="43.57944" lon="6.89828">
        <ele>421.68</ele>
        <time>2012-03-11T11:24:24Z</time>
      </trkpt>
      <trkpt lat="43.57944" lon="6.89828">
        <ele>421.68</ele>
        <time>2012-03-11T11:24:29Z</time>
      </trkpt>
      <trkpt lat="43.57944" lon="6.8983">
        <ele>421.68</ele>
        <time>2012-03-11T11:24:31Z</time>
      </trkpt>
      <trkpt lat="43.57947" lon="6.89837">
        <ele>422.64</ele>
        <time>2012-03-11T11:24:35Z</time>
      </trkpt>
      <trkpt lat="43.57956" lon="6.89847">
        <ele>424.08</ele>
        <time>2012-03-11T11:24:42Z</time>
      </trkpt>
      <trkpt lat="43.57966" lon="6.89872">
        <ele>422.64</ele>
        <time>2012-03-11T11:24:50Z</time>
      </trkpt>
      <trkpt lat="43.57955" lon="6.89895">
        <ele>417.83</ele>
        <time>2012-03-11T11:24:59Z</time>
      </trkpt>
      <trkpt lat="43.57954" lon="6.89897">
        <ele>417.83</ele>
        <time>2012-03-11T11:25:00Z</time>
      </trkpt>
      <trkpt lat="43.57923" lon="6.89944">
        <ele>420.23</ele>
        <time>2012-03-11T11:25:19Z</time>
      </trkpt>
      <trkpt lat="43.57876" lon="6.8997">
        <ele>419.75</ele>
        <time>2012-03-11T11:25:38Z</time>
      </trkpt>
      <trkpt lat="43.57828" lon="6.89994">
        <ele>418.31</ele>
        <time>2012-03-11T11:25:55Z</time>
      </trkpt>
      <trkpt lat="43.57801" lon="6.90032">
        <ele>421.19</ele>
        <time>2012-03-11T11:26:08Z</time>
      </trkpt>
      <trkpt lat="43.57776" lon="6.9009">
        <ele>425.04</ele>
        <time>2012-03-11T11:26:25Z</time>
      </trkpt>
      <trkpt lat="43.57744" lon="6.90113">
        <ele>426.48</ele>
        <time>2012-03-11T11:26:38Z</time>
      </trkpt>
      <trkpt lat="43.57709" lon="6.90154">
        <ele>426.48</ele>
        <time>2012-03-11T11:26:53Z</time>
      </trkpt>
      <trkpt lat="43.57677" lon="6.90189">
        <ele>426</ele>
        <time>2012-03-11T11:27:04Z</time>
      </trkpt>
      <trkpt lat="43.57606" lon="6.9024">
        <ele>419.75</ele>
        <time>2012-03-11T11:27:16Z</time>
      </trkpt>
      <trkpt lat="43.57583" lon="6.90265">
        <ele>418.79</ele>
        <time>2012-03-11T11:27:20Z</time>
      </trkpt>
      <trkpt lat="43.57527" lon="6.90288">
        <ele>419.75</ele>
        <time>2012-03-11T11:27:31Z</time>
      </trkpt>
      <trkpt lat="43.57478" lon="6.90327">
        <ele>424.08</ele>
        <time>2012-03-11T11:27:48Z</time>
      </trkpt>
      <trkpt lat="43.57433" lon="6.90393">
        <ele>429.85</ele>
        <time>2012-03-11T11:28:08Z</time>
      </trkpt>
      <trkpt lat="43.57394" lon="6.90454">
        <ele>431.77</ele>
        <time>2012-03-11T11:28:26Z</time>
      </trkpt>
      <trkpt lat="43.57359" lon="6.90497">
        <ele>432.73</ele>
        <time>2012-03-11T11:28:41Z</time>
      </trkpt>
      <trkpt lat="43.5731" lon="6.90506">
        <ele>435.13</ele>
        <time>2012-03-11T11:28:58Z</time>
      </trkpt>
      <trkpt lat="43.57262" lon="6.90507">
        <ele>436.58</ele>
        <time>2012-03-11T11:29:15Z</time>
      </trkpt>
      <trkpt lat="43.57223" lon="6.90491">
        <ele>438.02</ele>
        <time>2012-03-11T11:29:29Z</time>
      </trkpt>
      <trkpt lat="43.57176" lon="6.90481">
        <ele>439.46</ele>
        <time>2012-03-11T11:29:45Z</time>
      </trkpt>
      <trkpt lat="43.57135" lon="6.90476">
        <ele>443.79</ele>
        <time>2012-03-11T11:29:59Z</time>
      </trkpt>
      <trkpt lat="43.57079" lon="6.90456">
        <ele>446.67</ele>
        <time>2012-03-11T11:30:18Z</time>
      </trkpt>
      <trkpt lat="43.57032" lon="6.90439">
        <ele>448.59</ele>
        <time>2012-03-11T11:30:35Z</time>
      </trkpt>
      <trkpt lat="43.56998" lon="6.90405">
        <ele>449.55</ele>
        <time>2012-03-11T11:30:50Z</time>
      </trkpt>
      <trkpt lat="43.56958" lon="6.90399">
        <ele>451.96</ele>
        <time>2012-03-11T11:31:05Z</time>
      </trkpt>
      <trkpt lat="43.56914" lon="6.90444">
        <ele>453.88</ele>
        <time>2012-03-11T11:31:24Z</time>
      </trkpt>
      <trkpt lat="43.56871" lon="6.90482">
        <ele>456.28</ele>
        <time>2012-03-11T11:31:42Z</time>
      </trkpt>
      <trkpt lat="43.56839" lon="6.90524">
        <ele>457.24</ele>
        <time>2012-03-11T11:31:57Z</time>
      </trkpt>
      <trkpt lat="43.56798" lon="6.90526">
        <ele>460.13</ele>
        <time>2012-03-11T11:32:10Z</time>
      </trkpt>
      <trkpt lat="43.56751" lon="6.90508">
        <ele>461.57</ele>
        <time>2012-03-11T11:32:27Z</time>
      </trkpt>
      <trkpt lat="43.56713" lon="6.90495">
        <ele>463.49</ele>
        <time>2012-03-11T11:32:40Z</time>
      </trkpt>
      <trkpt lat="43.5666" lon="6.90489">
        <ele>465.42</ele>
        <time>2012-03-11T11:32:58Z</time>
      </trkpt>
      <trkpt lat="43.56624" lon="6.90464">
        <ele>467.34</ele>
        <time>2012-03-11T11:33:13Z</time>
      </trkpt>
      <trkpt lat="43.56606" lon="6.90436">
        <ele>467.82</ele>
        <time>2012-03-11T11:33:20Z</time>
      </trkpt>
      <trkpt lat="43.56567" lon="6.90412">
        <ele>464.93</ele>
        <time>2012-03-11T11:33:28Z</time>
      </trkpt>
      <trkpt lat="43.56534" lon="6.90406">
        <ele>463.97</ele>
        <time>2012-03-11T11:33:34Z</time>
      </trkpt>
      <trkpt lat="43.56473" lon="6.90435">
        <ele>462.53</ele>
        <time>2012-03-11T11:33:49Z</time>
      </trkpt>
      <trkpt lat="43.56452" lon="6.90464">
        <ele>460.61</ele>
        <time>2012-03-11T11:33:55Z</time>
      </trkpt>
      <trkpt lat="43.56404" lon="6.90556">
        <ele>454.36</ele>
        <time>2012-03-11T11:34:10Z</time>
      </trkpt>
      <trkpt lat="43.56381" lon="6.90595">
        <ele>451.48</ele>
        <time>2012-03-11T11:34:16Z</time>
      </trkpt>
      <trkpt lat="43.56353" lon="6.90613">
        <ele>449.55</ele>
        <time>2012-03-11T11:34:21Z</time>
      </trkpt>
      <trkpt lat="43.56312" lon="6.90632">
        <ele>449.07</ele>
        <time>2012-03-11T11:34:28Z</time>
      </trkpt>
      <trkpt lat="43.56305" lon="6.90646">
        <ele>449.07</ele>
        <time>2012-03-11T11:34:30Z</time>
      </trkpt>
      <trkpt lat="43.56262" lon="6.90666">
        <ele>446.67</ele>
        <time>2012-03-11T11:34:37Z</time>
      </trkpt>
      <trkpt lat="43.56229" lon="6.90697">
        <ele>445.71</ele>
        <time>2012-03-11T11:34:44Z</time>
      </trkpt>
      <trkpt lat="43.56241" lon="6.90737">
        <ele>444.75</ele>
        <time>2012-03-11T11:34:49Z</time>
      </trkpt>
      <trkpt lat="43.56281" lon="6.90788">
        <ele>442.34</ele>
        <time>2012-03-11T11:34:57Z</time>
      </trkpt>
      <trkpt lat="43.56327" lon="6.90791">
        <ele>446.67</ele>
        <time>2012-03-11T11:35:04Z</time>
      </trkpt>
      <trkpt lat="43.56375" lon="6.90794">
        <ele>449.07</ele>
        <time>2012-03-11T11:35:11Z</time>
      </trkpt>
      <trkpt lat="43.56383" lon="6.90843">
        <ele>447.15</ele>
        <time>2012-03-11T11:35:16Z</time>
      </trkpt>
      <trkpt lat="43.56382" lon="6.90854">
        <ele>446.67</ele>
        <time>2012-03-11T11:35:17Z</time>
      </trkpt>
      <trkpt lat="43.56378" lon="6.90896">
        <ele>443.79</ele>
        <time>2012-03-11T11:35:21Z</time>
      </trkpt>
      <trkpt lat="43.56351" lon="6.9095">
        <ele>438.02</ele>
        <time>2012-03-11T11:35:27Z</time>
      </trkpt>
      <trkpt lat="43.56324" lon="6.90978">
        <ele>434.65</ele>
        <time>2012-03-11T11:35:31Z</time>
      </trkpt>
      <trkpt lat="43.56295" lon="6.91052">
        <ele>429.85</ele>
        <time>2012-03-11T11:35:38Z</time>
      </trkpt>
      <trkpt lat="43.56285" lon="6.91111">
        <ele>427.44</ele>
        <time>2012-03-11T11:35:43Z</time>
      </trkpt>
      <trkpt lat="43.56287" lon="6.91186">
        <ele>426</ele>
        <time>2012-03-11T11:35:50Z</time>
      </trkpt>
      <trkpt lat="43.56276" lon="6.91236">
        <ele>424.56</ele>
        <time>2012-03-11T11:35:56Z</time>
      </trkpt>
      <trkpt lat="43.56264" lon="6.91255">
        <ele>424.08</ele>
        <time>2012-03-11T11:35:59Z</time>
      </trkpt>
      <trkpt lat="43.56257" lon="6.91318">
        <ele>422.64</ele>
        <time>2012-03-11T11:36:07Z</time>
      </trkpt>
      <trkpt lat="43.5626" lon="6.91326">
        <ele>422.64</ele>
        <time>2012-03-11T11:36:08Z</time>
      </trkpt>
      <trkpt lat="43.56297" lon="6.91394">
        <ele>419.75</ele>
        <time>2012-03-11T11:36:18Z</time>
      </trkpt>
      <trkpt lat="43.56305" lon="6.91461">
        <ele>415.43</ele>
        <time>2012-03-11T11:36:25Z</time>
      </trkpt>
      <trkpt lat="43.56292" lon="6.91508">
        <ele>411.58</ele>
        <time>2012-03-11T11:36:30Z</time>
      </trkpt>
      <trkpt lat="43.56278" lon="6.9153">
        <ele>407.74</ele>
        <time>2012-03-11T11:36:38Z</time>
      </trkpt>
      <trkpt lat="43.56278" lon="6.9153">
        <ele>407.74</ele>
        <time>2012-03-11T11:36:50Z</time>
      </trkpt>
      <trkpt lat="43.56278" lon="6.9153">
        <ele>407.74</ele>
        <time>2012-03-11T11:37:07Z</time>
      </trkpt>
      <trkpt lat="43.56278" lon="6.9153">
        <ele>407.74</ele>
        <time>2012-03-11T11:37:13Z</time>
      </trkpt>
      <trkpt lat="43.56266" lon="6.91539">
        <ele>407.26</ele>
        <time>2012-03-11T11:37:20Z</time>
      </trkpt>
      <trkpt lat="43.5624" lon="6.91559">
        <ele>405.33</ele>
        <time>2012-03-11T11:37:27Z</time>
      </trkpt>
      <trkpt lat="43.56221" lon="6.91556">
        <ele>402.45</ele>
        <time>2012-03-11T11:37:31Z</time>
      </trkpt>
      <trkpt lat="43.5619" lon="6.91568">
        <ele>398.12</ele>
        <time>2012-03-11T11:37:40Z</time>
      </trkpt>
      <trkpt lat="43.56162" lon="6.9154">
        <ele>394.76</ele>
        <time>2012-03-11T11:37:46Z</time>
      </trkpt>
      <trkpt lat="43.56157" lon="6.91537">
        <ele>394.28</ele>
        <time>2012-03-11T11:37:47Z</time>
      </trkpt>
      <trkpt lat="43.56148" lon="6.91534">
        <ele>393.8</ele>
        <time>2012-03-11T11:37:49Z</time>
      </trkpt>
      <trkpt lat="43.56117" lon="6.9153">
        <ele>391.87</ele>
        <time>2012-03-11T11:37:54Z</time>
      </trkpt>
      <trkpt lat="43.56104" lon="6.91532">
        <ele>391.87</ele>
        <time>2012-03-11T11:37:56Z</time>
      </trkpt>
      <trkpt lat="43.56084" lon="6.91547">
        <ele>391.87</ele>
        <time>2012-03-11T11:38:00Z</time>
      </trkpt>
      <trkpt lat="43.56071" lon="6.91558">
        <ele>391.39</ele>
        <time>2012-03-11T11:38:03Z</time>
      </trkpt>
      <trkpt lat="43.56039" lon="6.91573">
        <ele>387.55</ele>
        <time>2012-03-11T11:38:11Z</time>
      </trkpt>
      <trkpt lat="43.5603" lon="6.91568">
        <ele>386.11</ele>
        <time>2012-03-11T11:38:13Z</time>
      </trkpt>
      <trkpt lat="43.56023" lon="6.91567">
        <ele>384.66</ele>
        <time>2012-03-11T11:38:15Z</time>
      </trkpt>
      <trkpt lat="43.56005" lon="6.91555">
        <ele>382.74</ele>
        <time>2012-03-11T11:38:19Z</time>
      </trkpt>
      <trkpt lat="43.55994" lon="6.91549">
        <ele>382.74</ele>
        <time>2012-03-11T11:38:21Z</time>
      </trkpt>
      <trkpt lat="43.55968" lon="6.91534">
        <ele>381.3</ele>
        <time>2012-03-11T11:38:26Z</time>
      </trkpt>
      <trkpt lat="43.55957" lon="6.91524">
        <ele>379.86</ele>
        <time>2012-03-11T11:38:30Z</time>
      </trkpt>
      <trkpt lat="43.55947" lon="6.91511">
        <ele>379.38</ele>
        <time>2012-03-11T11:38:33Z</time>
      </trkpt>
      <trkpt lat="43.55921" lon="6.91516">
        <ele>376.97</ele>
        <time>2012-03-11T11:38:39Z</time>
      </trkpt>
      <trkpt lat="43.55915" lon="6.91507">
        <ele>376.01</ele>
        <time>2012-03-11T11:38:43Z</time>
      </trkpt>
      <trkpt lat="43.55899" lon="6.91506">
        <ele>373.61</ele>
        <time>2012-03-11T11:38:48Z</time>
      </trkpt>
      <trkpt lat="43.55886" lon="6.91521">
        <ele>368.32</ele>
        <time>2012-03-11T11:38:53Z</time>
      </trkpt>
      <trkpt lat="43.55882" lon="6.91529">
        <ele>366.88</ele>
        <time>2012-03-11T11:38:55Z</time>
      </trkpt>
      <trkpt lat="43.55861" lon="6.91545">
        <ele>363.04</ele>
        <time>2012-03-11T11:39:02Z</time>
      </trkpt>
      <trkpt lat="43.55851" lon="6.91545">
        <ele>361.59</ele>
        <time>2012-03-11T11:39:05Z</time>
      </trkpt>
      <trkpt lat="43.55844" lon="6.91551">
        <ele>360.15</ele>
        <time>2012-03-11T11:39:07Z</time>
      </trkpt>
      <trkpt lat="43.55828" lon="6.91543">
        <ele>354.86</ele>
        <time>2012-03-11T11:39:14Z</time>
      </trkpt>
      <trkpt lat="43.5582" lon="6.91552">
        <ele>352.94</ele>
        <time>2012-03-11T11:39:16Z</time>
      </trkpt>
      <trkpt lat="43.55805" lon="6.91562">
        <ele>347.65</ele>
        <time>2012-03-11T11:39:22Z</time>
      </trkpt>
      <trkpt lat="43.55783" lon="6.9157">
        <ele>339.96</ele>
        <time>2012-03-11T11:39:28Z</time>
      </trkpt>
      <trkpt lat="43.5578" lon="6.91593">
        <ele>337.08</ele>
        <time>2012-03-11T11:39:32Z</time>
      </trkpt>
      <trkpt lat="43.55759" lon="6.91651">
        <ele>330.35</ele>
        <time>2012-03-11T11:39:40Z</time>
      </trkpt>
      <trkpt lat="43.55751" lon="6.91686">
        <ele>323.14</ele>
        <time>2012-03-11T11:39:46Z</time>
      </trkpt>
      <trkpt lat="43.5572" lon="6.91717">
        <ele>315.45</ele>
        <time>2012-03-11T11:39:52Z</time>
      </trkpt>
      <trkpt lat="43.55673" lon="6.91735">
        <ele>310.64</ele>
        <time>2012-03-11T11:39:58Z</time>
      </trkpt>
      <trkpt lat="43.55635" lon="6.91727">
        <ele>308.24</ele>
        <time>2012-03-11T11:40:03Z</time>
      </trkpt>
      <trkpt lat="43.55606" lon="6.91737">
        <ele>306.8</ele>
        <time>2012-03-11T11:40:09Z</time>
      </trkpt>
      <trkpt lat="43.55594" lon="6.91748">
        <ele>305.84</ele>
        <time>2012-03-11T11:40:12Z</time>
      </trkpt>
      <trkpt lat="43.55581" lon="6.91764">
        <ele>302.95</ele>
        <time>2012-03-11T11:40:15Z</time>
      </trkpt>
      <trkpt lat="43.5557" lon="6.91795">
        <ele>299.11</ele>
        <time>2012-03-11T11:40:19Z</time>
      </trkpt>
      <trkpt lat="43.55553" lon="6.91806">
        <ele>294.3</ele>
        <time>2012-03-11T11:40:23Z</time>
      </trkpt>
      <trkpt lat="43.55546" lon="6.91827">
        <ele>289.01</ele>
        <time>2012-03-11T11:40:29Z</time>
      </trkpt>
      <trkpt lat="43.55524" lon="6.91844">
        <ele>282.77</ele>
        <time>2012-03-11T11:40:36Z</time>
      </trkpt>
      <trkpt lat="43.55516" lon="6.91852">
        <ele>280.84</ele>
        <time>2012-03-11T11:40:40Z</time>
      </trkpt>
      <trkpt lat="43.55512" lon="6.91874">
        <ele>277.96</ele>
        <time>2012-03-11T11:40:45Z</time>
      </trkpt>
      <trkpt lat="43.55503" lon="6.91888">
        <ele>275.07</ele>
        <time>2012-03-11T11:40:48Z</time>
      </trkpt>
      <trkpt lat="43.55491" lon="6.91912">
        <ele>273.15</ele>
        <time>2012-03-11T11:40:52Z</time>
      </trkpt>
      <trkpt lat="43.55487" lon="6.91928">
        <ele>270.75</ele>
        <time>2012-03-11T11:40:55Z</time>
      </trkpt>
      <trkpt lat="43.55487" lon="6.91941">
        <ele>269.79</ele>
        <time>2012-03-11T11:40:57Z</time>
      </trkpt>
      <trkpt lat="43.55491" lon="6.91973">
        <ele>263.06</ele>
        <time>2012-03-11T11:41:03Z</time>
      </trkpt>
      <trkpt lat="43.55501" lon="6.91999">
        <ele>258.73</ele>
        <time>2012-03-11T11:41:07Z</time>
      </trkpt>
      <trkpt lat="43.55502" lon="6.92027">
        <ele>255.85</ele>
        <time>2012-03-11T11:41:10Z</time>
      </trkpt>
      <trkpt lat="43.55498" lon="6.92073">
        <ele>251.04</ele>
        <time>2012-03-11T11:41:15Z</time>
      </trkpt>
      <trkpt lat="43.555" lon="6.92111">
        <ele>247.2</ele>
        <time>2012-03-11T11:41:21Z</time>
      </trkpt>
      <trkpt lat="43.55508" lon="6.92131">
        <ele>241.91</ele>
        <time>2012-03-11T11:41:27Z</time>
      </trkpt>
      <trkpt lat="43.55519" lon="6.9212">
        <ele>239.51</ele>
        <time>2012-03-11T11:41:30Z</time>
      </trkpt>
      <trkpt lat="43.55529" lon="6.92099">
        <ele>235.18</ele>
        <time>2012-03-11T11:41:38Z</time>
      </trkpt>
      <trkpt lat="43.55529" lon="6.92099">
        <ele>235.18</ele>
        <time>2012-03-11T11:42:03Z</time>
      </trkpt>
      <trkpt lat="43.55528" lon="6.92098">
        <ele>235.66</ele>
        <time>2012-03-11T11:42:26Z</time>
      </trkpt>
      <trkpt lat="43.55528" lon="6.92098">
        <ele>235.66</ele>
        <time>2012-03-11T11:42:53Z</time>
      </trkpt>
      <trkpt lat="43.55529" lon="6.92099">
        <ele>236.14</ele>
        <time>2012-03-11T11:43:24Z</time>
      </trkpt>
      <trkpt lat="43.55528" lon="6.92099">
        <ele>236.14</ele>
        <time>2012-03-11T11:43:59Z</time>
      </trkpt>
      <trkpt lat="43.55528" lon="6.92099">
        <ele>236.14</ele>
        <time>2012-03-11T11:44:13Z</time>
      </trkpt>
      <trkpt lat="43.55542" lon="6.92057">
        <ele>235.18</ele>
        <time>2012-03-11T11:44:22Z</time>
      </trkpt>
      <trkpt lat="43.55563" lon="6.92035">
        <ele>235.18</ele>
        <time>2012-03-11T11:44:26Z</time>
      </trkpt>
      <trkpt lat="43.5559" lon="6.92024">
        <ele>240.47</ele>
        <time>2012-03-11T11:44:35Z</time>
      </trkpt>
      <trkpt lat="43.55594" lon="6.92024">
        <ele>240.95</ele>
        <time>2012-03-11T11:44:36Z</time>
      </trkpt>
      <trkpt lat="43.55606" lon="6.92023">
        <ele>241.43</ele>
        <time>2012-03-11T11:44:39Z</time>
      </trkpt>
      <trkpt lat="43.55613" lon="6.92035">
        <ele>241.91</ele>
        <time>2012-03-11T11:44:45Z</time>
      </trkpt>
      <trkpt lat="43.55618" lon="6.92039">
        <ele>241.43</ele>
        <time>2012-03-11T11:44:47Z</time>
      </trkpt>
      <trkpt lat="43.55646" lon="6.92072">
        <ele>236.62</ele>
        <time>2012-03-11T11:44:54Z</time>
      </trkpt>
      <trkpt lat="43.55624" lon="6.92089">
        <ele>234.7</ele>
        <time>2012-03-11T11:45:00Z</time>
      </trkpt>
      <trkpt lat="43.55614" lon="6.92136">
        <ele>231.33</ele>
        <time>2012-03-11T11:45:07Z</time>
      </trkpt>
      <trkpt lat="43.55628" lon="6.92183">
        <ele>228.93</ele>
        <time>2012-03-11T11:45:14Z</time>
      </trkpt>
      <trkpt lat="43.55644" lon="6.9221">
        <ele>227.01</ele>
        <time>2012-03-11T11:45:18Z</time>
      </trkpt>
      <trkpt lat="43.55648" lon="6.92219">
        <ele>227.01</ele>
        <time>2012-03-11T11:45:20Z</time>
      </trkpt>
      <trkpt lat="43.55656" lon="6.92251">
        <ele>225.57</ele>
        <time>2012-03-11T11:45:25Z</time>
      </trkpt>
      <trkpt lat="43.55664" lon="6.92285">
        <ele>222.2</ele>
        <time>2012-03-11T11:45:31Z</time>
      </trkpt>
      <trkpt lat="43.55643" lon="6.92309">
        <ele>217.4</ele>
        <time>2012-03-11T11:45:35Z</time>
      </trkpt>
      <trkpt lat="43.55636" lon="6.92296">
        <ele>214.51</ele>
        <time>2012-03-11T11:45:40Z</time>
      </trkpt>
      <trkpt lat="43.55636" lon="6.92288">
        <ele>214.03</ele>
        <time>2012-03-11T11:45:41Z</time>
      </trkpt>
      <trkpt lat="43.5562" lon="6.92256">
        <ele>210.67</ele>
        <time>2012-03-11T11:45:47Z</time>
      </trkpt>
      <trkpt lat="43.55595" lon="6.92278">
        <ele>207.78</ele>
        <time>2012-03-11T11:45:52Z</time>
      </trkpt>
      <trkpt lat="43.5559" lon="6.92285">
        <ele>207.3</ele>
        <time>2012-03-11T11:45:53Z</time>
      </trkpt>
      <trkpt lat="43.55566" lon="6.92321">
        <ele>202.98</ele>
        <time>2012-03-11T11:45:58Z</time>
      </trkpt>
      <trkpt lat="43.55549" lon="6.92343">
        <ele>202.49</ele>
        <time>2012-03-11T11:46:03Z</time>
      </trkpt>
      <trkpt lat="43.55533" lon="6.92348">
        <ele>201.53</ele>
        <time>2012-03-11T11:46:07Z</time>
      </trkpt>
      <trkpt lat="43.55507" lon="6.92343">
        <ele>200.09</ele>
        <time>2012-03-11T11:46:12Z</time>
      </trkpt>
      <trkpt lat="43.55483" lon="6.92347">
        <ele>197.69</ele>
        <time>2012-03-11T11:46:17Z</time>
      </trkpt>
      <trkpt lat="43.55477" lon="6.92343">
        <ele>197.21</ele>
        <time>2012-03-11T11:46:19Z</time>
      </trkpt>
      <trkpt lat="43.55449" lon="6.9235">
        <ele>194.8</ele>
        <time>2012-03-11T11:46:26Z</time>
      </trkpt>
      <trkpt lat="43.55443" lon="6.9237">
        <ele>190.96</ele>
        <time>2012-03-11T11:46:32Z</time>
      </trkpt>
      <trkpt lat="43.5544" lon="6.92387">
        <ele>187.59</ele>
        <time>2012-03-11T11:46:35Z</time>
      </trkpt>
      <trkpt lat="43.55415" lon="6.92436">
        <ele>181.35</ele>
        <time>2012-03-11T11:46:41Z</time>
      </trkpt>
      <trkpt lat="43.5539" lon="6.92487">
        <ele>176.06</ele>
        <time>2012-03-11T11:46:46Z</time>
      </trkpt>
      <trkpt lat="43.55363" lon="6.9255">
        <ele>168.37</ele>
        <time>2012-03-11T11:46:54Z</time>
      </trkpt>
      <trkpt lat="43.55339" lon="6.92575">
        <ele>168.37</ele>
        <time>2012-03-11T11:47:02Z</time>
      </trkpt>
      <trkpt lat="43.55318" lon="6.92587">
        <ele>167.89</ele>
        <time>2012-03-11T11:47:08Z</time>
      </trkpt>
      <trkpt lat="43.55331" lon="6.92597">
        <ele>164.04</ele>
        <time>2012-03-11T11:47:14Z</time>
      </trkpt>
      <trkpt lat="43.55337" lon="6.92614">
        <ele>161.16</ele>
        <time>2012-03-11T11:47:19Z</time>
      </trkpt>
      <trkpt lat="43.55333" lon="6.92622">
        <ele>159.24</ele>
        <time>2012-03-11T11:47:21Z</time>
      </trkpt>
      <trkpt lat="43.55321" lon="6.92636">
        <ele>155.39</ele>
        <time>2012-03-11T11:47:26Z</time>
      </trkpt>
      <trkpt lat="43.55337" lon="6.9265">
        <ele>152.03</ele>
        <time>2012-03-11T11:47:32Z</time>
      </trkpt>
      <trkpt lat="43.55338" lon="6.92666">
        <ele>148.66</ele>
        <time>2012-03-11T11:47:37Z</time>
      </trkpt>
      <trkpt lat="43.55341" lon="6.92684">
        <ele>145.3</ele>
        <time>2012-03-11T11:47:43Z</time>
      </trkpt>
      <trkpt lat="43.55349" lon="6.92696">
        <ele>140.97</ele>
        <time>2012-03-11T11:47:48Z</time>
      </trkpt>
      <trkpt lat="43.55339" lon="6.92721">
        <ele>136.16</ele>
        <time>2012-03-11T11:47:54Z</time>
      </trkpt>
      <trkpt lat="43.55356" lon="6.92727">
        <ele>132.32</ele>
        <time>2012-03-11T11:47:59Z</time>
      </trkpt>
      <trkpt lat="43.5536" lon="6.92737">
        <ele>129.43</ele>
        <time>2012-03-11T11:48:04Z</time>
      </trkpt>
      <trkpt lat="43.55367" lon="6.92738">
        <ele>128.47</ele>
        <time>2012-03-11T11:48:06Z</time>
      </trkpt>
      <trkpt lat="43.55374" lon="6.92765">
        <ele>124.15</ele>
        <time>2012-03-11T11:48:11Z</time>
      </trkpt>
      <trkpt lat="43.5538" lon="6.92795">
        <ele>119.82</ele>
        <time>2012-03-11T11:48:15Z</time>
      </trkpt>
      <trkpt lat="43.55387" lon="6.92846">
        <ele>115.98</ele>
        <time>2012-03-11T11:48:21Z</time>
      </trkpt>
      <trkpt lat="43.55394" lon="6.9291">
        <ele>112.13</ele>
        <time>2012-03-11T11:48:27Z</time>
      </trkpt>
      <trkpt lat="43.55392" lon="6.92955">
        <ele>109.25</ele>
        <time>2012-03-11T11:48:31Z</time>
      </trkpt>
      <trkpt lat="43.5539" lon="6.92978">
        <ele>108.29</ele>
        <time>2012-03-11T11:48:37Z</time>
      </trkpt>
      <trkpt lat="43.5539" lon="6.92978">
        <ele>108.77</ele>
        <time>2012-03-11T11:48:38Z</time>
      </trkpt>
      <trkpt lat="43.55389" lon="6.92983">
        <ele>111.17</ele>
        <time>2012-03-11T11:48:43Z</time>
      </trkpt>
      <trkpt lat="43.55392" lon="6.93004">
        <ele>113.57</ele>
        <time>2012-03-11T11:48:55Z</time>
      </trkpt>
      <trkpt lat="43.55391" lon="6.93032">
        <ele>113.09</ele>
        <time>2012-03-11T11:49:00Z</time>
      </trkpt>
      <trkpt lat="43.55389" lon="6.93063">
        <ele>110.69</ele>
        <time>2012-03-11T11:49:04Z</time>
      </trkpt>
      <trkpt lat="43.55381" lon="6.93092">
        <ele>109.25</ele>
        <time>2012-03-11T11:49:08Z</time>
      </trkpt>
      <trkpt lat="43.5537" lon="6.93127">
        <ele>107.32</ele>
        <time>2012-03-11T11:49:13Z</time>
      </trkpt>
      <trkpt lat="43.55389" lon="6.93133">
        <ele>101.56</ele>
        <time>2012-03-11T11:49:19Z</time>
      </trkpt>
      <trkpt lat="43.554" lon="6.93132">
        <ele>99.63</ele>
        <time>2012-03-11T11:49:22Z</time>
      </trkpt>
      <trkpt lat="43.55409" lon="6.93145">
        <ele>98.67</ele>
        <time>2012-03-11T11:49:27Z</time>
      </trkpt>
      <trkpt lat="43.55419" lon="6.93151">
        <ele>97.71</ele>
        <time>2012-03-11T11:49:29Z</time>
      </trkpt>
      <trkpt lat="43.55429" lon="6.9318">
        <ele>93.87</ele>
        <time>2012-03-11T11:49:36Z</time>
      </trkpt>
      <trkpt lat="43.55436" lon="6.93194">
        <ele>90.5</ele>
        <time>2012-03-11T11:49:40Z</time>
      </trkpt>
      <trkpt lat="43.55453" lon="6.93207">
        <ele>86.18</ele>
        <time>2012-03-11T11:49:46Z</time>
      </trkpt>
      <trkpt lat="43.55455" lon="6.93227">
        <ele>82.33</ele>
        <time>2012-03-11T11:49:53Z</time>
      </trkpt>
      <trkpt lat="43.55454" lon="6.93233">
        <ele>81.37</ele>
        <time>2012-03-11T11:49:55Z</time>
      </trkpt>
      <trkpt lat="43.55456" lon="6.93263">
        <ele>76.56</ele>
        <time>2012-03-11T11:50:03Z</time>
      </trkpt>
      <trkpt lat="43.55454" lon="6.93277">
        <ele>72.72</ele>
        <time>2012-03-11T11:50:10Z</time>
      </trkpt>
      <trkpt lat="43.55459" lon="6.9329">
        <ele>69.83</ele>
        <time>2012-03-11T11:50:17Z</time>
      </trkpt>
      <trkpt lat="43.55464" lon="6.93296">
        <ele>68.39</ele>
        <time>2012-03-11T11:50:20Z</time>
      </trkpt>
      <trkpt lat="43.55471" lon="6.93298">
        <ele>67.43</ele>
        <time>2012-03-11T11:50:22Z</time>
      </trkpt>
      <trkpt lat="43.55481" lon="6.93287">
        <ele>65.99</ele>
        <time>2012-03-11T11:50:25Z</time>
      </trkpt>
      <trkpt lat="43.55502" lon="6.93274">
        <ele>61.66</ele>
        <time>2012-03-11T11:50:32Z</time>
      </trkpt>
      <trkpt lat="43.55506" lon="6.93268">
        <ele>59.26</ele>
        <time>2012-03-11T11:50:37Z</time>
      </trkpt>
      <trkpt lat="43.55497" lon="6.93234">
        <ele>57.34</ele>
        <time>2012-03-11T11:50:43Z</time>
      </trkpt>
      <trkpt lat="43.55497" lon="6.93215">
        <ele>56.86</ele>
        <time>2012-03-11T11:50:46Z</time>
      </trkpt>
      <trkpt lat="43.555" lon="6.93196">
        <ele>57.34</ele>
        <time>2012-03-11T11:50:49Z</time>
      </trkpt>
      <trkpt lat="43.55499" lon="6.93157">
        <ele>59.26</ele>
        <time>2012-03-11T11:51:00Z</time>
      </trkpt>
      <trkpt lat="43.55489" lon="6.93115">
        <ele>62.14</ele>
        <time>2012-03-11T11:51:11Z</time>
      </trkpt>
      <trkpt lat="43.55485" lon="6.93068">
        <ele>61.66</ele>
        <time>2012-03-11T11:51:21Z</time>
      </trkpt>
      <trkpt lat="43.55498" lon="6.93076">
        <ele>61.66</ele>
        <time>2012-03-11T11:51:30Z</time>
      </trkpt>
      <trkpt lat="43.55505" lon="6.93091">
        <ele>62.14</ele>
        <time>2012-03-11T11:51:33Z</time>
      </trkpt>
      <trkpt lat="43.55514" lon="6.93108">
        <ele>60.7</ele>
        <time>2012-03-11T11:51:37Z</time>
      </trkpt>
      <trkpt lat="43.55533" lon="6.93153">
        <ele>53.49</ele>
        <time>2012-03-11T11:51:46Z</time>
      </trkpt>
      <trkpt lat="43.5554" lon="6.93171">
        <ele>54.45</ele>
        <time>2012-03-11T11:51:53Z</time>
      </trkpt>
      <trkpt lat="43.5554" lon="6.93179">
        <ele>54.93</ele>
        <time>2012-03-11T11:52:03Z</time>
      </trkpt>
      <trkpt lat="43.55541" lon="6.93189">
        <ele>55.41</ele>
        <time>2012-03-11T11:52:16Z</time>
      </trkpt>
      <trkpt lat="43.55546" lon="6.93214">
        <ele>53.01</ele>
        <time>2012-03-11T11:52:25Z</time>
      </trkpt>
      <trkpt lat="43.55558" lon="6.93243">
        <ele>50.13</ele>
        <time>2012-03-11T11:52:31Z</time>
      </trkpt>
      <trkpt lat="43.55568" lon="6.93258">
        <ele>47.72</ele>
        <time>2012-03-11T11:52:34Z</time>
      </trkpt>
      <trkpt lat="43.55578" lon="6.93277">
        <ele>45.32</ele>
        <time>2012-03-11T11:52:37Z</time>
      </trkpt>
      <trkpt lat="43.55589" lon="6.93333">
        <ele>40.03</ele>
        <time>2012-03-11T11:52:46Z</time>
      </trkpt>
      <trkpt lat="43.55587" lon="6.93339">
        <ele>39.07</ele>
        <time>2012-03-11T11:52:47Z</time>
      </trkpt>
      <trkpt lat="43.55568" lon="6.93387">
        <ele>32.82</ele>
        <time>2012-03-11T11:52:55Z</time>
      </trkpt>
      <trkpt lat="43.55568" lon="6.9339">
        <ele>32.82</ele>
        <time>2012-03-11T11:52:56Z</time>
      </trkpt>
      <trkpt lat="43.55566" lon="6.93406">
        <ele>32.34</ele>
        <time>2012-03-11T11:53:00Z</time>
      </trkpt>
      <trkpt lat="43.55561" lon="6.93437">
        <ele>28.5</ele>
        <time>2012-03-11T11:53:09Z</time>
      </trkpt>
      <trkpt lat="43.55562" lon="6.93438">
        <ele>28.98</ele>
        <time>2012-03-11T11:53:20Z</time>
      </trkpt>
      <trkpt lat="43.55562" lon="6.93438">
        <ele>28.98</ele>
        <time>2012-03-11T11:53:35Z</time>
      </trkpt>
      <trkpt lat="43.55562" lon="6.93438">
        <ele>28.98</ele>
        <time>2012-03-11T11:53:53Z</time>
      </trkpt>
      <trkpt lat="43.55562" lon="6.93438">
        <ele>28.98</ele>
        <time>2012-03-11T11:54:07Z</time>
      </trkpt>
      <trkpt lat="43.55562" lon="6.93439">
        <ele>29.46</ele>
        <time>2012-03-11T11:54:18Z</time>
      </trkpt>
      <trkpt lat="43.55562" lon="6.93439">
        <ele>29.46</ele>
        <time>2012-03-11T11:54:35Z</time>
      </trkpt>
      <trkpt lat="43.55562" lon="6.93439">
        <ele>29.46</ele>
        <time>2012-03-11T11:55:00Z</time>
      </trkpt>
      <trkpt lat="43.55562" lon="6.93439">
        <ele>29.46</ele>
        <time>2012-03-11T11:55:23Z</time>
      </trkpt>
      <trkpt lat="43.55561" lon="6.93438">
        <ele>29.46</ele>
        <time>2012-03-11T11:55:56Z</time>
      </trkpt>
      <trkpt lat="43.55561" lon="6.93437">
        <ele>28.98</ele>
        <time>2012-03-11T11:56:28Z</time>
      </trkpt>
      <trkpt lat="43.55568" lon="6.93452">
        <ele>30.9</ele>
        <time>2012-03-11T11:56:43Z</time>
      </trkpt>
      <trkpt lat="43.55581" lon="6.93486">
        <ele>31.86</ele>
        <time>2012-03-11T11:56:55Z</time>
      </trkpt>
      <trkpt lat="43.55591" lon="6.93497">
        <ele>33.78</ele>
        <time>2012-03-11T11:57:02Z</time>
      </trkpt>
      <trkpt lat="43.55605" lon="6.93493">
        <ele>37.15</ele>
        <time>2012-03-11T11:57:09Z</time>
      </trkpt>
      <trkpt lat="43.55615" lon="6.93518">
        <ele>36.19</ele>
        <time>2012-03-11T11:57:19Z</time>
      </trkpt>
      <trkpt lat="43.55612" lon="6.93522">
        <ele>35.71</ele>
        <time>2012-03-11T11:57:20Z</time>
      </trkpt>
      <trkpt lat="43.55607" lon="6.93529">
        <ele>34.74</ele>
        <time>2012-03-11T11:57:22Z</time>
      </trkpt>
      <trkpt lat="43.55591" lon="6.93561">
        <ele>30.9</ele>
        <time>2012-03-11T11:57:28Z</time>
      </trkpt>
      <trkpt lat="43.55582" lon="6.93587">
        <ele>28.5</ele>
        <time>2012-03-11T11:57:32Z</time>
      </trkpt>
      <trkpt lat="43.55573" lon="6.93638">
        <ele>24.17</ele>
        <time>2012-03-11T11:57:38Z</time>
      </trkpt>
      <trkpt lat="43.55553" lon="6.93674">
        <ele>20.81</ele>
        <time>2012-03-11T11:57:43Z</time>
      </trkpt>
      <trkpt lat="43.55539" lon="6.93685">
        <ele>18.88</ele>
        <time>2012-03-11T11:57:45Z</time>
      </trkpt>
      <trkpt lat="43.55512" lon="6.9373">
        <ele>15.04</ele>
        <time>2012-03-11T11:57:50Z</time>
      </trkpt>
      <trkpt lat="43.55501" lon="6.93761">
        <ele>12.63</ele>
        <time>2012-03-11T11:57:53Z</time>
      </trkpt>
      <trkpt lat="43.55512" lon="6.93797">
        <ele>10.23</ele>
        <time>2012-03-11T11:57:59Z</time>
      </trkpt>
      <trkpt lat="43.55519" lon="6.93799">
        <ele>9.75</ele>
        <time>2012-03-11T11:58:00Z</time>
      </trkpt>
      <trkpt lat="43.55537" lon="6.93805">
        <ele>8.79</ele>
        <time>2012-03-11T11:58:03Z</time>
      </trkpt>
      <trkpt lat="43.55556" lon="6.93854">
        <ele>6.39</ele>
        <time>2012-03-11T11:58:10Z</time>
      </trkpt>
      <trkpt lat="43.55551" lon="6.93876">
        <ele>5.91</ele>
        <time>2012-03-11T11:58:14Z</time>
      </trkpt>
      <trkpt lat="43.55546" lon="6.9391">
        <ele>3.98</ele>
        <time>2012-03-11T11:58:21Z</time>
      </trkpt>
      <trkpt lat="43.55549" lon="6.93913">
        <ele>3.98</ele>
        <time>2012-03-11T11:58:22Z</time>
      </trkpt>
      <trkpt lat="43.55559" lon="6.93942">
        <ele>3.5</ele>
        <time>2012-03-11T11:58:27Z</time>
      </trkpt>
      <trkpt lat="43.55562" lon="6.93994">
        <ele>3.02</ele>
        <time>2012-03-11T11:58:34Z</time>
      </trkpt>
      <trkpt lat="43.55561" lon="6.94048">
        <ele>2.54</ele>
        <time>2012-03-11T11:58:42Z</time>
      </trkpt>
      <trkpt lat="43.55554" lon="6.94079">
        <ele>2.54</ele>
        <time>2012-03-11T11:58:47Z</time>
      </trkpt>
      <trkpt lat="43.55546" lon="6.94102">
        <ele>3.5</ele>
        <time>2012-03-11T11:58:51Z</time>
      </trkpt>
      <trkpt lat="43.55531" lon="6.94118">
        <ele>4.46</ele>
        <time>2012-03-11T11:58:55Z</time>
      </trkpt>
      <trkpt lat="43.55454" lon="6.94138">
        <ele>5.42</ele>
        <time>2012-03-11T11:59:10Z</time>
      </trkpt>
      <trkpt lat="43.55436" lon="6.94142">
        <ele>6.39</ele>
        <time>2012-03-11T11:59:14Z</time>
      </trkpt>
      <trkpt lat="43.55436" lon="6.94151">
        <ele>7.83</ele>
        <time>2012-03-11T11:59:18Z</time>
      </trkpt>
      <trkpt lat="43.55443" lon="6.94164">
        <ele>9.27</ele>
        <time>2012-03-11T11:59:23Z</time>
      </trkpt>
      <trkpt lat="43.55429" lon="6.94273">
        <ele>5.91</ele>
        <time>2012-03-11T11:59:41Z</time>
      </trkpt>
      <trkpt lat="43.55421" lon="6.94323">
        <ele>3.98</ele>
        <time>2012-03-11T11:59:50Z</time>
      </trkpt>
      <trkpt lat="43.55397" lon="6.94344">
        <ele>2.54</ele>
        <time>2012-03-11T11:59:56Z</time>
      </trkpt>
      <trkpt lat="43.55315" lon="6.94338">
        <ele>1.1</ele>
        <time>2012-03-11T12:00:12Z</time>
      </trkpt>
      <trkpt lat="43.55297" lon="6.9434">
        <ele>0.62</ele>
        <time>2012-03-11T12:00:16Z</time>
      </trkpt>
      <trkpt lat="43.5528" lon="6.94337">
        <ele>-1.79</ele>
        <time>2012-03-11T12:00:20Z</time>
      </trkpt>
      <trkpt lat="43.55229" lon="6.94323">
        <ele>-1.79</ele>
        <time>2012-03-11T12:00:31Z</time>
      </trkpt>
      <trkpt lat="43.552" lon="6.94317">
        <ele>-2.27</ele>
        <time>2012-03-11T12:00:37Z</time>
      </trkpt>
      <trkpt lat="43.55171" lon="6.94312">
        <ele>-3.23</ele>
        <time>2012-03-11T12:00:43Z</time>
      </trkpt>
      <trkpt lat="43.55154" lon="6.94307">
        <ele>-3.71</ele>
        <time>2012-03-11T12:00:47Z</time>
      </trkpt>
      <trkpt lat="43.55141" lon="6.94304">
        <ele>-3.71</ele>
        <time>2012-03-11T12:00:50Z</time>
      </trkpt>
      <trkpt lat="43.55113" lon="6.94294">
        <ele>-1.3</ele>
        <time>2012-03-11T12:01:01Z</time>
      </trkpt>
      <trkpt lat="43.55113" lon="6.94295">
        <ele>-0.34</ele>
        <time>2012-03-11T12:01:10Z</time>
      </trkpt>
      <trkpt lat="43.55113" lon="6.943">
        <ele>2.06</ele>
        <time>2012-03-11T12:01:26Z</time>
      </trkpt>
      <trkpt lat="43.55113" lon="6.94302">
        <ele>2.54</ele>
        <time>2012-03-11T12:01:27Z</time>
      </trkpt>
      <trkpt lat="43.55113" lon="6.94307">
        <ele>2.54</ele>
        <time>2012-03-11T12:01:32Z</time>
      </trkpt>
      <trkpt lat="43.55108" lon="6.94339">
        <ele>0.14</ele>
        <time>2012-03-11T12:01:42Z</time>
      </trkpt>
      <trkpt lat="43.55073" lon="6.94338">
        <ele>-2.75</ele>
        <time>2012-03-11T12:01:52Z</time>
      </trkpt>
      <trkpt lat="43.55021" lon="6.9433">
        <ele>-3.71</ele>
        <time>2012-03-11T12:02:06Z</time>
      </trkpt>
      <trkpt lat="43.5499" lon="6.94341">
        <ele>-3.23</ele>
        <time>2012-03-11T12:02:15Z</time>
      </trkpt>
      <trkpt lat="43.54985" lon="6.94344">
        <ele>-3.23</ele>
        <time>2012-03-11T12:02:17Z</time>
      </trkpt>
      <trkpt lat="43.54972" lon="6.94355">
        <ele>-1.3</ele>
        <time>2012-03-11T12:02:24Z</time>
      </trkpt>
      <trkpt lat="43.54949" lon="6.94351">
        <ele>1.58</ele>
        <time>2012-03-11T12:02:34Z</time>
      </trkpt>
      <trkpt lat="43.54947" lon="6.94349">
        <ele>2.54</ele>
        <time>2012-03-11T12:02:36Z</time>
      </trkpt>
      <trkpt lat="43.54934" lon="6.94357">
        <ele>9.27</ele>
        <time>2012-03-11T12:02:41Z</time>
      </trkpt>
      <trkpt lat="43.54894" lon="6.94355">
        <ele>17.44</ele>
        <time>2012-03-11T12:02:54Z</time>
      </trkpt>
      <trkpt lat="43.54851" lon="6.94347">
        <ele>15.52</ele>
        <time>2012-03-11T12:03:06Z</time>
      </trkpt>
      <trkpt lat="43.5479" lon="6.94317">
        <ele>9.27</ele>
        <time>2012-03-11T12:03:20Z</time>
      </trkpt>
      <trkpt lat="43.54768" lon="6.9432">
        <ele>6.39</ele>
        <time>2012-03-11T12:03:28Z</time>
      </trkpt>
      <trkpt lat="43.54754" lon="6.94347">
        <ele>11.19</ele>
        <time>2012-03-11T12:03:35Z</time>
      </trkpt>
      <trkpt lat="43.54728" lon="6.94361">
        <ele>13.6</ele>
        <time>2012-03-11T12:03:43Z</time>
      </trkpt>
      <trkpt lat="43.54686" lon="6.944">
        <ele>15.52</ele>
        <time>2012-03-11T12:03:56Z</time>
      </trkpt>
      <trkpt lat="43.54631" lon="6.94441">
        <ele>16.96</ele>
        <time>2012-03-11T12:04:11Z</time>
      </trkpt>
      <trkpt lat="43.5461" lon="6.94459">
        <ele>16</ele>
        <time>2012-03-11T12:04:17Z</time>
      </trkpt>
      <trkpt lat="43.54593" lon="6.94473">
        <ele>12.63</ele>
        <time>2012-03-11T12:04:21Z</time>
      </trkpt>
      <trkpt lat="43.54527" lon="6.9452">
        <ele>6.87</ele>
        <time>2012-03-11T12:04:37Z</time>
      </trkpt>
      <trkpt lat="43.54489" lon="6.9455">
        <ele>3.98</ele>
        <time>2012-03-11T12:04:47Z</time>
      </trkpt>
      <trkpt lat="43.54484" lon="6.94574">
        <ele>1.1</ele>
        <time>2012-03-11T12:04:52Z</time>
      </trkpt>
      <trkpt lat="43.54512" lon="6.94642">
        <ele>-1.3</ele>
        <time>2012-03-11T12:05:08Z</time>
      </trkpt>
      <trkpt lat="43.54525" lon="6.94699">
        <ele>-0.34</ele>
        <time>2012-03-11T12:05:20Z</time>
      </trkpt>
      <trkpt lat="43.54523" lon="6.94752">
        <ele>-1.3</ele>
        <time>2012-03-11T12:05:31Z</time>
      </trkpt>
      <trkpt lat="43.54527" lon="6.9476">
        <ele>-2.27</ele>
        <time>2012-03-11T12:05:35Z</time>
      </trkpt>
      <trkpt lat="43.54564" lon="6.94743">
        <ele>-2.27</ele>
        <time>2012-03-11T12:05:47Z</time>
      </trkpt>
      <trkpt lat="43.54568" lon="6.94739">
        <ele>-2.27</ele>
        <time>2012-03-11T12:05:49Z</time>
      </trkpt>
      <trkpt lat="43.54589" lon="6.94744">
        <ele>-3.71</ele>
        <time>2012-03-11T12:05:57Z</time>
      </trkpt>
      <trkpt lat="43.5459" lon="6.94797">
        <ele>-3.23</ele>
        <time>2012-03-11T12:06:09Z</time>
      </trkpt>
      <trkpt lat="43.54587" lon="6.9488">
        <ele>-3.23</ele>
        <time>2012-03-11T12:06:25Z</time>
      </trkpt>
      <trkpt lat="43.54585" lon="6.94929">
        <ele>-2.75</ele>
        <time>2012-03-11T12:06:37Z</time>
      </trkpt>
      <trkpt lat="43.54571" lon="6.9494">
        <ele>-2.75</ele>
        <time>2012-03-11T12:06:43Z</time>
      </trkpt>
      <trkpt lat="43.54544" lon="6.94945">
        <ele>-3.71</ele>
        <time>2012-03-11T12:06:50Z</time>
      </trkpt>
      <trkpt lat="43.54527" lon="6.94941">
        <ele>-4.67</ele>
        <time>2012-03-11T12:06:54Z</time>
      </trkpt>
      <trkpt lat="43.54432" lon="6.94891">
        <ele>-8.03</ele>
        <time>2012-03-11T12:07:15Z</time>
      </trkpt>
      <trkpt lat="43.54345" lon="6.94851">
        <ele>-9.96</ele>
        <time>2012-03-11T12:07:33Z</time>
      </trkpt>
      <trkpt lat="43.5433" lon="6.94846">
        <ele>-9.96</ele>
        <time>2012-03-11T12:07:36Z</time>
      </trkpt>
      <trkpt lat="43.54314" lon="6.94834">
        <ele>-9.48</ele>
        <time>2012-03-11T12:07:40Z</time>
      </trkpt>
      <trkpt lat="43.54233" lon="6.94769">
        <ele>-8.03</ele>
        <time>2012-03-11T12:07:59Z</time>
      </trkpt>
      <trkpt lat="43.54204" lon="6.94754">
        <ele>-8.51</ele>
        <time>2012-03-11T12:08:05Z</time>
      </trkpt>
      <trkpt lat="43.54117" lon="6.94719">
        <ele>-8.51</ele>
        <time>2012-03-11T12:08:24Z</time>
      </trkpt>
      <trkpt lat="43.54026" lon="6.94695">
        <ele>-8.51</ele>
        <time>2012-03-11T12:08:43Z</time>
      </trkpt>
      <trkpt lat="43.53942" lon="6.94683">
        <ele>-9</ele>
        <time>2012-03-11T12:09:00Z</time>
      </trkpt>
      <trkpt lat="43.53908" lon="6.9468">
        <ele>-9.48</ele>
        <time>2012-03-11T12:09:07Z</time>
      </trkpt>
      <trkpt lat="43.53827" lon="6.9471">
        <ele>-10.92</ele>
        <time>2012-03-11T12:09:24Z</time>
      </trkpt>
      <trkpt lat="43.53775" lon="6.94727">
        <ele>-11.88</ele>
        <time>2012-03-11T12:09:35Z</time>
      </trkpt>
      <trkpt lat="43.5374" lon="6.94728">
        <ele>-11.4</ele>
        <time>2012-03-11T12:09:42Z</time>
      </trkpt>
      <trkpt lat="43.53716" lon="6.94711">
        <ele>-8.51</ele>
        <time>2012-03-11T12:09:48Z</time>
      </trkpt>
      <trkpt lat="43.53698" lon="6.94687">
        <ele>-7.07</ele>
        <time>2012-03-11T12:09:54Z</time>
      </trkpt>
      <trkpt lat="43.5369" lon="6.94687">
        <ele>-7.55</ele>
        <time>2012-03-11T12:09:56Z</time>
      </trkpt>
      <trkpt lat="43.53676" lon="6.94694">
        <ele>-6.59</ele>
        <time>2012-03-11T12:10:05Z</time>
      </trkpt>
      <trkpt lat="43.53677" lon="6.94691">
        <ele>-6.11</ele>
        <time>2012-03-11T12:10:07Z</time>
      </trkpt>
      <trkpt lat="43.53672" lon="6.94685">
        <ele>-5.15</ele>
        <time>2012-03-11T12:10:11Z</time>
      </trkpt>
      <trkpt lat="43.5366" lon="6.94666">
        <ele>-4.19</ele>
        <time>2012-03-11T12:10:16Z</time>
      </trkpt>
      <trkpt lat="43.53623" lon="6.94644">
        <ele>-3.71</ele>
        <time>2012-03-11T12:10:27Z</time>
      </trkpt>
      <trkpt lat="43.53614" lon="6.94642">
        <ele>-3.23</ele>
        <time>2012-03-11T12:10:30Z</time>
      </trkpt>
      <trkpt lat="43.53608" lon="6.94634">
        <ele>0.14</ele>
        <time>2012-03-11T12:10:42Z</time>
      </trkpt>
      <trkpt lat="43.53599" lon="6.94619">
        <ele>3.5</ele>
        <time>2012-03-11T12:10:50Z</time>
      </trkpt>
      <trkpt lat="43.53592" lon="6.94612">
        <ele>6.39</ele>
        <time>2012-03-11T12:10:55Z</time>
      </trkpt>
      <trkpt lat="43.53588" lon="6.94598">
        <ele>5.91</ele>
        <time>2012-03-11T12:11:08Z</time>
      </trkpt>
      <trkpt lat="43.53588" lon="6.94598">
        <ele>5.91</ele>
        <time>2012-03-11T12:11:16Z</time>
      </trkpt>
      <trkpt lat="43.53595" lon="6.94582">
        <ele>10.23</ele>
        <time>2012-03-11T12:11:29Z</time>
      </trkpt>
      <trkpt lat="43.53595" lon="6.94582">
        <ele>10.23</ele>
        <time>2012-03-11T12:11:49Z</time>
      </trkpt>
      <trkpt lat="43.53596" lon="6.9458">
        <ele>9.27</ele>
        <time>2012-03-11T12:12:08Z</time>
      </trkpt>
      <trkpt lat="43.53596" lon="6.9458">
        <ele>9.27</ele>
        <time>2012-03-11T12:12:24Z</time>
      </trkpt>
      <trkpt lat="43.53596" lon="6.9458">
        <ele>9.27</ele>
        <time>2012-03-11T12:12:40Z</time>
      </trkpt>
      <trkpt lat="43.53597" lon="6.9458">
        <ele>8.31</ele>
        <time>2012-03-11T12:12:57Z</time>
      </trkpt>
      <trkpt lat="43.53597" lon="6.9458">
        <ele>8.31</ele>
        <time>2012-03-11T12:13:12Z</time>
      </trkpt>
      <trkpt lat="43.53598" lon="6.94579">
        <ele>7.35</ele>
        <time>2012-03-11T12:13:28Z</time>
      </trkpt>
      <trkpt lat="43.53598" lon="6.94579">
        <ele>7.35</ele>
        <time>2012-03-11T12:13:42Z</time>
      </trkpt>
      <trkpt lat="43.53598" lon="6.94579">
        <ele>7.35</ele>
        <time>2012-03-11T12:13:59Z</time>
      </trkpt>
      <trkpt lat="43.53599" lon="6.94579">
        <ele>7.35</ele>
        <time>2012-03-11T12:14:15Z</time>
      </trkpt>
      <trkpt lat="43.53602" lon="6.94585">
        <ele>3.5</ele>
        <time>2012-03-11T12:14:29Z</time>
      </trkpt>
      <trkpt lat="43.53602" lon="6.94585">
        <ele>3.5</ele>
        <time>2012-03-11T12:14:45Z</time>
      </trkpt>
      <trkpt lat="43.53607" lon="6.94577">
        <ele>3.98</ele>
        <time>2012-03-11T12:14:56Z</time>
      </trkpt>
      <trkpt lat="43.53614" lon="6.94569">
        <ele>7.83</ele>
        <time>2012-03-11T12:15:09Z</time>
      </trkpt>
      <trkpt lat="43.53614" lon="6.94569">
        <ele>7.83</ele>
        <time>2012-03-11T12:15:31Z</time>
      </trkpt>
      <trkpt lat="43.53614" lon="6.94568">
        <ele>8.79</ele>
        <time>2012-03-11T12:15:50Z</time>
      </trkpt>
      <trkpt lat="43.53614" lon="6.94568">
        <ele>8.79</ele>
        <time>2012-03-11T12:16:16Z</time>
      </trkpt>
      <trkpt lat="43.53614" lon="6.94568">
        <ele>8.79</ele>
        <time>2012-03-11T12:16:51Z</time>
      </trkpt>
      <trkpt lat="43.53615" lon="6.94568">
        <ele>8.79</ele>
        <time>2012-03-11T12:17:24Z</time>
      </trkpt>
      <trkpt lat="43.53615" lon="6.94568">
        <ele>8.79</ele>
        <time>2012-03-11T12:18:00Z</time>
      </trkpt>
      <trkpt lat="43.53615" lon="6.94568">
        <ele>8.79</ele>
        <time>2012-03-11T12:18:30Z</time>
      </trkpt>
      <trkpt lat="43.53615" lon="6.94568">
        <ele>8.79</ele>
        <time>2012-03-11T12:19:12Z</time>
      </trkpt>
      <trkpt lat="43.53615" lon="6.94568">
        <ele>8.79</ele>
        <time>2012-03-11T12:19:55Z</time>
      </trkpt>
      <trkpt lat="43.53615" lon="6.94568">
        <ele>8.31</ele>
        <time>2012-03-11T12:20:33Z</time>
      </trkpt>
      <trkpt lat="43.53616" lon="6.94568">
        <ele>8.31</ele>
        <time>2012-03-11T12:21:09Z</time>
      </trkpt>
      <trkpt lat="43.53616" lon="6.94568">
        <ele>8.31</ele>
        <time>2012-03-11T12:21:50Z</time>
      </trkpt>
      <trkpt lat="43.53616" lon="6.94568">
        <ele>8.31</ele>
        <time>2012-03-11T12:22:21Z</time>
      </trkpt>
      <trkpt lat="43.53617" lon="6.94568">
        <ele>8.31</ele>
        <time>2012-03-11T12:22:57Z</time>
      </trkpt>
      <trkpt lat="43.53618" lon="6.94568">
        <ele>8.31</ele>
        <time>2012-03-11T12:23:32Z</time>
      </trkpt>
      <trkpt lat="43.53619" lon="6.94569">
        <ele>7.35</ele>
        <time>2012-03-11T12:24:07Z</time>
      </trkpt>
      <trkpt lat="43.53619" lon="6.9457">
        <ele>7.35</ele>
        <time>2012-03-11T12:24:47Z</time>
      </trkpt>
      <trkpt lat="43.5362" lon="6.94571">
        <ele>6.87</ele>
        <time>2012-03-11T12:25:25Z</time>
      </trkpt>
      <trkpt lat="43.5362" lon="6.94571">
        <ele>5.91</ele>
        <time>2012-03-11T12:25:59Z</time>
      </trkpt>
      <trkpt lat="43.53621" lon="6.94571">
        <ele>6.39</ele>
        <time>2012-03-11T12:26:36Z</time>
      </trkpt>
      <trkpt lat="43.53621" lon="6.94572">
        <ele>6.87</ele>
        <time>2012-03-11T12:27:08Z</time>
      </trkpt>
      <trkpt lat="43.53621" lon="6.94572">
        <ele>6.87</ele>
        <time>2012-03-11T12:27:43Z</time>
      </trkpt>
      <trkpt lat="43.53622" lon="6.94572">
        <ele>6.87</ele>
        <time>2012-03-11T12:28:18Z</time>
      </trkpt>
      <trkpt lat="43.53622" lon="6.94572">
        <ele>7.35</ele>
        <time>2012-03-11T12:28:54Z</time>
      </trkpt>
      <trkpt lat="43.53623" lon="6.94572">
        <ele>6.87</ele>
        <time>2012-03-11T12:29:27Z</time>
      </trkpt>
      <trkpt lat="43.53623" lon="6.94572">
        <ele>6.87</ele>
        <time>2012-03-11T12:29:56Z</time>
      </trkpt>
      <trkpt lat="43.53623" lon="6.94573">
        <ele>6.39</ele>
        <time>2012-03-11T12:30:28Z</time>
      </trkpt>
      <trkpt lat="43.53623" lon="6.94573">
        <ele>5.91</ele>
        <time>2012-03-11T12:31:05Z</time>
      </trkpt>
      <trkpt lat="43.53623" lon="6.94573">
        <ele>5.91</ele>
        <time>2012-03-11T12:31:39Z</time>
      </trkpt>
      <trkpt lat="43.53623" lon="6.94574">
        <ele>5.91</ele>
        <time>2012-03-11T12:32:20Z</time>
      </trkpt>
      <trkpt lat="43.53624" lon="6.94574">
        <ele>5.91</ele>
        <time>2012-03-11T12:32:57Z</time>
      </trkpt>
      <trkpt lat="43.53624" lon="6.94575">
        <ele>5.42</ele>
        <time>2012-03-11T12:33:34Z</time>
      </trkpt>
      <trkpt lat="43.53624" lon="6.94574">
        <ele>5.91</ele>
        <time>2012-03-11T12:34:13Z</time>
      </trkpt>
      <trkpt lat="43.53624" lon="6.94574">
        <ele>5.91</ele>
        <time>2012-03-11T12:34:19Z</time>
      </trkpt>
      <trkpt lat="43.53628" lon="6.94584">
        <ele>1.1</ele>
        <time>2012-03-11T12:34:41Z</time>
      </trkpt>
      <trkpt lat="43.5362" lon="6.94571">
        <ele>2.06</ele>
        <time>2012-03-11T12:35:09Z</time>
      </trkpt>
    </trkseg>
  </trk>
</gpx>